[[{"header":{"parameterUnit":"m.s-1","parameterCategory":1,"la1":31.0,"la2":29.5877,"lo1":-88.7671,"lo2":-86.6584,"dy":0.0162,"dx":0.0185,"nx":115,"ny":88,"refTime":"2024-03-10T06:00:00:Z","depth":0,"parameterNumber":2,"parameterNumberName":"U-component_of_WINDS"},"data":[0.0,0.0,0.0,0.0,0.0,0.0,0.0,0.0,0.0,0.0,0.0,0.0,0.0,0.0,0.0,0.0,0.0,0.0,0.0,0.0,0.0,0.0,0.0,0.0,0.0,0.0,0.0,0.0,0.0,0.0,0.0,0.0,0.0,0.0,0.0,0.0,0.0,0.0,0.0,0.0,0.0,0.0,0.0,0.0,0.0,0.0,0.0,0.0,0.0,0.0,0.0,0.0,0.0,0.0,0.0,0.0,0.0,0.0,0.0,0.0,0.0,0.0,0.0,0.0,0.0,0.0,0.0,0.0,0.0,0.0,0.0,0.0,0.0,0.0,0.0,0.0,0.0,0.0,0.0,0.0,0.0,0.0,0.0,0.0,0.0,0.0,0.0,0.0,0.0,0.0,0.0,0.0,0.0,0.0,0.0,0.0,0.0,0.0,0.0,0.0,0.0,0.0,0.0,0.0,0.0,0.0,0.0,0.0,0.0,0.0,0.0,0.0,0.0,0.0,0.0,0.0,0.0,0.0,0.0,0.0,0.0,0.0,0.0,0.0,0.0,0.0,0.0,0.0,0.0,0.0,0.0,0.0,0.0,0.0,0.0,0.0,0.0,0.0,0.0,0.0,0.0,0.0,0.0,0.0,0.0,0.0,0.0,0.0,0.0,0.0,0.0,0.0,0.0,0.0,0.0,0.0,0.0,0.0,0.0,0.0,0.0,0.0,0.0,0.0,0.0,0.0,0.0,0.0,0.0,0.0,0.0,0.0,0.0,0.0,0.0,0.0,0.0,0.0,0.0,0.0,0.0,0.0,0.0,0.0,0.0,0.0,0.0,0.0,0.0,0.0,0.0,0.0,0.0,0.0,0.0,0.0,0.0,0.0,0.0,0.0,0.0,0.0,0.0,0.0,0.0,0.0,0.0,0.0,0.0,0.0,0.0,0.0,0.0,0.0,0.0,0.0,0.0,0.0,0.0,0.0,0.0,0.0,0.0,0.0,0.0,0.0,0.0,0.0,0.0,0.0,0.0,0.0,0.0,0.0,0.0,0.0,0.0,0.0,0.0,0.0,0.0,0.0,0.0,0.0,0.0,0.0,0.0,0.0,0.0,0.0,0.0,0.0,0.0,0.0,0.0,0.0,0.0,0.0,0.0,0.0,0.0,0.0,0.0,0.0,0.0,0.0,0.0,0.0,0.0,0.0,0.0,0.0,0.0,0.0,0.0,0.0,0.0,0.0,0.0,0.0,0.0,0.0,0.0,0.0,0.0,0.0,0.0,0.0,0.0,0.0,0.0,0.0,0.0,0.0,0.0,0.0,0.0,0.0,0.0,0.0,0.0,0.0,0.0,0.0,0.0,0.0,0.0,0.0,0.0,0.0,0.0,0.0,0.0,0.0,0.0,0.0,0.0,0.0,0.0,0.0,0.0,0.0,0.0,0.0,0.0,0.0,0.0,0.0,0.0,0.0,0.0,0.0,0.0,0.0,0.0,0.0,0.0,0.0,0.0,0.0,0.0,0.0,0.0,0.0,0.0,0.0,0.0,0.0,0.0,0.0,0.0,0.0,0.0,0.0,0.0,0.0,0.0,0.0,0.0,0.0,0.0,0.0,0.0,0.0,0.0,0.0,0.0,0.0,0.0,0.0,0.0,0.0,0.0,0.0,0.0,0.0,0.0,0.0,0.0,0.0,0.0,0.0,0.0,0.0,0.0,0.0,0.0,0.0,0.0,0.0,0.0,0.0,0.0,0.0,0.0,0.0,0.0,0.0,0.0,0.0,0.0,0.0,0.0,0.0,0.0,0.0,0.0,0.0,0.0,0.0,0.0,0.0,0.0,0.0,0.0,0.0,0.0,0.0,0.0,0.0,0.0,0.0,0.0,0.0,0.0,0.0,0.0,0.0,0.0,0.0,0.0,0.0,0.0,0.0,0.0,0.0,0.0,0.0,0.0,0.0,0.0,0.0,0.0,0.0,0.0,0.0,0.0,0.0,0.0,0.0,0.0,0.0,0.0,0.0,0.0,0.0,0.0,0.0,0.0,0.0,0.0,0.0,0.0,0.0,0.0,0.0,0.0,0.0,0.0,0.0,0.0,0.0,0.0,0.0,0.0,0.0,0.0,0.0,0.0,0.0,0.0,0.0,0.0,0.0,0.0,0.0,0.0,0.0,0.0,0.0,0.0,0.0,0.0,0.0,0.0,0.0,0.0,0.0,0.0,0.0,0.0,0.0,0.0,0.0,0.0,0.0,0.0,0.0,0.0,0.0,0.0,0.0,0.0,0.0,0.0,0.0,0.0,0.0,0.0,0.0,0.0,0.0,0.0,0.0,0.0,0.0,0.0,0.0,0.0,0.0,0.0,0.0,0.0,0.0,0.0,0.0,0.0,0.0,0.0,0.0,0.0,0.0,0.0,0.0,0.0,0.0,0.0,0.0,0.0,0.0,0.0,0.0,0.0,0.0,0.0,0.0,0.0,0.0,0.0,0.0,0.0,0.0,0.0,0.0,0.0,0.0,0.0,0.0,0.0,0.0,0.0,0.0,0.0,0.0,0.0,0.0,0.0,0.0,0.0,0.0,0.0,0.0,0.0,0.0,0.0,0.0,0.0,0.0,0.0,0.0,0.0,0.0,0.0,0.0,0.0,0.0,0.0,0.0,0.0,0.0,0.0,0.0,0.0,0.0,0.0,0.0,0.0,0.0,0.0,0.0,0.0,0.0,0.0,0.0,0.0,0.0,0.0,0.0,0.0,0.0,0.0,0.0,0.0,0.0,0.0,0.0,0.0,0.0,0.0,0.0,0.0,0.0,0.0,0.0,0.0,0.0,0.0,0.0,0.0,0.0,0.0,0.0,0.0,0.0,0.0,0.0,0.0,0.0,0.0,0.0,0.0,0.0,0.0,0.0,0.0,0.0,0.0,0.0,0.0,0.0,0.0,0.0,0.0,0.0,0.0,0.0,0.0,0.0,0.0,0.0,0.0,0.0,0.0,0.0,0.0,0.0,0.0,0.0,0.0,0.0,0.0,0.0,0.0,0.0,0.0,0.0,0.0,0.0,0.0,0.0,0.0,0.0,0.0,0.0,0.0,0.0,0.0,0.0,0.0,0.0,0.0,0.0,0.0,0.0,0.0,0.0,0.0,0.0,0.0,0.0,0.0,0.0,0.0,0.0,0.0,0.0,0.0,0.0,0.0,0.0,0.0,0.0,0.0,0.0,0.0,0.0,0.0,0.0,0.0,0.0,0.0,0.0,0.0,0.0,0.0,0.0,0.0,0.0,0.0,0.0,0.0,0.0,0.0,0.0,0.0,0.0,0.0,0.0,0.0,0.0,0.0,0.0,0.0,0.0,0.0,0.0,0.0,0.0,0.0,0.0,0.0,0.0,0.0,0.0,0.0,0.0,0.0,0.0,0.0,0.0,0.0,0.0,0.0,0.0,0.0,0.0,0.0,0.0,0.0,0.0,0.0,0.0,0.0,0.0,0.0,0.0,0.0,0.0,0.0,0.0,0.0,0.0,0.0,0.0,0.0,0.0,0.0,0.0,0.0,0.0,0.0,0.0,0.0,0.0,0.0,0.0,0.0,0.0,0.0,0.0,0.0,0.0,0.0,0.0,0.0,0.0,0.0,0.0,0.0,0.0,0.0,0.0,0.0,0.0,0.0,0.0,0.0,0.0,0.0,0.0,0.0,0.0,0.0,0.0,0.0,0.0,0.0,0.0,0.0,0.0,0.0,0.0,0.0,0.0,0.0,0.0,0.0,0.0,0.0,0.0,0.0,0.0,0.0,0.0,0.0,0.0,0.0,0.0,0.0,0.0,0.0,0.0,0.0,0.0,0.0,0.0,0.0,0.0,0.0,0.0,0.0,0.0,0.0,0.0,0.0,0.0,0.0,0.0,0.0,0.0,0.0,0.0,0.0,0.0,0.0,0.0,0.0,0.0,0.0,0.0,0.0,0.0,0.0,0.0,0.0,0.0,0.0,0.0,0.0,0.0,0.0,0.0,0.0,0.0,0.0,0.0,0.0,0.0,0.0,0.0,0.0,0.0,0.0,0.0,0.0,0.0,0.0,0.0,0.0,0.0,0.0,0.0,0.0,0.0,0.0,0.0,0.0,0.0,0.0,0.0,0.0,0.0,0.0,0.0,0.0,0.0,0.0,0.0,0.0,0.0,0.0,0.0,0.0,0.0,0.0,0.0,0.0,0.0,0.0,0.0,0.0,0.0,0.0,0.0,0.0,0.0,0.0,0.0,0.0,0.0,0.0,0.0,0.0,0.0,0.0,0.0,-4.6046,0.0,0.0,0.0,0.0,0.0,0.0,0.0,0.0,0.0,0.0,0.0,0.0,0.0,0.0,0.0,0.0,0.0,0.0,0.0,0.0,0.0,0.0,0.0,0.0,0.0,0.0,0.0,0.0,0.0,0.0,0.0,0.0,0.0,0.0,0.0,0.0,0.0,0.0,0.0,0.0,0.0,0.0,0.0,0.0,0.0,0.0,0.0,0.0,0.0,0.0,0.0,0.0,0.0,0.0,0.0,0.0,0.0,0.0,0.0,0.0,0.0,0.0,0.0,0.0,0.0,0.0,0.0,0.0,0.0,0.0,0.0,0.0,0.0,0.0,0.0,0.0,0.0,0.0,0.0,0.0,0.0,0.0,0.0,0.0,0.0,0.0,0.0,0.0,0.0,0.0,0.0,0.0,0.0,0.0,0.0,0.0,0.0,0.0,0.0,0.0,0.0,0.0,0.0,0.0,0.0,0.0,0.0,0.0,0.0,0.0,-4.9382,-4.9011,-4.8366,-4.7665,-4.686,0.0,0.0,0.0,0.0,0.0,0.0,0.0,0.0,0.0,0.0,0.0,0.0,0.0,0.0,0.0,0.0,0.0,0.0,0.0,0.0,0.0,0.0,0.0,0.0,0.0,0.0,0.0,0.0,0.0,0.0,0.0,0.0,0.0,0.0,0.0,0.0,0.0,0.0,0.0,0.0,0.0,0.0,0.0,0.0,0.0,0.0,0.0,0.0,0.0,0.0,0.0,0.0,0.0,0.0,0.0,0.0,0.0,0.0,0.0,0.0,0.0,0.0,0.0,0.0,0.0,0.0,0.0,0.0,0.0,0.0,0.0,0.0,0.0,0.0,0.0,0.0,0.0,0.0,0.0,0.0,0.0,0.0,0.0,0.0,0.0,0.0,0.0,0.0,0.0,0.0,0.0,0.0,0.0,0.0,0.0,0.0,0.0,0.0,0.0,0.0,0.0,0.0,0.0,0.0,0.0,0.0,0.0,0.0,0.0,0.0,0.0,0.0,-4.9132,-4.83,-4.737,0.0,0.0,0.0,0.0,0.0,0.0,0.0,0.0,0.0,0.0,0.0,0.0,0.0,0.0,0.0,0.0,0.0,0.0,0.0,0.0,0.0,0.0,0.0,0.0,0.0,0.0,0.0,0.0,0.0,0.0,0.0,0.0,0.0,0.0,0.0,0.0,0.0,0.0,0.0,0.0,0.0,0.0,0.0,0.0,0.0,0.0,0.0,0.0,0.0,0.0,0.0,0.0,0.0,0.0,0.0,0.0,0.0,0.0,0.0,0.0,0.0,0.0,0.0,0.0,0.0,0.0,0.0,0.0,0.0,0.0,0.0,0.0,0.0,0.0,0.0,0.0,0.0,0.0,0.0,0.0,0.0,0.0,0.0,0.0,0.0,0.0,0.0,0.0,0.0,0.0,0.0,0.0,0.0,0.0,0.0,0.0,0.0,0.0,0.0,0.0,0.0,0.0,0.0,0.0,0.0,0.0,0.0,0.0,0.0,0.0,-5.1167,-5.0958,-5.0498,0.0,-4.743,0.0,0.0,0.0,0.0,0.0,0.0,0.0,0.0,0.0,0.0,0.0,0.0,0.0,0.0,0.0,0.0,0.0,0.0,0.0,0.0,0.0,0.0,0.0,0.0,0.0,0.0,0.0,0.0,0.0,0.0,0.0,0.0,0.0,0.0,0.0,0.0,0.0,0.0,0.0,0.0,0.0,0.0,0.0,0.0,0.0,0.0,0.0,0.0,0.0,0.0,0.0,0.0,0.0,0.0,0.0,0.0,0.0,0.0,0.0,0.0,0.0,0.0,0.0,0.0,0.0,0.0,0.0,0.0,0.0,0.0,0.0,0.0,0.0,0.0,0.0,0.0,0.0,0.0,0.0,0.0,0.0,0.0,0.0,0.0,0.0,0.0,0.0,0.0,0.0,0.0,0.0,0.0,0.0,0.0,0.0,0.0,0.0,0.0,0.0,0.0,0.0,0.0,0.0,0.0,0.0,0.0,0.0,0.0,0.0,0.0,-5.2136,-5.1927,-5.0581,-4.9185,0.0,0.0,0.0,0.0,0.0,0.0,0.0,0.0,0.0,0.0,0.0,0.0,0.0,0.0,0.0,0.0,0.0,0.0,0.0,0.0,0.0,0.0,0.0,0.0,0.0,0.0,0.0,0.0,0.0,0.0,0.0,0.0,0.0,0.0,0.0,0.0,0.0,0.0,0.0,0.0,0.0,0.0,0.0,0.0,0.0,0.0,0.0,0.0,0.0,0.0,0.0,0.0,0.0,0.0,0.0,0.0,0.0,0.0,0.0,0.0,0.0,0.0,0.0,0.0,0.0,0.0,0.0,0.0,0.0,0.0,0.0,0.0,0.0,0.0,0.0,0.0,0.0,0.0,0.0,0.0,0.0,0.0,0.0,0.0,0.0,0.0,0.0,0.0,0.0,0.0,0.0,0.0,0.0,0.0,0.0,0.0,0.0,0.0,0.0,0.0,0.0,0.0,0.0,0.0,0.0,0.0,0.0,0.0,0.0,0.0,-5.1761,-5.2498,-5.2408,-5.062,-4.9186,-4.8384,0.0,0.0,0.0,0.0,0.0,0.0,0.0,0.0,0.0,0.0,0.0,0.0,0.0,0.0,0.0,0.0,0.0,0.0,0.0,0.0,0.0,0.0,0.0,0.0,0.0,0.0,0.0,0.0,0.0,0.0,0.0,0.0,0.0,0.0,0.0,0.0,0.0,0.0,0.0,0.0,0.0,0.0,0.0,0.0,0.0,0.0,0.0,0.0,0.0,0.0,0.0,0.0,0.0,0.0,0.0,0.0,0.0,0.0,0.0,0.0,0.0,0.0,0.0,0.0,0.0,0.0,0.0,0.0,0.0,0.0,0.0,0.0,0.0,0.0,0.0,0.0,0.0,0.0,0.0,0.0,0.0,0.0,0.0,0.0,0.0,0.0,0.0,0.0,0.0,0.0,0.0,0.0,0.0,0.0,0.0,0.0,0.0,0.0,0.0,0.0,0.0,0.0,0.0,0.0,0.0,0.0,0.0,0.0,-4.9504,-5.1039,-5.2058,-5.2412,-5.0941,-4.9812,0.0,0.0,0.0,0.0,0.0,0.0,0.0,0.0,0.0,0.0,0.0,0.0,0.0,0.0,0.0,0.0,0.0,0.0,0.0,0.0,0.0,0.0,0.0,0.0,0.0,0.0,0.0,0.0,0.0,0.0,0.0,0.0,0.0,0.0,0.0,0.0,0.0,0.0,0.0,0.0,0.0,0.0,0.0,0.0,0.0,0.0,0.0,0.0,0.0,0.0,0.0,0.0,0.0,0.0,0.0,0.0,0.0,0.0,0.0,0.0,0.0,0.0,0.0,0.0,0.0,0.0,0.0,0.0,0.0,0.0,0.0,0.0,0.0,0.0,0.0,0.0,0.0,0.0,0.0,0.0,0.0,0.0,0.0,0.0,0.0,0.0,0.0,0.0,0.0,0.0,0.0,0.0,0.0,0.0,0.0,0.0,0.0,0.0,0.0,0.0,0.0,0.0,0.0,0.0,0.0,0.0,0.0,0.0,0.0,-4.9667,-5.1154,-5.1744,-5.1307,-5.054,-4.9716,0.0,0.0,0.0,0.0,0.0,0.0,0.0,0.0,0.0,0.0,0.0,0.0,0.0,0.0,0.0,0.0,0.0,0.0,0.0,0.0,0.0,0.0,0.0,0.0,0.0,0.0,0.0,0.0,0.0,0.0,0.0,0.0,0.0,0.0,0.0,0.0,0.0,0.0,0.0,0.0,0.0,0.0,0.0,0.0,0.0,0.0,0.0,0.0,0.0,0.0,0.0,0.0,0.0,0.0,0.0,0.0,0.0,0.0,0.0,0.0,0.0,0.0,0.0,0.0,0.0,0.0,0.0,0.0,0.0,0.0,0.0,0.0,0.0,0.0,0.0,0.0,0.0,0.0,0.0,0.0,0.0,0.0,0.0,0.0,0.0,0.0,0.0,0.0,0.0,0.0,0.0,0.0,0.0,0.0,0.0,0.0,0.0,0.0,0.0,0.0,0.0,0.0,0.0,0.0,0.0,0.0,0.0,0.0,0.0,-5.0192,0.0,-5.1587,-5.113,-5.0694,-4.9853,0.0,0.0,0.0,0.0,0.0,0.0,0.0,0.0,0.0,0.0,0.0,0.0,0.0,0.0,0.0,0.0,0.0,0.0,0.0,0.0,0.0,0.0,0.0,0.0,0.0,0.0,0.0,0.0,0.0,0.0,0.0,0.0,0.0,0.0,0.0,0.0,0.0,0.0,0.0,0.0,0.0,0.0,0.0,0.0,0.0,0.0,0.0,0.0,0.0,0.0,0.0,0.0,0.0,0.0,0.0,0.0,0.0,0.0,0.0,0.0,0.0,0.0,0.0,0.0,0.0,0.0,0.0,0.0,0.0,0.0,0.0,0.0,0.0,0.0,0.0,0.0,0.0,0.0,0.0,0.0,0.0,0.0,0.0,0.0,0.0,0.0,0.0,0.0,0.0,0.0,0.0,0.0,0.0,0.0,0.0,0.0,0.0,0.0,0.0,0.0,0.0,0.0,0.0,0.0,0.0,0.0,0.0,0.0,-4.9381,-5.1083,-5.1213,-5.1509,-5.2114,-5.1315,-5.0244,0.0,0.0,0.0,0.0,0.0,0.0,0.0,0.0,0.0,0.0,0.0,0.0,0.0,0.0,0.0,0.0,0.0,0.0,0.0,0.0,0.0,0.0,0.0,0.0,0.0,0.0,0.0,0.0,0.0,0.0,0.0,0.0,0.0,0.0,0.0,0.0,0.0,0.0,0.0,0.0,0.0,0.0,0.0,0.0,0.0,0.0,0.0,0.0,0.0,0.0,0.0,0.0,0.0,0.0,0.0,0.0,0.0,0.0,0.0,0.0,0.0,0.0,0.0,0.0,0.0,0.0,0.0,0.0,0.0,0.0,0.0,0.0,0.0,0.0,0.0,0.0,0.0,0.0,0.0,0.0,0.0,0.0,0.0,0.0,0.0,0.0,0.0,0.0,0.0,0.0,0.0,0.0,0.0,0.0,0.0,0.0,0.0,0.0,0.0,0.0,0.0,0.0,0.0,0.0,0.0,0.0,0.0,0.0,0.0,-5.0451,-5.1116,-5.1283,-5.0914,-5.099,-5.0186,0.0,0.0,0.0,0.0,0.0,0.0,0.0,0.0,0.0,0.0,0.0,0.0,0.0,0.0,0.0,0.0,0.0,0.0,0.0,0.0,0.0,0.0,0.0,0.0,0.0,0.0,0.0,0.0,0.0,0.0,0.0,0.0,0.0,0.0,0.0,0.0,0.0,0.0,0.0,0.0,0.0,0.0,0.0,0.0,0.0,0.0,0.0,0.0,0.0,0.0,0.0,0.0,0.0,0.0,0.0,0.0,0.0,0.0,0.0,0.0,0.0,0.0,0.0,0.0,0.0,0.0,0.0,0.0,0.0,0.0,0.0,0.0,0.0,0.0,0.0,0.0,0.0,0.0,0.0,0.0,0.0,0.0,0.0,0.0,0.0,0.0,0.0,0.0,0.0,0.0,0.0,0.0,0.0,0.0,0.0,0.0,0.0,0.0,0.0,0.0,0.0,0.0,0.0,0.0,0.0,0.0,0.0,0.0,0.0,-5.0757,-5.1644,-5.1882,-5.1379,-5.1303,-5.0453,-4.8745,0.0,0.0,0.0,0.0,0.0,0.0,0.0,0.0,0.0,0.0,0.0,0.0,0.0,0.0,0.0,0.0,0.0,0.0,0.0,0.0,0.0,0.0,0.0,0.0,0.0,0.0,0.0,0.0,0.0,0.0,0.0,0.0,0.0,0.0,0.0,0.0,0.0,0.0,0.0,0.0,0.0,0.0,0.0,0.0,0.0,0.0,0.0,0.0,0.0,0.0,0.0,0.0,0.0,0.0,0.0,0.0,0.0,0.0,0.0,0.0,0.0,0.0,0.0,0.0,0.0,0.0,0.0,0.0,0.0,0.0,0.0,0.0,0.0,0.0,0.0,0.0,0.0,0.0,0.0,0.0,0.0,0.0,0.0,0.0,0.0,0.0,0.0,0.0,0.0,0.0,0.0,0.0,0.0,0.0,0.0,0.0,0.0,0.0,0.0,0.0,0.0,0.0,0.0,0.0,0.0,0.0,0.0,0.0,-5.1813,-5.264,-5.3104,-5.3151,-5.2091,-5.0934,0.0,0.0,0.0,0.0,0.0,0.0,0.0,0.0,0.0,0.0,0.0,0.0,0.0,0.0,0.0,0.0,0.0,0.0,0.0,0.0,0.0,0.0,0.0,0.0,0.0,0.0,0.0,0.0,0.0,0.0,0.0,0.0,0.0,0.0,0.0,0.0,0.0,0.0,0.0,0.0,0.0,0.0,0.0,0.0,0.0,0.0,0.0,0.0,0.0,0.0,0.0,0.0,0.0,0.0,0.0,0.0,0.0,0.0,0.0,0.0,0.0,0.0,0.0,0.0,0.0,0.0,0.0,0.0,0.0,0.0,0.0,0.0,0.0,0.0,0.0,0.0,0.0,0.0,0.0,0.0,0.0,0.0,0.0,0.0,0.0,0.0,0.0,0.0,0.0,0.0,0.0,0.0,0.0,0.0,0.0,0.0,0.0,0.0,0.0,0.0,0.0,0.0,0.0,0.0,0.0,0.0,0.0,0.0,0.0,-5.2131,-5.34,-5.3821,-5.3224,-5.2091,-5.1006,0.0,0.0,0.0,0.0,0.0,0.0,0.0,0.0,0.0,0.0,0.0,0.0,0.0,0.0,0.0,0.0,0.0,0.0,0.0,0.0,0.0,0.0,0.0,0.0,0.0,0.0,0.0,0.0,0.0,0.0,0.0,0.0,0.0,0.0,0.0,0.0,0.0,0.0,0.0,0.0,0.0,0.0,0.0,0.0,0.0,0.0,0.0,0.0,0.0,0.0,0.0,0.0,0.0,0.0,0.0,0.0,0.0,0.0,0.0,0.0,0.0,0.0,0.0,0.0,0.0,0.0,0.0,0.0,0.0,0.0,0.0,0.0,0.0,0.0,0.0,0.0,0.0,0.0,0.0,0.0,0.0,0.0,0.0,0.0,0.0,0.0,0.0,0.0,0.0,0.0,0.0,0.0,0.0,0.0,0.0,0.0,0.0,0.0,0.0,0.0,0.0,0.0,0.0,0.0,0.0,0.0,0.0,0.0,-5.2445,-5.3239,-5.4116,-5.4465,-5.4307,-5.2515,-5.1281,0.0,0.0,0.0,0.0,0.0,0.0,0.0,0.0,0.0,0.0,0.0,0.0,0.0,0.0,0.0,0.0,0.0,0.0,0.0,0.0,0.0,0.0,0.0,0.0,0.0,0.0,0.0,0.0,0.0,0.0,0.0,0.0,0.0,0.0,0.0,0.0,0.0,0.0,0.0,0.0,0.0,0.0,0.0,0.0,0.0,0.0,0.0,0.0,0.0,0.0,0.0,0.0,0.0,0.0,0.0,0.0,0.0,0.0,0.0,0.0,0.0,0.0,0.0,0.0,0.0,0.0,0.0,0.0,0.0,0.0,0.0,0.0,0.0,0.0,0.0,0.0,0.0,0.0,0.0,0.0,0.0,0.0,0.0,0.0,0.0,0.0,0.0,0.0,0.0,0.0,0.0,0.0,0.0,0.0,0.0,0.0,0.0,0.0,0.0,0.0,0.0,0.0,0.0,0.0,0.0,0.0,0.0,0.0,-5.304,-5.4683,-5.4739,-5.5069,-5.5704,-5.3236,-5.172,0.0,0.0,0.0,0.0,0.0,0.0,0.0,0.0,0.0,0.0,0.0,0.0,0.0,0.0,0.0,0.0,0.0,0.0,0.0,0.0,0.0,0.0,0.0,0.0,0.0,0.0,0.0,0.0,0.0,0.0,0.0,0.0,0.0,0.0,0.0,0.0,0.0,0.0,0.0,0.0,0.0,0.0,0.0,0.0,0.0,0.0,0.0,0.0,0.0,0.0,0.0,0.0,0.0,0.0,0.0,0.0,0.0,0.0,0.0,0.0,0.0,0.0,0.0,0.0,0.0,0.0,0.0,0.0,0.0,0.0,0.0,0.0,0.0,0.0,0.0,0.0,0.0,0.0,0.0,0.0,0.0,0.0,0.0,0.0,0.0,0.0,0.0,0.0,0.0,0.0,0.0,0.0,0.0,0.0,0.0,0.0,0.0,0.0,0.0,0.0,0.0,0.0,0.0,0.0,0.0,0.0,0.0,0.0,-5.3215,-5.487,-5.4886,-5.5208,-5.592,-5.386,-5.2333,0.0,0.0,0.0,0.0,0.0,0.0,0.0,0.0,0.0,0.0,0.0,0.0,0.0,0.0,0.0,0.0,0.0,0.0,0.0,0.0,0.0,0.0,0.0,0.0,0.0,0.0,0.0,0.0,0.0,0.0,0.0,0.0,0.0,0.0,0.0,0.0,0.0,0.0,0.0,0.0,0.0,0.0,0.0,0.0,0.0,0.0,0.0,0.0,-5.0848,0.0,0.0,0.0,0.0,0.0,0.0,0.0,0.0,0.0,0.0,0.0,0.0,0.0,0.0,0.0,0.0,0.0,0.0,0.0,0.0,0.0,0.0,0.0,0.0,0.0,0.0,0.0,0.0,0.0,0.0,0.0,0.0,0.0,0.0,0.0,0.0,0.0,0.0,0.0,0.0,0.0,0.0,0.0,0.0,0.0,0.0,0.0,0.0,0.0,0.0,0.0,0.0,0.0,0.0,0.0,0.0,0.0,0.0,0.0,-5.3504,-5.557,-5.5194,-5.5325,-5.6038,-5.4635,-5.3167,0.0,0.0,0.0,0.0,0.0,0.0,0.0,0.0,0.0,0.0,0.0,0.0,0.0,0.0,0.0,0.0,0.0,0.0,0.0,0.0,0.0,0.0,0.0,0.0,0.0,0.0,0.0,0.0,0.0,0.0,0.0,0.0,0.0,0.0,0.0,0.0,0.0,0.0,0.0,0.0,0.0,0.0,0.0,0.0,0.0,0.0,0.0,0.0,0.0,0.0,0.0,0.0,0.0,0.0,0.0,0.0,0.0,0.0,0.0,0.0,0.0,0.0,0.0,0.0,0.0,0.0,0.0,0.0,0.0,0.0,0.0,0.0,0.0,0.0,0.0,0.0,0.0,0.0,0.0,0.0,0.0,0.0,0.0,0.0,0.0,0.0,0.0,0.0,0.0,0.0,0.0,0.0,0.0,0.0,0.0,0.0,0.0,0.0,0.0,0.0,0.0,0.0,0.0,0.0,0.0,0.0,0.0,-5.2451,-5.381,-5.6292,-5.5536,-5.5456,-5.6292,-5.5242,-5.3792,-5.2011,0.0,0.0,0.0,0.0,0.0,0.0,0.0,0.0,0.0,0.0,0.0,0.0,0.0,0.0,0.0,0.0,0.0,0.0,0.0,0.0,0.0,0.0,0.0,0.0,0.0,0.0,0.0,0.0,0.0,0.0,0.0,0.0,0.0,0.0,0.0,0.0,0.0,0.0,-4.8942,-5.1234,0.0,0.0,0.0,0.0,0.0,0.0,0.0,0.0,-5.14,0.0,0.0,0.0,0.0,0.0,0.0,0.0,0.0,0.0,0.0,0.0,0.0,0.0,0.0,0.0,0.0,0.0,0.0,0.0,0.0,0.0,0.0,0.0,0.0,0.0,0.0,0.0,0.0,0.0,0.0,0.0,0.0,0.0,0.0,0.0,0.0,0.0,0.0,0.0,0.0,0.0,0.0,0.0,0.0,0.0,0.0,0.0,0.0,0.0,0.0,0.0,0.0,0.0,0.0,0.0,0.0,-5.231,-5.2568,-5.3964,-5.6563,-5.5785,-5.5708,-5.6458,-5.4805,-5.3366,-5.2281,0.0,0.0,0.0,0.0,0.0,0.0,0.0,0.0,0.0,0.0,0.0,0.0,0.0,0.0,0.0,0.0,0.0,0.0,0.0,0.0,0.0,0.0,0.0,0.0,0.0,0.0,0.0,0.0,0.0,0.0,0.0,0.0,0.0,0.0,0.0,0.0,0.0,0.0,0.0,-5.1968,-5.2967,0.0,0.0,0.0,0.0,0.0,0.0,0.0,0.0,-5.1386,0.0,0.0,0.0,0.0,0.0,0.0,0.0,0.0,0.0,0.0,0.0,0.0,0.0,0.0,0.0,0.0,0.0,0.0,0.0,0.0,0.0,0.0,0.0,0.0,0.0,0.0,0.0,0.0,0.0,0.0,0.0,0.0,0.0,0.0,0.0,0.0,0.0,0.0,0.0,0.0,0.0,0.0,0.0,0.0,0.0,0.0,0.0,0.0,0.0,0.0,0.0,0.0,0.0,0.0,0.0,-5.2205,-5.2595,-5.3792,-5.5924,-5.5655,-5.5636,-5.6001,-5.4625,-5.3384,0.0,0.0,0.0,0.0,0.0,0.0,0.0,0.0,0.0,0.0,0.0,0.0,0.0,0.0,0.0,0.0,0.0,0.0,0.0,0.0,0.0,0.0,0.0,0.0,0.0,0.0,0.0,0.0,0.0,0.0,0.0,0.0,0.0,0.0,0.0,0.0,0.0,0.0,0.0,0.0,-5.2832,-5.3689,-5.4565,0.0,0.0,0.0,0.0,0.0,0.0,-5.2062,-5.1927,0.0,0.0,0.0,0.0,0.0,0.0,0.0,0.0,0.0,0.0,0.0,0.0,0.0,0.0,0.0,0.0,0.0,0.0,0.0,0.0,0.0,0.0,0.0,0.0,0.0,0.0,0.0,0.0,0.0,0.0,0.0,0.0,0.0,0.0,0.0,0.0,0.0,0.0,0.0,0.0,0.0,0.0,0.0,0.0,0.0,0.0,0.0,0.0,0.0,0.0,0.0,0.0,0.0,0.0,0.0,-5.2049,-5.2532,-5.3588,-5.5324,-5.5504,-5.5539,-5.5497,-5.437,-5.3384,0.0,0.0,0.0,0.0,0.0,0.0,0.0,0.0,0.0,0.0,0.0,0.0,0.0,0.0,0.0,0.0,0.0,0.0,0.0,0.0,0.0,0.0,0.0,0.0,0.0,0.0,0.0,0.0,0.0,0.0,0.0,0.0,0.0,0.0,0.0,0.0,0.0,0.0,0.0,0.0,0.0,-5.438,-5.5382,-5.54,0.0,0.0,0.0,0.0,-5.3043,-5.2784,0.0,0.0,0.0,0.0,0.0,0.0,0.0,0.0,0.0,0.0,0.0,0.0,0.0,0.0,0.0,0.0,0.0,0.0,0.0,0.0,0.0,0.0,0.0,0.0,0.0,0.0,0.0,0.0,0.0,0.0,0.0,0.0,0.0,0.0,0.0,0.0,0.0,0.0,0.0,0.0,0.0,0.0,0.0,0.0,0.0,0.0,0.0,0.0,0.0,0.0,0.0,0.0,0.0,0.0,0.0,0.0,-5.1247,-5.2291,-5.3661,-5.5396,-5.5607,-5.566,-5.5566,-5.3869,-5.2806,0.0,0.0,0.0,0.0,0.0,0.0,0.0,0.0,0.0,0.0,0.0,0.0,0.0,0.0,0.0,0.0,0.0,0.0,0.0,0.0,0.0,0.0,0.0,0.0,0.0,0.0,0.0,0.0,0.0,0.0,0.0,0.0,0.0,0.0,0.0,0.0,0.0,0.0,0.0,0.0,0.0,-5.458,-5.6146,-5.5688,-5.5155,0.0,0.0,-5.3891,-5.377,-5.3116,0.0,0.0,0.0,0.0,0.0,0.0,0.0,0.0,0.0,0.0,0.0,0.0,0.0,0.0,0.0,0.0,0.0,0.0,0.0,0.0,0.0,0.0,0.0,0.0,0.0,0.0,0.0,0.0,0.0,0.0,0.0,0.0,0.0,0.0,0.0,0.0,0.0,0.0,0.0,0.0,0.0,0.0,0.0,0.0,0.0,0.0,0.0,0.0,0.0,0.0,0.0,0.0,0.0,0.0,0.0,-4.8534,-5.1182,-5.226,-5.3704,-5.5474,-5.566,-5.5692,-5.5651,-5.3809,-5.2519,0.0,0.0,0.0,0.0,0.0,0.0,0.0,0.0,0.0,0.0,0.0,0.0,0.0,0.0,0.0,0.0,0.0,0.0,0.0,0.0,0.0,0.0,0.0,0.0,0.0,0.0,0.0,0.0,0.0,0.0,0.0,0.0,0.0,0.0,0.0,0.0,0.0,0.0,0.0,0.0,0.0,0.0,-5.6207,-5.6078,0.0,0.0,0.0,-5.5604,-5.4679,0.0,0.0,0.0,0.0,0.0,0.0,0.0,0.0,0.0,0.0,0.0,0.0,0.0,0.0,0.0,0.0,0.0,0.0,0.0,0.0,0.0,0.0,0.0,0.0,0.0,0.0,0.0,0.0,0.0,0.0,0.0,0.0,0.0,0.0,0.0,0.0,0.0,0.0,0.0,0.0,0.0,0.0,0.0,0.0,0.0,0.0,0.0,0.0,0.0,0.0,0.0,0.0,0.0,0.0,0.0,0.0,0.0,-5.0963,-5.2189,-5.3709,-5.5508,-5.5662,-5.5684,-5.5665,-5.3832,0.0,0.0,0.0,0.0,0.0,0.0,0.0,0.0,0.0,0.0,0.0,0.0,0.0,0.0,0.0,0.0,0.0,0.0,0.0,0.0,0.0,0.0,0.0,0.0,0.0,0.0,0.0,-4.5594,0.0,0.0,0.0,0.0,0.0,0.0,0.0,0.0,0.0,0.0,0.0,0.0,0.0,0.0,-5.456,-5.6455,-5.665,-5.6588,0.0,0.0,-5.6971,-5.5527,-5.5618,-5.5171,0.0,0.0,0.0,0.0,0.0,0.0,0.0,0.0,0.0,0.0,0.0,0.0,0.0,0.0,0.0,0.0,0.0,0.0,0.0,0.0,0.0,0.0,0.0,0.0,0.0,0.0,0.0,0.0,0.0,0.0,0.0,0.0,0.0,0.0,0.0,0.0,0.0,0.0,0.0,0.0,0.0,0.0,0.0,0.0,0.0,0.0,0.0,0.0,0.0,0.0,0.0,0.0,0.0,0.0,-4.8196,-5.0152,-5.1908,-5.3709,-5.5519,-5.5662,-5.5684,-5.5665,-5.3886,-5.2451,0.0,0.0,0.0,0.0,0.0,0.0,0.0,0.0,0.0,0.0,0.0,0.0,0.0,0.0,0.0,0.0,0.0,0.0,0.0,0.0,0.0,0.0,0.0,0.0,0.0,0.0,0.0,0.0,0.0,0.0,0.0,0.0,0.0,0.0,0.0,0.0,0.0,0.0,0.0,0.0,0.0,-5.4714,-5.7175,-5.7457,-5.7395,0.0,-5.7362,-5.7118,-5.6245,-5.547,-5.4643,-5.3683,0.0,0.0,0.0,0.0,0.0,0.0,0.0,0.0,0.0,0.0,0.0,0.0,0.0,0.0,0.0,0.0,0.0,0.0,0.0,0.0,0.0,0.0,0.0,0.0,0.0,0.0,0.0,0.0,0.0,0.0,0.0,0.0,0.0,0.0,0.0,0.0,0.0,0.0,0.0,0.0,0.0,0.0,0.0,0.0,0.0,0.0,0.0,0.0,0.0,0.0,0.0,0.0,0.0,-4.8257,-5.013,-5.195,-5.3775,-5.5564,-5.5692,-5.5684,-5.5684,-5.3886,-5.2499,0.0,0.0,0.0,0.0,0.0,0.0,0.0,0.0,0.0,0.0,0.0,0.0,0.0,0.0,0.0,0.0,0.0,0.0,0.0,0.0,0.0,0.0,0.0,0.0,0.0,0.0,0.0,0.0,-4.5735,-4.5791,-4.5899,0.0,0.0,0.0,0.0,0.0,0.0,0.0,0.0,0.0,0.0,-5.4514,-5.6457,-5.6705,0.0,0.0,-5.7044,-5.7129,-5.6277,-5.6291,-5.5741,-5.3851,-5.3277,0.0,0.0,0.0,0.0,0.0,0.0,0.0,0.0,0.0,0.0,0.0,0.0,0.0,0.0,0.0,0.0,0.0,0.0,0.0,0.0,0.0,0.0,0.0,0.0,0.0,0.0,0.0,0.0,0.0,0.0,0.0,0.0,0.0,0.0,0.0,0.0,0.0,0.0,0.0,0.0,0.0,0.0,0.0,0.0,0.0,0.0,0.0,0.0,0.0,0.0,0.0,0.0,-4.8358,-5.0264,-5.2009,-5.382,-5.5665,-5.5684,-5.5684,-5.5645,-5.3911,-5.2575,0.0,0.0,0.0,0.0,0.0,0.0,0.0,0.0,0.0,0.0,0.0,0.0,0.0,0.0,0.0,0.0,0.0,0.0,0.0,0.0,0.0,0.0,0.0,0.0,0.0,0.0,0.0,0.0,-4.5791,-4.5854,-4.5937,0.0,0.0,0.0,0.0,0.0,0.0,0.0,0.0,0.0,0.0,-5.4725,-5.6343,-5.6551,-5.6521,-5.6485,-5.6991,-5.7071,-5.6212,-5.6341,-5.5821,-5.3768,0.0,0.0,0.0,0.0,0.0,0.0,0.0,0.0,0.0,0.0,0.0,0.0,0.0,0.0,0.0,0.0,0.0,0.0,0.0,0.0,0.0,0.0,0.0,0.0,0.0,0.0,0.0,-4.5428,0.0,0.0,-4.5066,0.0,0.0,0.0,0.0,0.0,0.0,0.0,0.0,0.0,0.0,0.0,0.0,0.0,0.0,0.0,0.0,0.0,0.0,0.0,0.0,0.0,0.0,-4.8455,-5.0396,-5.2127,-5.3865,-5.5626,-5.5695,-5.5695,-5.5656,-5.4015,-5.2705,-5.1798,0.0,0.0,0.0,0.0,0.0,0.0,0.0,0.0,0.0,0.0,0.0,0.0,0.0,0.0,0.0,0.0,0.0,0.0,0.0,0.0,0.0,0.0,0.0,0.0,0.0,0.0,-4.578,-4.5867,-4.5917,0.0,0.0,0.0,0.0,0.0,0.0,0.0,0.0,0.0,-5.3712,-5.4435,-5.5495,-5.7188,-5.7334,-5.7228,-5.731,-5.7295,-5.7,-5.6143,-5.5332,-5.4434,0.0,0.0,0.0,0.0,0.0,0.0,0.0,0.0,0.0,0.0,0.0,0.0,0.0,0.0,0.0,0.0,0.0,0.0,0.0,0.0,0.0,0.0,0.0,0.0,0.0,0.0,0.0,-4.6994,-4.6439,0.0,0.0,0.0,0.0,0.0,0.0,0.0,0.0,0.0,0.0,0.0,-4.9112,-4.9099,0.0,0.0,0.0,0.0,0.0,0.0,0.0,0.0,0.0,0.0,0.0,0.0,-4.8936,-5.1252,-5.2565,-5.4041,-5.5768,-5.5845,-5.5826,-5.5826,-5.4669,-5.3059,-5.1076,0.0,0.0,0.0,0.0,0.0,0.0,0.0,0.0,0.0,0.0,0.0,0.0,0.0,0.0,0.0,0.0,0.0,0.0,0.0,0.0,0.0,0.0,0.0,0.0,0.0,-4.5938,0.0,0.0,0.0,0.0,0.0,0.0,0.0,0.0,0.0,0.0,0.0,-5.3108,-5.4426,-5.4774,-5.5326,-5.6473,-5.6548,-5.6527,0.0,0.0,0.0,0.0,0.0,0.0,0.0,0.0,0.0,0.0,0.0,0.0,0.0,0.0,-5.3769,-5.2773,-5.2834,-5.2919,-5.2594,0.0,0.0,0.0,0.0,0.0,0.0,0.0,0.0,0.0,0.0,0.0,0.0,0.0,0.0,-4.7986,0.0,-4.7369,0.0,0.0,0.0,0.0,0.0,0.0,0.0,0.0,-4.9636,-5.0493,-5.1088,-5.1075,-5.1058,0.0,-4.9269,-4.813,0.0,0.0,0.0,0.0,0.0,0.0,0.0,0.0,-4.9227,-5.1739,-5.2801,-5.4159,-5.5798,-5.5914,-5.5914,-5.5895,-5.5037,-5.335,-5.0797,-5.0226,-4.8913,0.0,0.0,0.0,0.0,0.0,0.0,0.0,0.0,0.0,0.0,0.0,0.0,0.0,0.0,0.0,0.0,0.0,0.0,0.0,0.0,0.0,0.0,0.0,-4.6041,0.0,0.0,0.0,0.0,0.0,0.0,0.0,0.0,0.0,-5.2504,-5.3111,-5.3861,-5.4858,-5.5204,-5.5564,-5.6129,0.0,0.0,0.0,0.0,0.0,0.0,0.0,-5.4951,-5.4391,-5.4204,-5.4032,-5.3753,-5.362,-5.3973,-5.5208,0.0,0.0,-5.4217,-5.4275,-5.4358,-5.4051,-5.4249,-5.4421,-5.4319,-5.4709,-5.5199,0.0,0.0,0.0,0.0,0.0,0.0,0.0,0.0,-4.8592,-4.8602,0.0,-4.8362,0.0,0.0,0.0,0.0,0.0,-4.7879,0.0,0.0,-5.0519,-5.1434,-5.2973,-5.2966,-5.2943,-5.2836,-5.1189,-5.0363,-5.0218,-4.7658,0.0,0.0,0.0,0.0,0.0,0.0,-4.9365,-5.1895,-5.2897,-5.4197,-5.5847,-5.5905,-5.5905,-5.5895,-5.5131,-5.3563,-5.1206,-5.1053,-5.025,-4.8556,-4.6939,0.0,0.0,0.0,0.0,0.0,0.0,0.0,0.0,0.0,0.0,0.0,0.0,0.0,0.0,0.0,0.0,0.0,0.0,0.0,0.0,-4.6143,0.0,0.0,0.0,0.0,0.0,0.0,0.0,0.0,0.0,0.0,-5.2635,-5.407,-5.5088,-5.5058,0.0,0.0,0.0,0.0,-5.6054,-5.5993,-5.5885,-5.5726,-5.5607,-5.479,-5.4146,-5.4142,0.0,0.0,-5.4862,-5.4966,-5.5169,-5.5854,-5.6009,-5.6078,-5.6205,-5.6725,-5.6987,-5.6326,-5.6683,-5.7275,-5.7254,-5.7053,-5.7156,-5.1818,0.0,0.0,0.0,0.0,-4.9768,-5.0291,-5.0335,-5.1574,-5.137,-5.0183,-5.0094,0.0,0.0,0.0,0.0,0.0,0.0,-5.0336,-5.1463,-5.2683,-5.355,-5.4073,-5.4062,-5.4021,-5.3931,-5.2834,-5.2264,-5.2123,-5.0278,-4.8694,-4.7458,0.0,0.0,0.0,0.0,-5.0978,-5.2885,-5.3894,-5.4895,-5.5949,-5.5968,-5.6005,-5.604,-5.5205,-5.4452,-5.3776,-5.2615,-5.1522,-5.0439,-4.9363,0.0,0.0,0.0,0.0,0.0,0.0,0.0,0.0,0.0,0.0,0.0,0.0,0.0,0.0,0.0,0.0,0.0,0.0,0.0,-4.7042,-4.7106,-4.7353,0.0,0.0,0.0,0.0,0.0,0.0,0.0,0.0,0.0,-5.428,-5.4777,-5.5286,0.0,0.0,-5.6204,-5.6206,-5.6098,-5.5984,-5.5884,-5.5688,0.0,-5.5408,-5.5052,-5.4781,-5.4751,-5.4662,-5.4621,-5.4776,-5.478,-5.5016,-5.5734,-5.6342,-5.6853,-5.7294,-5.7261,-5.71,-5.6859,-5.6989,-5.7173,-5.7144,-5.7507,-5.7889,-5.3745,-5.258,-5.1152,-5.0539,-5.0597,-5.1632,-5.2084,-5.214,-5.316,-5.2976,-5.1947,-5.1882,-5.128,-5.0291,-5.0183,0.0,0.0,0.0,-5.2043,-5.292,-5.3949,-5.4643,-5.4953,-5.4972,-5.4962,-5.4872,-5.4064,-5.3631,-5.3563,-5.2299,-5.1125,-5.0047,0.0,0.0,-4.9921,-5.0533,-5.1859,-5.3836,-5.4478,-5.52,-5.5965,-5.6003,-5.6029,-5.6098,-5.5606,-5.5239,-5.4919,-5.3677,-5.2611,-5.1784,-5.0596,-4.9065,0.0,0.0,0.0,0.0,0.0,0.0,0.0,0.0,0.0,0.0,0.0,-4.1896,-4.3617,0.0,0.0,0.0,-4.6362,-4.7021,-4.7922,-4.8018,0.0,0.0,0.0,0.0,0.0,0.0,0.0,-5.2267,-5.3942,-5.5047,-5.5021,-5.5319,-5.5709,-5.6148,-5.6213,-5.6225,-5.6206,0.0,-5.5995,-5.5827,-5.561,-5.542,-5.5262,-5.5121,-5.5,-5.4912,-5.4776,-5.4689,-5.4622,-5.4608,-5.4842,-5.5546,-5.6094,-5.6625,-5.7267,-5.7359,-5.7504,-5.7787,-5.7934,-5.7968,-5.7915,-5.8274,-5.8558,-5.5268,-5.5127,-5.4263,-5.3805,-5.3702,-5.3702,-5.3721,-5.3779,-5.3772,-5.371,-5.3604,-5.3591,-5.3486,-5.3281,-5.3234,0.0,-5.3203,-5.326,-5.3722,-5.4511,-5.4568,-5.4972,-5.5684,-5.5684,-5.5695,-5.5695,-5.4963,-5.461,-5.4564,-5.3793,-5.3456,-5.3415,-5.0289,-4.9478,-5.0945,-5.1134,-5.2357,-5.4645,-5.4834,-5.5258,-5.5965,-5.5935,-5.5932,-5.5982,-5.5981,-5.5631,-5.4927,-5.4188,-5.3436,-5.262,-5.1005,-4.9712,-4.8833,0.0,0.0,0.0,0.0,0.0,0.0,0.0,0.0,0.0,0.0,0.0,0.0,0.0,0.0,-4.6115,-4.7057,0.0,-4.882,-4.8986,0.0,0.0,0.0,-4.9843,-5.1422,-5.1597,-5.2225,-5.3818,0.0,0.0,-5.51,-5.5738,-5.6194,-5.6185,-5.6246,-5.6278,-5.6206,-5.6133,-5.6003,-5.5827,-5.5593,-5.5358,-5.5229,-5.5009,-5.4875,-5.4799,-5.4622,-5.4505,-5.4489,-5.4458,-5.4728,-5.5311,-5.5503,-5.5713,-5.637,-5.708,-5.7958,-5.869,-5.9047,-5.9234,-5.9159,-5.9122,-5.9083,-5.6117,-5.6071,-5.5796,-5.49,-5.3747,-5.4299,-5.4506,-5.4525,-5.5144,-5.5053,-5.4422,-5.4422,-5.4002,-5.3282,-5.3273,-5.3262,-5.3222,-5.3895,-5.4299,-5.453,-5.5126,-5.553,-5.5684,-5.5684,-5.5724,-5.5766,-5.5584,-5.5508,-5.5538,-5.4747,-5.4369,-5.432,-5.2964,-5.2451,-5.2794,-5.3514,-5.4158,-5.4757,-5.5384,-5.5818,-5.5965,-5.5412,-5.5117,-5.5168,-5.456,-5.418,-5.4086,-5.3338,-5.2838,-5.2654,-5.1642,-5.0659,-4.9786,-4.87,0.0,0.0,0.0,0.0,0.0,0.0,0.0,0.0,0.0,-4.2879,-4.4541,0.0,-4.5409,0.0,-4.793,-4.886,-4.9713,-5.0404,0.0,0.0,-5.2363,-5.2906,-5.3268,-5.3829,-5.4363,-5.4767,-5.5454,-5.5915,-5.5918,-5.609,-5.6191,-5.613,-5.618,-5.6187,-5.6133,-5.602,-5.5913,-5.5807,-5.5573,-5.5358,-5.5216,-5.4941,-5.4736,-5.4739,-5.4541,-5.4424,-5.4424,-5.4426,-5.4467,-5.4605,-5.5112,-5.5471,-5.5529,-5.6257,-5.6855,-5.7134,-5.8107,-5.9063,-5.9063,-5.9043,-5.9004,-5.6392,-5.6349,-5.6278,-5.5682,-5.4851,-5.5211,-5.5346,-5.536,-5.5808,-5.5743,-5.5272,-5.5293,-5.4977,-5.4477,-5.4429,-5.4389,-5.4357,-5.4818,-5.503,-5.5049,-5.5523,-5.5726,-5.5745,-5.5766,-5.5816,-5.5836,-5.5836,-5.5885,-5.5914,-5.5479,-5.5293,-5.5272,-5.4834,-5.4602,-5.4585,-5.4708,-5.4967,-5.5335,-5.5432,-5.5277,-5.489,-5.4442,-5.4258,-5.4321,-5.3903,-5.3733,-5.3844,-5.3065,-5.2674,-5.2678,-5.1876,-5.1015,-5.0154,-4.9603,-4.8542,0.0,0.0,0.0,0.0,0.0,0.0,0.0,0.0,0.0,0.0,0.0,-4.7141,-4.849,-4.9421,-5.0322,-5.1167,-5.203,-5.2754,-5.3241,-5.3708,-5.4128,-5.4454,-5.4885,-5.5266,-5.5657,-5.6025,-5.6232,-5.619,-5.6172,-5.6141,-5.6098,-5.6098,-5.6125,-5.609,-5.5975,-5.5875,-5.5757,-5.5551,-5.5333,-5.5149,-5.4886,-5.4689,-5.4673,-5.4543,-5.4409,-5.4409,-5.4375,-5.4342,-5.4345,-5.4593,-5.4801,-5.4727,-5.5304,-5.5863,-5.5973,-5.6868,-5.786,-5.8368,-5.8422,-5.8419,-5.6373,-5.6309,-5.6226,-5.619,-5.6191,-5.6125,-5.6082,-5.6073,-5.604,-5.5995,-5.5995,-5.5989,-5.5962,-5.5885,-5.5826,-5.5766,-5.5684,-5.5684,-5.5695,-5.5724,-5.5785,-5.5797,-5.5826,-5.5875,-5.5905,-5.5905,-5.5914,-5.5933,-5.6008,-5.6008,-5.6007,-5.6003,-5.6003,-5.6003,-5.5973,-5.5316,-5.5258,-5.5838,-5.5161,-5.4387,-5.3525,-5.3402,-5.3386,-5.343,-5.3464,-5.3506,-5.3533,-5.2905,-5.252,-5.25,-5.181,-5.1066,-5.0313,-5.0161,-4.9423,0.0,-4.7031,0.0,0.0,0.0,0.0,0.0,0.0,0.0,0.0,-4.8512,-4.9432,-5.0199,-5.1167,-5.203,-5.2792,-5.3652,-5.416,-5.4173,-5.4249,-5.4608,-5.5265,-5.5376,-5.563,-5.6324,-5.6321,-5.6265,-5.6232,-5.6153,-5.6106,-5.6098,-5.6046,-5.6029,-5.6065,-5.5967,-5.5856,-5.5716,-5.5527,-5.5281,-5.5071,-5.4841,-5.4689,-5.4673,-5.4526,-5.4409,-5.4392,-5.4323,-5.429,-5.4236,-5.4166,-5.4056,-5.4,-5.4465,-5.4834,-5.4871,-5.5466,-5.6325,-5.7282,-5.7504,-5.7706,-5.637,-5.6317,-5.6223,-5.6184,-5.6125,-5.6037,-5.6023,-5.6026,-5.5989,-5.6008,-5.6008,-5.5999,-5.5953,-5.5826,-5.5816,-5.5756,-5.5684,-5.5684,-5.5735,-5.5796,-5.5787,-5.5817,-5.5885,-5.5895,-5.5924,-5.5981,-5.5981,-5.5989,-5.5995,-5.5995,-5.5995,-5.6003,-5.6003,-5.6003,-5.5984,0.0,0.0,0.0,-5.4871,-5.4365,-5.3526,-5.2856,-5.2547,-5.2602,-5.2011,0.0,-5.1795,-5.1681,-5.1644,-5.1623,-5.1478,0.0,0.0,0.0,0.0,0.0,0.0,0.0,0.0,0.0,0.0,0.0,-4.8956,-4.9122,-4.8618,-4.9985,-5.098,-5.1187,-5.2576,-5.3573,-5.375,-5.4531,-5.5038,-5.5071,-5.5631,-5.6103,-5.6234,-5.6203,-5.6245,-5.6369,-5.6331,-5.6303,-5.6285,-5.6216,-5.6157,-5.6117,-5.6037,-5.5993,-5.602,-5.5941,-5.5895,-5.5785,-5.548,-5.5216,-5.5094,-5.4871,-5.4689,-5.4673,-5.4526,-5.4392,-5.4324,-5.4307,-5.4219,-5.4111,-5.4019,-5.3963,-5.387,-5.3962,-5.4091,-5.4035,-5.4203,-5.4742,-5.625,-5.6565,-5.66,-5.6347,0.0,-5.6221,-5.6157,0.0,-5.6029,-5.6005,-5.5999,-5.5999,-5.5981,-5.5953,-5.5962,-5.5895,-5.5787,-5.5787,-5.5796,-5.5745,-5.5745,-5.5776,-5.5846,-5.5876,-5.5914,-5.5933,-5.5942,-5.5969,-5.6007,-5.5987,-5.6005,-5.6003,-5.6003,-5.6003,-5.6003,-5.6003,-5.6003,-5.6012,-5.6029,-5.5642,-5.4813,-5.4384,-5.3751,-5.2914,-5.2102,-5.1729,-5.18,-5.1444,0.0,0.0,0.0,0.0,0.0,0.0,0.0,0.0,-5.0978,0.0,-5.0119,-4.9687,-4.9278,-4.8891,-4.922,-4.9631,-5.0071,-5.1284,-5.1654,-5.0787,-5.1923,-5.2691,-5.2714,-5.3886,-5.4628,-5.4668,-5.543,-5.5937,-5.5972,-5.6318,-5.654,-5.6511,-5.6459,-5.6426,-5.6392,-5.6363,-5.6333,-5.6303,-5.6239,-5.6194,-5.6149,-5.609,-5.6029,-5.6003,-5.5942,-5.5865,-5.5662,-5.5383,-5.513,-5.508,-5.4867,-5.4689,-5.4673,-5.4543,-5.4392,-5.4307,-5.4254,-5.4164,-5.4019,-5.3944,-5.387,-5.3832,-5.3813,-5.3813,-5.3813,-5.3813,-5.4017,-5.4927,-5.5373,-5.58,-5.6303,-5.6204,-5.6187,-5.6141,-5.6082,-5.6031,-5.5979,-5.5952,0.0,0.0,0.0,-5.5885,-5.5846,-5.5776,-5.5776,-5.5787,-5.5787,-5.5787,-5.5836,-5.5914,-5.5971,-5.5999,-5.5989,-5.6005,-5.6003,-5.6003,-5.6003,-5.6003,-5.6003,-5.6003,-5.6003,-5.6003,-5.6003,-5.5993,-5.602,-5.6062,-5.5752,-5.5051,-5.4192,-5.3356,-5.2577,-5.1891,-5.1581,-5.1663,-5.1713,-5.1787,-5.1865,-5.1856,-5.1863,-5.1868,-5.1847,-5.1847,-5.1847,-5.1868,-5.1555,-5.0852,-5.0792,-5.0499,-4.9878,-5.0421,-5.1086,-5.1815,-5.332,-5.3867,-5.2987,-5.3729,-5.4238,-5.4238,-5.5019,-5.5527,-5.5527,-5.6152,-5.6621,-5.6619,-5.6615,-5.6568,-5.6511,-5.6484,-5.6468,-5.6418,-5.6407,-5.6381,-5.6314,-5.6246,-5.6223,-5.6187,-5.6141,-5.6073,-5.5986,-5.5914,-5.5756,-5.5551,-5.5275,-5.5088,-5.5066,-5.4886,-5.4705,-5.4689,-5.4526,-5.4356,-5.4271,-5.4163,-5.4073,-5.3945,-5.387,-5.3813,-5.3813,-5.3813,-5.3813,-5.3813,-5.3813,-5.3813,-5.3868,-5.4333,-5.4983,-5.6284,-5.6187,-5.6141,-5.6082,-5.5993,-5.6007,-5.5933,-5.5836,-5.5914,-5.5885,-5.5826,-5.5826,-5.5776,-5.5705,-5.5724,-5.5745,-5.5787,-5.5787,-5.5866,-5.5981,-5.599,-5.5998,-5.5995,-5.6003,-5.6003,-5.6003,-5.6003,-5.6003,-5.6003,-5.6003,-5.6003,-5.6003,-5.6003,-5.6029,-5.6082,-5.609,-5.6075,-5.599,-5.5145,-5.4306,-5.3527,-5.3398,-5.3366,-5.3424,-5.3471,-5.356,-5.3631,-5.3602,-5.3646,-5.3631,-5.3627,-5.3626,-5.3626,-5.3609,-5.3592,-5.3455,-5.3437,-5.3398,-5.3281,-5.3398,-5.3496,-5.3672,-5.4551,-5.4746,-5.3945,-5.4609,-5.5117,-5.5156,-5.5879,-5.6406,-5.6426,-5.6523,-5.6621,-5.6619,-5.6615,-5.6567,-5.6511,-5.6484,-5.6494,-5.6473,-5.6412,-5.6391,-5.6375,-5.6285,-5.6211,-5.6206,-5.6122,-5.6057,-5.5933,-5.5816,-5.5682,-5.5516,-5.5262,-5.5102,-5.5066,-5.4886,-5.472,-5.4689,-5.4508,-5.4339,-5.4163,-5.4128,-5.4055,-5.3851,-5.3813,-5.3813,-5.3813,-5.3813,-5.3813,-5.3813,-5.3813,-5.3813,-5.3813,-5.3961,-5.4073,-5.6251,-5.6199,-5.6114,-5.6057,-5.6007,-5.5933,-5.5856,-5.5787,-5.5806,-5.5766,-5.5726,-5.5726,-5.5735,-5.5695,-5.5735,-5.5806,-5.5865,-5.5895,-5.5952,-5.5996,-5.5996,-5.6005,-5.6003,-5.6003,-5.6003,-5.6003,-5.6003,-5.6003,-5.6003,-5.6003,-5.6003,-5.6012,-5.6029,-5.6054,-5.6098,-5.6145,-5.6175,-5.619,-5.5336,-5.4737,-5.4401,-5.3971,-5.3803,-5.3876,-5.3894,-5.3935,-5.3991,-5.3994,-5.398,-5.3984,-5.3983,-5.3983,-5.3983,-5.3984,-5.3984,-5.3984,-5.3984,-5.3984,-5.3984,-5.4453,-5.4687,-5.4726,-5.5508,-5.584,-5.5469,-5.5781,-5.5996,-5.6015,-5.6387,-5.6621,-5.6621,-5.6621,-5.6621,-5.6621,-5.6617,-5.6591,-5.6543,-5.6519,-5.6491,-5.6491,-5.6429,-5.6403,-5.6391,-5.6315,-5.6226,-5.6194,-5.6106,-5.5995,-5.5895,-5.5816,-5.5703,-5.5516,-5.5281,-5.5102,-5.508,-5.4867,-5.472,-5.4689,-5.4543,-5.4339,-5.4163,-5.4091,-5.4037,-5.3851,-5.3813,-5.3813,-5.3813,-5.3813,-5.3813,-5.3813,-5.3813,-5.3813,-5.3813,-5.3813,-5.3813,-5.6238,-5.6199,-5.6109,-5.6033,-5.5962,-5.5846,-5.5787,-5.5766,-5.5724,-5.5684,-5.5684,-5.5684,-5.5695,-5.5735,-5.5796,-5.5846,-5.5914,-5.5961,-5.6007,-5.6003,-5.6003,-5.6003,-5.6003,-5.6003,-5.6003,-5.6003,-5.6003,-5.6003,-5.6003,-5.6003,-5.6003,-5.6012,-5.6073,-5.6098,-5.6114,-5.6163,-5.6206,-5.6187,-5.5559,-5.5243,-5.5274,-5.4702,-5.4416,-5.4484,-5.4479,-5.4533,-5.458,-5.4584,-5.4588,-5.459,-5.457,-5.457,-5.459,-5.459,-5.459,-5.459,-5.459,-5.459,-5.4609,-5.5195,-5.5586,-5.5605,-5.6211,-5.6601,-5.6621,-5.6621,-5.6621,-5.6621,-5.6601,-5.6621,-5.6621,-5.6621,-5.6621,-5.6621,-5.6618,-5.6612,-5.661,-5.655,-5.6481,-5.6485,-5.6434,-5.6387,-5.6382,-5.6345,-5.6285,-5.6202,-5.609,-5.5968,-5.5895,-5.5846,-5.5724,-5.5527,-5.5294,-5.5135,-5.5094,-5.4867,-5.472,-5.4689,-5.4526,-5.4339,-5.4181,-5.4091,-5.4018,-5.3851,-5.3813,-5.3813,-5.3813,-5.3813,-5.3813,-5.3813,-5.3813,-5.3813,-5.3813,-5.3813,-5.3813,-5.6187,-5.6184,-5.607,-5.5933,-5.5836,-5.5816,-5.5766,-5.5714,-5.5684,-5.5684,-5.5695,-5.5684,-5.5735,-5.5787,-5.5797,-5.5885,-5.5981,-5.599,-5.6007,-5.6003,-5.6003,-5.6003,-5.6003,-5.6003,-5.6003,-5.6003,-5.6003,-5.6003,-5.6003,-5.6003,-5.6003,-5.5993,-5.6073,-5.6133,-5.6191,-5.6197,-5.6233,-5.6296,-5.6199,-5.616,-5.6185,-5.6169,-5.6199,-5.6258,-5.6224,-5.6291,-5.6241,-5.6365,-5.6347,-5.6367,-5.6308,-5.6328,-5.6328,-5.6328,-5.6348,-5.6328,-5.6328,-5.6367,-5.6348,-5.6445,-5.6445,-5.6484,-5.6523,-5.6621,-5.6621,-5.6621,-5.6621,-5.6621,-5.6621,-5.6621,-5.6621,-5.6621,-5.6621,-5.6621,-5.6618,-5.6612,-5.6591,-5.655,-5.6484,-5.6485,-5.6453,-5.6392,-5.6382,-5.6339,-5.6278,-5.6194,-5.609,-5.5996,-5.5895,-5.5846,-5.5735,-5.5539,-5.5314,-5.517,-5.5094,-5.4886,-5.472,-5.4692,-5.4526,-5.4339,-5.4181,-5.4091,-5.4036,-5.387,-5.3813,-5.3813,-5.3813,-5.3813,-5.3813,-5.3813,-5.3813,-5.3813,-5.3813,-5.3813,-5.3813,-5.6164,-5.6114,-5.6044,-5.5924,-5.5797,-5.5756,-5.5724,-5.5684,-5.5684,-5.5724,-5.5756,-5.5756,-5.5776,-5.5816,-5.5895,-5.5962,-5.599,-5.6007,-5.6005,-5.6003,-5.6003,-5.6003,-5.6003,-5.6003,-5.6003,-5.6003,-5.6003,-5.6003,-5.6003,-5.6003,-5.6001,-5.6073,-5.6114,-5.6153,-5.6216,-5.6232,-5.6278,-5.6302,-5.6345,-5.6347,-5.6364,-5.6372,-5.643,-5.6488,-5.6482,-5.6541,-5.6592,-5.6618,-5.6621,-5.6621,-5.6621,-5.6621,-5.6621,-5.6621,-5.6621,-5.6621,-5.6621,-5.6621,-5.6621,-5.6621,-5.6621,-5.6621,-5.6621,-5.6621,-5.6621,-5.6621,-5.6621,-5.6621,-5.6621,-5.6621,-5.6621,-5.6621,-5.6621,-5.6621,-5.6618,-5.6612,-5.6611,-5.6575,-5.655,-5.6508,-5.6471,-5.6437,-5.6397,-5.631,-5.6238,-5.618,-5.609,-5.5996,-5.5914,-5.5885,-5.5745,-5.5539,-5.5371,-5.5229,-5.5107,-5.4886,-5.4736,-5.4676,-5.4543,-5.434,-5.4181,-5.4109,-5.4055,-5.3851,-5.3813,-5.3813,-5.3813,-5.3813,-5.3813,-5.3813,-5.3813,-5.3813,-5.3813,-5.3813,-5.3813,-5.6176,-5.6101,-5.5998,-5.5895,-5.5766,-5.5705,-5.5714,-5.5735,-5.5724,-5.5766,-5.5826,-5.5846,-5.5856,-5.5866,-5.5962,-5.5999,-5.5998,-5.5995,-5.6003,-5.6003,-5.6003,-5.6003,-5.6003,-5.6003,-5.6003,-5.6003,-5.6003,-5.5993,-5.6029,-5.6029,-5.6073,-5.6114,-5.618,-5.6209,-5.6218,-5.6265,-5.6303,-5.6339,-5.6372,-5.6398,-5.6418,-5.643,-5.6455,-5.6492,-5.6528,-5.6564,-5.6614,-5.6618,-5.662,-5.6621,-5.6621,-5.6621,-5.6621,-5.6621,-5.6621,-5.6621,-5.6621,-5.6621,-5.6621,-5.6621,-5.6621,-5.6621,-5.6621,-5.6621,-5.6621,-5.6621,-5.6621,-5.6621,-5.6621,-5.6621,-5.6621,-5.6621,-5.6621,-5.6621,-5.6618,-5.6612,-5.6611,-5.6618,-5.6575,-5.6511,-5.6482,-5.6476,-5.6402,-5.6285,-5.6226,-5.6191,-5.6082,-5.5977,-5.5904,-5.5885,-5.5806,-5.5539,-5.5395,-5.5268,-5.5121,-5.4886,-5.472,-5.466,-5.4545,-5.434,-5.4163,-5.4128,-5.4055,-5.387,-5.3832,-5.3813,-5.3813,-5.3813,-5.3813,-5.3813,-5.3813,-5.3813,-5.3813,-5.3813,-5.3813,-5.6176,-5.6073,-5.5942,-5.5845,-5.5714,-5.5714,-5.5745,-5.5806,-5.5787,-5.5836,-5.5905,-5.5962,-5.599,-5.5971,-5.5999,-5.5998,-5.6003,-5.6003,-5.6003,-5.6003,-5.6003,-5.6003,-5.6003,-5.6003,-5.6003,-5.6012,-5.6012,-5.6037,-5.609,-5.609,-5.6133,-5.618,-5.6197,-5.6218,-5.6213,-5.6272,-5.6319,-5.6386,-5.6398,-5.6422,-5.6498,-5.6475,-5.6492,-5.6508,-5.6564,-5.6594,-5.6618,-5.6621,-5.6621,-5.6621,-5.6621,-5.6621,-5.6621,-5.6621,-5.6621,-5.6621,-5.6621,-5.6621,-5.6621,-5.6621,-5.6621,-5.6621,-5.6621,-5.6621,-5.6621,-5.6621,-5.6621,-5.6621,-5.6621,-5.6621,-5.6621,-5.6621,-5.6621,-5.6621,-5.6618,-5.6612,-5.6611,-5.6596,-5.6555,-5.6511,-5.6498,-5.6461,-5.6397,-5.6278,-5.6214,-5.6184,-5.6082,-5.5977,-5.5924,-5.5914,-5.5785,-5.5573,-5.5413,-5.5333,-5.5102,-5.4882,-5.4736,-5.4657,-5.4526,-5.4357,-5.4217,-5.4073,-5.3982,-5.3888,-5.3832,-5.3813,-5.3813,-5.3813,-5.3813,-5.3813,-5.3813,-5.3813,-5.3813,-5.3813,-5.3813,-5.6145,-5.6025,-5.5933,-5.5856,-5.5826,-5.5776,-5.5787,-5.5875,-5.5875,-5.5905,-5.5962,-5.599,-5.5989,-5.5996,-5.6005,-5.6014,-5.6003,-5.6003,-5.6003,-5.6003,-5.6003,-5.6003,-5.6003,-5.6003,-5.6003,-5.5993,-5.6037,-5.6098,-5.6168,-5.6157,-5.618,-5.6197,-5.6211,-5.6219,-5.6265,-5.629,-5.6331,-5.6398,-5.6392,-5.6426,-5.6482,-5.65,-5.6521,-5.6564,-5.6591,-5.6614,-5.6619,-5.6621,-5.6621,-5.6621,-5.6621,-5.6621,-5.6621,-5.6621,-5.6621,-5.6621,-5.6621,-5.6621,-5.6621,-5.6621,-5.6621,-5.6621,-5.6621,-5.6621,-5.6621,-5.6621,-5.6621,-5.6621,-5.6621,-5.6621,-5.6621,-5.6621,-5.6621,-5.662,-5.6616,-5.661,-5.6605,-5.6569,-5.6525,-5.6501,-5.6465,-5.6403,-5.6345,-5.6265,-5.6226,-5.6191,-5.609,-5.5977,-5.5924,-5.5914,-5.5806,-5.5562,-5.5444,-5.5333,-5.5154,-5.4916,-5.4736,-5.4657,-5.4543,-5.4339,-5.4163,-5.4109,-5.4037,-5.387,-5.3813,-5.3813,-5.3813,-5.3813,-5.3813,-5.3813,-5.3813,-5.3813,-5.3813,-5.3813,-5.3813,-5.6908,-5.681,-5.6753,-5.6725,-5.6676,-5.6377,-5.629,-5.629,-5.604,-5.5952,-5.5998,-5.6016,-5.6042,-5.6029,-5.6065,-5.6073,-5.6046,-5.602,-5.6003,-5.6012,-5.602,-5.6029,-5.6037,-5.6065,-5.6073,-5.6054,-5.6125,-5.6157,-5.6194,-5.6221,-5.6216,-5.6232,-5.6226,-5.6259,-5.6302,-5.6306,-5.6338,-5.6402,-5.6433,-5.6464,-5.6491,-5.6531,-5.6554,-5.6591,-5.6614,-5.6617,-5.662,-5.6621,-5.6621,-5.6621,-5.6621,-5.6621,-5.6621,-5.6621,-5.6621,-5.6621,-5.6621,-5.6621,-5.6621,-5.6621,-5.6621,-5.6621,-5.6621,-5.6621,-5.6621,-5.6621,-5.6621,-5.6621,-5.6621,-5.6621,-5.6621,-5.6621,-5.662,-5.6618,-5.6613,-5.6607,-5.6602,-5.6563,-5.6497,-5.6464,-5.6426,-5.6367,-5.6302,-5.6232,-5.6214,-5.6218,-5.6082,-5.5996,-5.5924,-5.5904,-5.5806,-5.5562,-5.5468,-5.5345,-5.5162,-5.4956,-5.4799,-5.4705,-5.4543,-5.432,-5.418,-5.4146,-5.4036,-5.3888,-5.3813,-5.3813,-5.3813,-5.3813,-5.3813,-5.3813,-5.3813,-5.3813,-5.3813,-5.3813,-5.3813,-5.8508,-5.8365,-5.8481,-5.8298,-5.8104,-5.7496,-5.7217,-5.7109,-5.6472,-5.6306,-5.6369,-5.6248,-5.638,-5.6241,-5.6362,-5.625,-5.6273,-5.6112,-5.602,-5.6029,-5.6062,-5.6117,-5.6117,-5.6149,-5.6191,-5.6191,-5.618,-5.6202,-5.6218,-5.6225,-5.6246,-5.6291,-5.6284,-5.6302,-5.6308,-5.6363,-5.6402,-5.6409,-5.6464,-5.6488,-5.6509,-5.6569,-5.6603,-5.6612,-5.6617,-5.662,-5.6621,-5.6621,-5.6621,-5.6621,-5.6621,-5.6621,-5.6621,-5.6621,-5.6621,-5.6621,-5.6621,-5.6621,-5.6621,-5.6621,-5.6621,-5.6621,-5.6621,-5.6621,-5.6621,-5.6621,-5.6621,-5.6621,-5.662,-5.6619,-5.6618,-5.6615,-5.6614,-5.6618,-5.661,-5.6602,-5.6577,-5.6541,-5.6469,-5.6437,-5.6398,-5.6381,-5.6309,-5.6251,-5.6199,-5.6157,-5.6082,-5.5996,-5.5924,-5.5914,-5.5766,-5.5573,-5.548,-5.5383,-5.5216,-5.5042,-5.4886,-5.4736,-5.4541,-5.4373,-5.4217,-5.4146,-5.4055,-5.3907,-5.3794,-5.3794,-5.3813,-5.3813,-5.3813,-5.3813,-5.3813,-5.3813,-5.3813,-5.3813,-5.3813,-5.865,-5.8566,-5.851,-5.8529,-5.85,-5.822,-5.8152,-5.8205,-5.7934,-5.7863,-5.7865,-5.7881,-5.7881,-5.7734,-5.7323,-5.7021,-5.6974,-5.6447,-5.6141,-5.616,-5.6176,-5.6157,-5.6184,-5.6191,-5.6214,-5.6216,-5.6223,-5.6245,-5.6278,-5.6285,-5.6278,-5.629,-5.6339,-5.6386,-5.6368,-5.6402,-5.6409,-5.6469,-5.6485,-5.6484,-5.6489,-5.6571,-5.6605,-5.6612,-5.6617,-5.662,-5.6621,-5.6621,-5.6621,-5.6621,-5.6621,-5.6621,-5.6621,-5.6621,-5.6621,-5.6621,-5.6621,-5.6621,-5.6621,-5.6621,-5.662,-5.662,-5.6618,-5.6617,-5.6617,-5.6617,-5.6617,-5.6617,-5.6615,-5.6614,-5.6613,-5.6609,-5.6606,-5.6609,-5.6605,-5.6575,-5.6538,-5.6488,-5.6437,-5.6407,-5.6361,-5.6315,-5.6265,-5.6209,-5.6191,-5.6141,-5.6065,-5.5996,-5.5924,-5.5914,-5.5796,-5.5562,-5.5504,-5.542,-5.5203,-5.5042,-5.4931,-5.4767,-5.4557,-5.4409,-5.4271,-5.4128,-5.4037,-5.3945,-5.3832,-5.3794,-5.3813,-5.3813,-5.3813,-5.3813,-5.3813,-5.3813,-5.3813,-5.3813,-5.3813,-5.9605,-5.9578,-5.9532,-5.9513,-5.952,-5.9241,-5.9093,-5.9124,-5.8842,-5.8695,-5.868,-5.8715,-5.8723,-5.8634,-5.8137,-5.7931,-5.7853,-5.7368,-5.7,-5.667,-5.6287,-5.6221,-5.6202,-5.6236,-5.6225,-5.6233,-5.6239,-5.6278,-5.6329,-5.6327,-5.6339,-5.6345,-5.6372,-5.6398,-5.6407,-5.6429,-5.6469,-5.6494,-5.6497,-5.6511,-5.6523,-5.6579,-5.6609,-5.6615,-5.6619,-5.662,-5.6621,-5.6621,-5.6621,-5.6621,-5.6621,-5.6621,-5.6621,-5.6621,-5.6621,-5.6621,-5.6621,-5.6621,-5.662,-5.6618,-5.6617,-5.6616,-5.6614,-5.6612,-5.6612,-5.6612,-5.6612,-5.6612,-5.661,-5.6609,-5.6607,-5.6559,-5.6571,-5.6552,-5.6569,-5.6541,-5.6491,-5.6437,-5.6392,-5.6382,-5.6345,-5.6278,-5.6219,-5.6209,-5.6184,-5.6125,-5.6037,-5.5977,-5.5914,-5.5914,-5.5754,-5.5585,-5.5516,-5.5371,-5.5149,-5.5023,-5.4941,-5.478,-5.4608,-5.4443,-5.4307,-5.4163,-5.4055,-5.3926,-5.3832,-5.3813,-5.3813,-5.3813,-5.3813,-5.3813,-5.3813,-5.3813,-5.3813,-5.3813,-5.3868,-6.1171,-6.121,-6.1171,-6.1074,-6.0986,-6.0342,-6.0057,-5.9956,-5.9316,-5.9033,-5.9002,-5.9175,-5.9112,-5.9034,-5.8985,-5.8881,-5.8843,-5.8648,-5.8221,-5.7593,-5.6951,-5.653,-5.6284,-5.6285,-5.6297,-5.6296,-5.6302,-5.6319,-5.6381,-5.6372,-5.6391,-5.6402,-5.6407,-5.6411,-5.6414,-5.6449,-5.6475,-5.65,-5.6489,-5.6543,-5.658,-5.6609,-5.6614,-5.6618,-5.6621,-5.6621,-5.6621,-5.6621,-5.6621,-5.6621,-5.6621,-5.6621,-5.6621,-5.6621,-5.6621,-5.6619,-5.6619,-5.6617,-5.6613,-5.6612,-5.6611,-5.6611,-5.661,-5.6611,-5.6588,-5.6587,-5.6587,-5.6585,-5.658,-5.6596,-5.6593,-5.6543,-5.6509,-5.6503,-5.6503,-5.6511,-5.65,-5.6433,-5.6398,-5.6372,-5.6339,-5.6272,-5.6218,-5.6214,-5.6157,-5.609,-5.6029,-5.5979,-5.5914,-5.5865,-5.5765,-5.5649,-5.5535,-5.5358,-5.5162,-5.508,-5.4985,-5.4764,-5.4625,-5.4493,-5.4359,-5.4199,-5.4036,-5.3907,-5.3813,-5.3813,-5.3813,-5.3813,-5.3813,-5.3813,-5.3813,-5.3813,-5.385,-5.3924,-5.424,-6.1267,-6.1281,-6.1281,-6.1281,-6.1261,-6.1026,-6.0969,-6.0995,-6.0781,-6.0584,-6.0722,-6.078,-6.0683,-6.0708,-6.0073,-5.9826,-5.9709,-5.9204,-5.8815,-5.8562,-5.8367,-5.7422,-5.6566,-5.6358,-5.637,-5.6375,-5.6381,-5.64,-5.6391,-5.6412,-5.6407,-5.6392,-5.6461,-5.6461,-5.6471,-5.6485,-5.6497,-5.6509,-5.6547,-5.6575,-5.6603,-5.6613,-5.6618,-5.6619,-5.6621,-5.6621,-5.6621,-5.6621,-5.6621,-5.6621,-5.6621,-5.6621,-5.662,-5.662,-5.6619,-5.6615,-5.6614,-5.6594,-5.6611,-5.6607,-5.6605,-5.6605,-5.6598,-5.6591,-5.6543,-5.6523,-5.6519,-5.6531,-5.6542,-5.6542,-5.6523,-5.6514,-5.6482,-5.6437,-5.6461,-5.648,-5.6433,-5.6417,-5.6397,-5.6339,-5.6285,-5.6213,-5.6202,-5.6164,-5.6125,-5.6057,-5.6005,-5.598,-5.5914,-5.5846,-5.5745,-5.5615,-5.548,-5.5333,-5.5203,-5.5135,-5.4995,-5.4764,-5.4641,-5.4559,-5.4373,-5.4198,-5.4036,-5.3851,-5.3832,-5.3813,-5.3813,-5.3813,-5.3813,-5.3813,-5.3943,-5.3998,-5.411,-5.4221,-5.4704,-6.134,-6.1344,-6.1344,-6.1337,-6.1344,-6.1378,-6.1407,-6.1434,-6.1441,-6.146,-6.1497,-6.1503,-6.1503,-6.1425,-6.0958,-6.0744,-6.0667,-6.0219,-5.981,-5.9374,-5.9059,-5.8139,-5.7117,-5.6639,-5.6402,-5.6403,-5.6403,-5.6417,-5.6435,-5.6441,-5.643,-5.6434,-5.6491,-5.6485,-5.6494,-5.6489,-5.6499,-5.6545,-5.658,-5.6607,-5.6611,-5.6616,-5.6619,-5.662,-5.6621,-5.6621,-5.6621,-5.6621,-5.6621,-5.6621,-5.6621,-5.662,-5.6619,-5.6618,-5.6614,-5.6609,-5.6607,-5.6587,-5.6559,-5.6552,-5.6547,-5.6563,-5.6553,-5.6528,-5.65,-5.6497,-5.6491,-5.6488,-5.6485,-5.6485,-5.6501,-5.6471,-5.6441,-5.6407,-5.6426,-5.645,-5.6398,-5.6377,-5.6339,-5.6303,-5.6233,-5.6178,-5.6184,-5.6133,-5.6082,-5.604,-5.6007,-5.5961,-5.5905,-5.5836,-5.5735,-5.5604,-5.5468,-5.5358,-5.5216,-5.5102,-5.4966,-5.4764,-5.4592,-5.4526,-5.4373,-5.418,-5.4036,-5.387,-5.3851,-5.3813,-5.3813,-5.3813,-5.3813,-5.3868,-5.4054,-5.4333,-5.4518,-5.4983,-5.541,-6.1402,-6.1402,-6.1402,-6.1402,-6.1421,-6.1472,-6.1478,-6.1484,-6.1484,-6.1509,-6.1515,-6.1495,-6.1501,-6.1495,-6.1404,-6.1476,-6.1456,-6.1287,-6.0962,-6.0296,-5.9621,-5.8749,-5.8087,-5.7108,-5.6641,-5.6468,-5.6414,-5.643,-5.6468,-5.6478,-5.6485,-5.6488,-5.6491,-5.65,-5.6514,-5.6506,-5.6536,-5.6582,-5.6609,-5.6614,-5.6618,-5.6619,-5.662,-5.6621,-5.6621,-5.6621,-5.6621,-5.6621,-5.6621,-5.6621,-5.662,-5.6619,-5.6618,-5.6613,-5.6588,-5.66,-5.6577,-5.655,-5.6511,-5.6509,-5.65,-5.6491,-5.6488,-5.6498,-5.6478,-5.6475,-5.6471,-5.6476,-5.6491,-5.6484,-5.648,-5.6437,-5.6402,-5.6382,-5.6386,-5.6381,-5.637,-5.6333,-5.6303,-5.6285,-5.6245,-5.6175,-5.6122,-5.6082,-5.6065,-5.6005,-5.598,-5.5924,-5.5846,-5.5766,-5.5682,-5.5558,-5.5456,-5.5364,-5.5223,-5.5088,-5.4941,-5.4767,-5.4559,-5.4426,-5.4269,-5.4091,-5.4,-5.3889,-5.3851,-5.3813,-5.3813,-5.3813,-5.385,-5.4147,-5.4481,-5.4834,-5.5187,-5.5893,-5.6432,-6.1472,-6.1491,-6.1472,-6.1491,-6.1491,-6.1497,-6.1501,-6.1504,-6.1504,-6.1534,-6.1568,-6.1588,-6.1568,-6.1588,-6.1563,-6.1568,-6.1568,-6.1568,-6.1447,-6.1251,-6.0421,-6.0028,-5.9405,-5.8254,-5.7186,-5.6705,-5.6491,-5.6478,-5.6485,-5.65,-5.6503,-5.6506,-5.6543,-5.6573,-5.6575,-5.6584,-5.6589,-5.6611,-5.6616,-5.6618,-5.6619,-5.6621,-5.6621,-5.6621,-5.6621,-5.6621,-5.6621,-5.662,-5.662,-5.6619,-5.6599,-5.6596,-5.6609,-5.6605,-5.6577,-5.6523,-5.6516,-5.6509,-5.6491,-5.6488,-5.6485,-5.6498,-5.6471,-5.6491,-5.6422,-5.6422,-5.6425,-5.6417,-5.6403,-5.6432,-5.6407,-5.6398,-5.6367,-5.6333,-5.6329,-5.6304,-5.6265,-5.6272,-5.6272,-5.6223,-5.6172,-5.6114,-5.609,-5.6042,-5.6007,-5.598,-5.5914,-5.5856,-5.5806,-5.5735,-5.5638,-5.5535,-5.542,-5.5345,-5.5189,-5.5038,-5.4867,-5.4702,-5.451,-5.434,-5.4181,-5.4073,-5.3982,-5.3907,-5.3832,-5.3831,-5.398,-5.3998,-5.4073,-5.4481,-5.5001,-5.5466,-5.6023,-5.6747,-5.7286,-6.1544,-6.1544,-6.1564,-6.1564,-6.1564,-6.1544,-6.1553,-6.1543,-6.1553,-6.1553,-6.1582,-6.1592,-6.1588,-6.1588,-6.1588,-6.1588,-6.1592,-6.1582,-6.1591,-6.1487,-6.1073,-6.076,-6.0305,-5.9458,-5.8426,-5.7281,-5.6659,-5.6528,-5.6516,-5.6545,-5.6534,-5.6554,-5.6584,-5.6606,-5.6607,-5.6613,-5.6615,-5.6617,-5.6619,-5.662,-5.662,-5.6621,-5.6621,-5.6621,-5.6621,-5.662,-5.662,-5.6618,-5.6615,-5.6593,-5.6571,-5.6549,-5.658,-5.6573,-5.6541,-5.6511,-5.6497,-5.6485,-5.6468,-5.6457,-5.6469,-5.6448,-5.6448,-5.6435,-5.6422,-5.6393,-5.6403,-5.6397,-5.6386,-5.64,-5.6353,-5.6347,-5.6329,-5.6278,-5.6258,-5.6204,-5.6182,-5.6216,-5.6223,-5.6157,-5.6098,-5.6065,-5.6023,-5.598,-5.5952,-5.5933,-5.5876,-5.5816,-5.5776,-5.5714,-5.5607,-5.5504,-5.5427,-5.5294,-5.5135,-5.4971,-5.4795,-5.4622,-5.4441,-5.4287,-5.4146,-5.4073,-5.3982,-5.3963,-5.398,-5.4203,-5.4314,-5.4314,-5.4667,-5.5373,-5.5949,-5.6339,-5.6822,-5.749,-5.7899,-6.1576,-6.1576,-6.1576,-6.1576,-6.1576,-6.1595,-6.1591,-6.1591,-6.1592,-6.1576,-6.1576,-6.1578,-6.1588,-6.1588,-6.1588,-6.1588,-6.1592,-6.1591,-6.158,-6.1557,-6.1582,-6.1231,-6.0715,-6.0239,-5.956,-5.818,-5.727,-5.685,-5.6621,-5.6609,-5.6588,-5.6592,-5.6594,-5.6613,-5.6614,-5.6618,-5.6619,-5.662,-5.6621,-5.6621,-5.6621,-5.6621,-5.6621,-5.6621,-5.662,-5.6619,-5.6618,-5.6613,-5.6588,-5.658,-5.653,-5.653,-5.6547,-5.6521,-5.6484,-5.6481,-5.6482,-5.6461,-5.6414,-5.642,-5.6402,-5.6391,-5.6391,-5.6391,-5.6367,-5.6386,-5.6361,-5.637,-5.6378,-5.6315,-5.6285,-5.6298,-5.6271,-5.6221,-5.618,-5.6141,-5.6117,-5.6133,-5.6109,-5.6093,-5.6042,-5.6007,-5.5971,-5.5924,-5.5905,-5.5865,-5.5816,-5.5756,-5.5735,-5.5662,-5.5551,-5.5468,-5.5358,-5.5203,-5.5057,-5.4897,-5.4717,-5.4667,-5.4448,-5.4458,-5.4352,-5.4447,-5.4429,-5.4223,-5.4258,-5.4556,-5.4909,-5.5169,-5.5652,-5.6376,-5.6785,-5.7063,-5.7602,-5.8234,-5.8438,-6.1576,-6.1576,-6.1576,-6.1595,-6.1595,-6.1595,-6.1598,-6.1591,-6.1596,-6.1584,-6.158,-6.1582,-6.1588,-6.1588,-6.1588,-6.1588,-6.1592,-6.1595,-6.1592,-6.1611,-6.1654,-6.1495,-6.1319,-6.0798,-6.0235,-5.9673,-5.8522,-5.7469,-5.6805,-5.6611,-5.6614,-5.6614,-5.6617,-5.6618,-5.6619,-5.6621,-5.6621,-5.6621,-5.6621,-5.6621,-5.6621,-5.6621,-5.6621,-5.662,-5.6619,-5.6617,-5.6612,-5.6607,-5.6559,-5.653,-5.6499,-5.6506,-5.6517,-5.6488,-5.6478,-5.6487,-5.6449,-5.6405,-5.6378,-5.6398,-5.6402,-5.6391,-5.6381,-5.635,-5.6339,-5.6327,-5.6309,-5.6291,-5.6265,-5.6213,-5.6228,-5.6202,-5.6214,-5.6164,-5.6109,-5.6048,-5.6031,-5.5987,-5.596,-5.598,-5.5952,-5.5924,-5.5885,-5.5826,-5.5766,-5.5724,-5.5692,-5.5649,-5.5615,-5.5539,-5.5444,-5.5371,-5.5288,-5.5121,-5.4941,-5.481,-5.4676,-5.4712,-5.4675,-5.4908,-5.4875,-5.4988,-5.4969,-5.5077,-5.5076,-5.5261,-5.5596,-5.5967,-5.6525,-5.7156,-5.749,-5.7751,-5.8141,-5.8512,-5.8549,-6.164,-6.164,-6.166,-6.164,-6.164,-6.166,-6.164,-6.1637,-6.1615,-6.158,-6.1592,-6.1586,-6.1588,-6.1588,-6.1588,-6.1588,-6.1578,-6.1588,-6.1588,-6.1602,-6.166,-6.1701,-6.1717,-6.1213,-6.079,-6.0327,-5.9509,-5.8435,-5.732,-5.6794,-5.666,-5.6619,-5.662,-5.662,-5.662,-5.6621,-5.6621,-5.6621,-5.6621,-5.6621,-5.6621,-5.6621,-5.662,-5.6619,-5.6614,-5.661,-5.6587,-5.6554,-5.6523,-5.6514,-5.6494,-5.6494,-5.6461,-5.6445,-5.6461,-5.6453,-5.6431,-5.6378,-5.6352,-5.635,-5.6358,-5.6341,-5.6329,-5.6291,-5.6253,-5.6252,-5.6239,-5.6218,-5.6223,-5.6175,-5.6168,-5.6145,-5.6082,-5.6076,-5.6054,-5.6038,-5.5952,-5.5895,-5.5971,-5.601,-5.5941,-5.5901,-5.5785,-5.5714,-5.564,-5.5596,-5.5562,-5.5527,-5.548,-5.5408,-5.5333,-5.5294,-5.5233,-5.5185,-5.5102,-5.5076,-5.5063,-5.5042,-5.5053,-5.5284,-5.5567,-5.5752,-5.6103,-5.6377,-5.6339,-5.6172,-5.6487,-5.6915,-5.7435,-5.7862,-5.8066,-5.8289,-5.8512,-5.8677,-5.8677,-6.1705,-6.1707,-6.1705,-6.1705,-6.1703,-6.1703,-6.1701,-6.1693,-6.1628,-6.1595,-6.1591,-6.1591,-6.1588,-6.1583,-6.1583,-6.1583,-6.1592,-6.1576,-6.1595,-6.1602,-6.1666,-6.1707,-6.1699,-6.1629,-6.1322,-6.0838,-6.0312,-5.9511,-5.7968,-5.7265,-5.6855,-5.664,-5.6621,-5.6621,-5.6621,-5.6621,-5.6621,-5.6621,-5.6621,-5.6621,-5.6621,-5.662,-5.6618,-5.6597,-5.6587,-5.6579,-5.6573,-5.6536,-5.65,-5.6488,-5.6468,-5.6461,-5.6416,-5.6369,-5.6369,-5.6378,-5.6382,-5.635,-5.6314,-5.6284,-5.6291,-5.6272,-5.6232,-5.6211,-5.6204,-5.6216,-5.6187,-5.6172,-5.6157,-5.6288,-5.6394,-5.6321,-5.6413,-5.6579,-5.657,-5.6424,-5.651,-5.6535,-5.6525,-5.6448,-5.6129,-5.5956,-5.5868,-5.5585,-5.5516,-5.5456,-5.5432,-5.5364,-5.5333,-5.5294,-5.5235,-5.523,-5.5214,-5.5246,-5.53,-5.5524,-5.5619,-5.5818,-5.5825,-5.594,-5.6312,-5.6625,-5.6993,-5.7323,-5.7323,-5.723,-5.7546,-5.7732,-5.8048,-5.8326,-5.8566,-5.8677,-5.8677,-5.8677,-5.8677,-6.1701,-6.1707,-6.1705,-6.1702,-6.1715,-6.1715,-6.1709,-6.1696,-6.1631,-6.1595,-6.1595,-6.1591,-6.1559,-6.1524,-6.1519,-6.1568,-6.1578,-6.1576,-6.1576,-6.1602,-6.1668,-6.1711,-6.1705,-6.1708,-6.1637,-6.1289,-6.0762,-5.9492,-5.8379,-5.789,-5.7324,-5.6855,-5.666,-5.6621,-5.6621,-5.6621,-5.6621,-5.6621,-5.6621,-5.6621,-5.662,-5.6658,-5.6692,-5.6665,-5.6712,-5.6758,-5.6865,-5.6845,-5.6767,-5.664,-5.6535,-5.6446,-5.6388,-5.635,-5.6319,-5.6319,-5.6314,-5.6308,-5.6271,-5.6253,-5.6239,-5.6225,-5.619,-5.6214,-5.6191,-5.6184,-5.6168,-5.6106,-5.6131,-5.6476,-5.6945,-5.7053,-5.7419,-5.763,-5.7645,-5.7679,-5.7723,-5.7132,-5.7146,-5.7161,-5.6957,-5.6388,-5.6043,-5.5681,-5.5395,-5.5333,-5.532,-5.5344,-5.5437,-5.5606,-5.5565,-5.5673,-5.5769,-5.5788,-5.5788,-5.5971,-5.6264,-5.6535,-5.6612,-5.6668,-5.7132,-5.7517,-5.7773,-5.8029,-5.8009,-5.8046,-5.8178,-5.8345,-5.8568,-5.8642,-5.8658,-5.8677,-5.8677,-5.8677,-5.8677,-6.171,-6.1709,-6.1709,-6.1705,-6.1697,-6.1697,-6.1711,-6.1696,-6.1631,-6.1576,-6.1588,-6.1591,-6.1583,-6.1554,-6.1554,-6.1578,-6.1578,-6.158,-6.1576,-6.1602,-6.1649,-6.1711,-6.1705,-6.1709,-6.1715,-6.1601,-6.1289,-6.0644,-5.9414,-5.834,-5.7637,-5.7363,-5.6875,-5.6621,-5.6797,-5.664,-5.6621,-5.6621,-5.6621,-5.6621,-5.6716,-5.7046,-5.7333,-5.7315,-5.7695,-5.7855,-5.7876,-5.7946,-5.7927,-5.7857,-5.7843,-5.7531,-5.7225,-5.7027,-5.6873,-5.6227,-5.6227,-5.6246,-5.6239,-5.6251,-5.6269,-5.6221,-5.6191,-5.6114,-5.609,-5.6162,-5.6397,-5.6691,-5.6704,-5.7072,-5.7651,-5.7783,-5.7944,-5.816,-5.8439,-5.8354,-5.8275,-5.7985,-5.7723,-5.7772,-5.7775,-5.7292,-5.691,-5.678,-5.6595,-5.639,-5.6425,-5.6473,-5.6568,-5.67,-5.6581,-5.6387,-5.6474,-5.6562,-5.6534,-5.6635,-5.6943,-5.721,-5.7323,-5.7526,-5.8062,-5.8409,-5.844,-5.8475,-5.8417,-5.851,-5.8677,-5.8658,-5.864,-5.8658,-5.8677,-5.8677,-5.8677,-5.8677,-5.8677,-6.1716,-6.1713,-6.1713,-6.171,-6.1704,-6.1702,-6.1715,-6.1703,-6.1657,-6.1621,-6.1604,-6.1586,-6.1583,-6.1583,-6.1564,-6.1559,-6.1592,-6.1576,-6.1591,-6.1609,-6.1649,-6.1711,-6.1705,-6.1709,-6.1714,-6.1699,-6.164,-6.1211,-6.0449,-5.9433,-5.8594,-5.8223,-5.7773,-5.7441,-5.7305,-5.7402,-5.748,-5.748,-5.7461,-5.7421,-5.7477,-5.7901,-5.8105,-5.8321,-5.8694,-5.9089,-5.9081,-5.8971,-5.8905,-5.8836,-5.8751,-5.8381,-5.7988,-5.7858,-5.7638,-5.7169,-5.7077,-5.705,-5.6953,-5.6815,-5.6543,-5.6533,-5.6726,-5.6955,-5.6787,-5.6626,-5.6753,-5.7487,-5.7457,-5.789,-5.8417,-5.8553,-5.8766,-5.8842,-5.8922,-5.8751,-5.863,-5.8601,-5.8644,-5.8763,-5.8748,-5.8521,-5.8217,-5.8133,-5.7905,-5.757,-5.7517,-5.754,-5.7518,-5.7497,-5.7235,-5.692,-5.7226,-5.7289,-5.7314,-5.7412,-5.7697,-5.7847,-5.7958,-5.8122,-5.8486,-5.863,-5.8605,-5.864,-5.8677,-5.8677,-5.8677,-5.8677,-5.8677,-5.8677,-5.8677,-5.8677,-5.8677,-5.8677,-5.8677,-6.1699,-6.1699,-6.1699,-6.1698,-6.1716,-6.171,-6.1704,-6.1713,-6.1691,-6.1648,-6.1607,-6.1558,-6.1554,-6.1578,-6.1554,-6.1554,-6.1592,-6.1576,-6.1595,-6.1628,-6.1649,-6.1694,-6.1705,-6.1711,-6.1699,-6.1699,-6.1699,-6.166,-6.1406,-6.0566,-5.9746,-5.914,-5.8769,-5.8906,-5.8808,-5.8555,-5.8594,-5.8613,-5.8632,-5.8669,-5.8703,-5.891,-5.9013,-5.9028,-5.9086,-5.91,-5.9059,-5.9221,-5.9282,-5.9262,-5.9276,-5.907,-5.8808,-5.8717,-5.8493,-5.8172,-5.8079,-5.8064,-5.797,-5.7594,-5.7365,-5.7522,-5.7787,-5.8062,-5.7891,-5.8162,-5.8327,-5.8267,-5.8222,-5.8591,-5.9065,-5.9379,-5.9504,-5.9658,-5.9657,-5.959,-5.954,-5.9588,-5.9657,-5.9779,-5.9621,-5.9216,-5.906,-5.8876,-5.8608,-5.8259,-5.8056,-5.8062,-5.7843,-5.776,-5.754,-5.7419,-5.7874,-5.8047,-5.8107,-5.8259,-5.8447,-5.8464,-5.8496,-5.8527,-5.8646,-5.8698,-5.8677,-5.8677,-5.8677,-5.8677,-5.8677,-5.8677,-5.8677,-5.8677,-5.8677,-5.8677,-5.8677,-5.8677,-5.8677,-6.1699,-6.1699,-6.1699,-6.1699,-6.1716,-6.1711,-6.1705,-6.1715,-6.1713,-6.1664,-6.1596,-6.1578,-6.1559,-6.1583,-6.1583,-6.1568,-6.1591,-6.1584,-6.1621,-6.166,-6.1681,-6.1699,-6.1708,-6.1713,-6.1699,-6.1699,-6.1699,-6.1699,-6.1601,-6.125,-6.1152,-6.0605,-5.9805,-5.9277,-5.9199,-5.9375,-5.9316,-5.9277,-5.9257,-5.9196,-5.9229,-5.9683,-5.9898,-5.9908,-6.0496,-6.0569,-6.059,-6.0503,-6.0456,-6.0378,-6.0312,-5.9998,-5.9623,-5.9557,-5.9281,-5.8873,-5.8834,-5.8789,-5.8734,-5.8366,-5.8153,-5.8185,-5.8419,-5.8644,-5.8694,-5.8529,-5.8758,-5.8858,-5.9011,-5.9319,-5.9925,-6.0048,-6.0108,-6.0335,-6.0356,-6.0251,-6.0163,-6.0087,-5.9975,-5.9858,-5.9796,-5.9618,-5.9534,-5.9485,-5.9199,-5.8929,-5.8746,-5.8562,-5.8358,-5.8231,-5.8101,-5.801,-5.8407,-5.8596,-5.8653,-5.8877,-5.9138,-5.9039,-5.892,-5.882,-5.8719,-5.8698,-5.8677,-5.8677,-5.8677,-5.8677,-5.8677,-5.8677,-5.8677,-5.8677,-5.8677,-5.8677,-5.8677,-5.8677,-5.8677,-6.1699,-6.1699,-6.1699,-6.1699,-6.1717,-6.1714,-6.1708,-6.1699,-6.1703,-6.1654,-6.1592,-6.1591,-6.1592,-6.1592,-6.1578,-6.1582,-6.1588,-6.1611,-6.1667,-6.1688,-6.1705,-6.1701,-6.1709,-6.1715,-6.1699,-6.1699,-6.1699,-6.1699,-6.1699,-6.1699,-6.1582,-6.1211,-6.0644,-6.0176,-6.0058,-5.9941,-5.9941,-5.9941,-5.9939,-5.9935,-6.0065,-6.0438,-6.0765,-6.0795,-6.1229,-6.1359,-6.1298,-6.1207,-6.1194,-6.1192,-6.1128,-6.0895,-6.0591,-6.0265,-5.9968,-5.9603,-5.9325,-5.9316,-5.9288,-5.9075,-5.9142,-5.9425,-5.9436,-5.9427,-5.9225,-5.9165,-5.9612,-5.975,-5.9833,-5.999,-6.0552,-6.0349,-6.0213,-6.0299,-6.0197,-6.0087,-6.0045,-5.9966,-5.9885,-5.9803,-5.9738,-5.9671,-5.9599,-5.9492,-5.9342,-5.9133,-5.9059,-5.8967,-5.8968,-5.8894,-5.8952,-5.8878,-5.8953,-5.9046,-5.9139,-5.9099,-5.9039,-5.8961,-5.886,-5.8799,-5.8719,-5.8698,-5.8677,-5.8677,-5.8677,-5.8677,-5.8677,-5.8677,-5.8677,-5.8677,-5.8677,-5.8677,-5.8677,-5.8677,-5.8677,-6.1699,-6.1699,-6.1699,-6.1699,-6.1699,-6.1717,-6.1714,-6.1707,-6.1715,-6.1654,-6.1634,-6.1592,-6.1591,-6.1582,-6.1576,-6.1608,-6.1619,-6.1664,-6.1699,-6.171,-6.1711,-6.1702,-6.171,-6.1716,-6.1699,-6.1699,-6.1699,-6.1699,-6.1699,-6.1699,-6.1699,-6.1699,-6.1367,-6.1289,-6.1582,-6.1601,-6.1621,-6.16,-6.1479,-6.1375,-6.1364,-6.14,-6.1397,-6.1428,-6.1504,-6.1553,-6.1484,-6.1415,-6.1366,-6.1322,-6.1302,-6.1137,-6.1025,-6.0997,-6.0874,-6.0788,-6.0798,-6.0867,-6.0905,-6.0248,-6.0209,-6.0557,-6.0432,-6.049,-6.0718,-6.0732,-6.0481,-6.0364,-6.0412,-6.0366,-6.0431,-6.0352,-6.0241,-6.0152,-6.006,-5.9982,-5.9921,-5.9855,-5.9772,-5.9704,-5.9599,-5.9512,-5.9457,-5.9401,-5.9327,-5.9252,-5.9271,-5.929,-5.929,-5.9253,-5.9215,-5.9177,-5.912,-5.9081,-5.9041,-5.8961,-5.8899,-5.884,-5.8799,-5.8739,-5.8698,-5.8698,-5.8677,-5.8677,-5.8677,-5.8677,-5.8677,-5.8677,-5.8677,-5.8677,-5.8677,-5.8677,-5.8677,-5.8677,-5.8677,-6.1699,-6.1699,-6.1699,-6.1699,-6.1699,-6.1718,-6.1714,-6.1707,-6.1707,-6.1705,-6.167,-6.1615,-6.1584,-6.158,-6.16,-6.163,-6.1664,-6.1687,-6.1705,-6.1707,-6.1701,-6.1709,-6.1714,-6.1717,-6.1699,-6.1699,-6.1699,-6.1699,-6.1699,-6.1699,-6.1699,-6.1699,-6.1699,-6.1699,-6.168,-6.1699,-6.1699,-6.1697,-6.1673,-6.1684,-6.1705,-6.1682,-6.163,-6.158,-6.1568,-6.152,-6.1453,-6.1381,-6.1322,-6.1302,-6.1281,-6.121,-6.1155,-6.1146,-6.1137,-6.1099,-6.1099,-6.1099,-6.1079,-6.0789,-6.0809,-6.1002,-6.1041,-6.101,-6.0997,-6.088,-6.0777,-6.0667,-6.0578,-6.0472,-6.0352,-6.0226,-6.0133,-6.0045,-5.995,-5.989,-5.9824,-5.9738,-5.9652,-5.9599,-5.9512,-5.9421,-5.9347,-5.9328,-5.9234,-5.9177,-5.9158,-5.9158,-5.9139,-5.9101,-5.9081,-5.9063,-5.9024,-5.9002,-5.8941,-5.8899,-5.8838,-5.8779,-5.8739,-5.8719,-5.8698,-5.8677,-5.8677,-5.8677,-5.8677,-5.8677,-5.8677,-5.8677,-5.8677,-5.8677,-5.8677,-5.8677,-5.8677,-5.8677,-5.8677,-6.1699,-6.1699,-6.1699,-6.1699,-6.1699,-6.1698,-6.1716,-6.1707,-6.1707,-6.171,-6.1699,-6.1648,-6.1621,-6.1618,-6.1625,-6.1648,-6.1699,-6.1713,-6.1698,-6.1699,-6.1709,-6.1713,-6.1717,-6.1699,-6.1699,-6.1699,-6.1699,-6.1699,-6.1699,-6.1699,-6.1699,-6.1699,-6.1699,-6.1699,-6.1699,-6.1699,-6.1717,-6.1714,-6.1708,-6.1715,-6.1696,-6.1648,-6.1596,-6.1573,-6.1518,-6.1466,-6.1395,-6.1332,-6.1283,-6.1253,-6.121,-6.1155,-6.1108,-6.1099,-6.1099,-6.1099,-6.1099,-6.1099,-6.1079,-6.1079,-6.1041,-6.107,-6.1031,-6.1,-6.0976,-6.0858,-6.0722,-6.0617,-6.0525,-6.0389,-6.026,-6.0133,-6.0026,-5.995,-5.9888,-5.9809,-5.9688,-5.9599,-5.9528,-5.9493,-5.9438,-5.9328,-5.9234,-5.9215,-5.9158,-5.91,-5.9022,-5.9022,-5.9003,-5.8983,-5.8964,-5.8944,-5.8905,-5.8864,-5.884,-5.882,-5.8758,-5.8698,-5.8677,-5.8677,-5.8677,-5.8677,-5.8677,-5.8677,-5.8677,-5.8677,-5.8677,-5.8677,-5.8677,-5.8677,-5.8677,-5.8677,-5.8677,-5.8677,-5.8677,-6.1699,-6.1699,-6.1699,-6.1699,-6.1699,-6.1699,-6.1717,-6.1709,-6.1702,-6.1705,-6.1702,-6.1702,-6.1657,-6.1625,-6.1657,-6.1682,-6.171,-6.1709,-6.1717,-6.1704,-6.1713,-6.1716,-6.1717,-6.1699,-6.1699,-6.1699,-6.1699,-6.1699,-6.1699,-6.1699,-6.1699,-6.1699,-6.1699,-6.1699,-6.1699,-6.1717,-6.1715,-6.171,-6.1701,-6.1705,-6.1679,-6.1638,-6.1599,-6.1573,-6.152,-6.1441,-6.1381,-6.1334,-6.127,-6.1219,-6.1126,-6.1108,-6.1099,-6.1099,-6.1099,-6.1099,-6.1099,-6.1099,-6.1099,-6.1099,-6.1099,-6.108,-6.104,-6.1008,-6.0944,-6.0823,-6.0692,-6.0578,-6.0485,-6.0313,-6.0148,-6.0041,-5.9966,-5.9888,-5.9807,-5.9705,-5.9564,-5.9474,-5.942,-5.9383,-5.9327,-5.9234,-5.9177,-5.9139,-5.906,-5.8942,-5.8882,-5.8902,-5.8902,-5.8882,-5.8862,-5.886,-5.8801,-5.8739,-5.8698,-5.8758,-5.8737,-5.8677,-5.8677,-5.8677,-5.8677,-5.8677,-5.8677,-5.8677,-5.8677,-5.8677,-5.8677,-5.8677,-5.8677,-5.8677,-5.8677,-5.8677,-5.8677,-5.8677,-5.8677,-6.1699,-6.1699,-6.1699,-6.1699,-6.1699,-6.1699,-6.1698,-6.1715,-6.1709,-6.1699,-6.1709,-6.1709,-6.1701,-6.1671,-6.1683,-6.1707,-6.1713,-6.1701,-6.1709,-6.1713,-6.1716,-6.1718,-6.1699,-6.1699,-6.1699,-6.1699,-6.1699,-6.1699,-6.1699,-6.1699,-6.1699,-6.1699,-6.1699,-6.1699,-6.1717,-6.1714,-6.1711,-6.1705,-6.1713,-6.1674,-6.1644,-6.1596,-6.1573,-6.1542,-6.1478,-6.1395,-6.1344,-6.133,-6.1272,-6.1182,-6.1126,-6.1099,-6.1099,-6.1099,-6.1099,-6.1099,-6.1099,-6.1099,-6.1099,-6.1099,-6.1099,-6.108,-6.104,-6.1027,-6.0933,-6.08,-6.0642,-6.0552,-6.0417,-6.0241,-6.0103,-6.001,-5.9902,-5.9805,-5.9723,-5.9599,-5.9474,-5.9401,-5.9365,-5.9328,-5.9253,-5.9177,-5.9101,-5.904,-5.8941,-5.882,-5.876,-5.8781,-5.8801,-5.8781,-5.8799,-5.8779,-5.8758,-5.8698,-5.8677,-5.8698,-5.8698,-5.8677,-5.8677,-5.8677,-5.8677,-5.8677,-5.8677,-5.8677,-5.8677,-5.8677,-5.8677,-5.8677,-5.8677,-5.8677,-5.8677,-5.8677,-5.8677,-5.8677,-5.8677,-6.1699,-6.1699,-6.1699,-6.1699,-6.1699,-6.1699,-6.1699,-6.1718,-6.1714,-6.1709,-6.1702,-6.1702,-6.1699,-6.1696,-6.1699,-6.1702,-6.1704,-6.1709,-6.1714,-6.1716,-6.1718,-6.1699,-6.1699,-6.1699,-6.1699,-6.1699,-6.1699,-6.1699,-6.1699,-6.1699,-6.1699,-6.1699,-6.1699,-6.1699,-6.1716,-6.1712,-6.1705,-6.1717,-6.1703,-6.166,-6.1611,-6.1591,-6.1563,-6.1509,-6.1434,-6.1349,-6.1314,-6.1314,-6.1253,-6.1173,-6.1108,-6.1099,-6.1099,-6.1099,-6.1099,-6.1099,-6.1099,-6.1099,-6.1099,-6.1099,-6.1099,-6.109,-6.104,-6.1008,-6.0911,-6.0777,-6.0667,-6.0584,-6.0375,-6.0201,-6.0091,-5.9979,-5.9853,-5.9721,-5.9634,-5.951,-5.9438,-5.9346,-5.929,-5.9253,-5.9177,-5.9101,-5.9022,-5.896,-5.8859,-5.8758,-5.8698,-5.8719,-5.8739,-5.8719,-5.8719,-5.8719,-5.8698,-5.8677,-5.8677,-5.8677,-5.8677,-5.8677,-5.8677,-5.8677,-5.8677,-5.8677,-5.8677,-5.8677,-5.8677,-5.8677,-5.8677,-5.8677,-5.8677,-5.8677,-5.8677,-5.8677,-5.8677,-5.8677,-5.8677,-6.1699,-6.1699,-6.1699,-6.1699,-6.1699,-6.1699,-6.1699,-6.1699,-6.1718,-6.1715,-6.171,-6.1709,-6.1709,-6.1707,-6.1709,-6.171,-6.1711,-6.1715,-6.1717,-6.1699,-6.1699,-6.1699,-6.1699,-6.1699,-6.1699,-6.1699,-6.1699,-6.1699,-6.1699,-6.1699,-6.1699,-6.1699,-6.1699,-6.1698,-6.1715,-6.171,-6.1701,-6.1701,-6.1688,-6.1648,-6.1604,-6.1586,-6.1578,-6.1509,-6.1441,-6.1368,-6.1318,-6.1289,-6.1245,-6.1155,-6.1099,-6.1099,-6.1099,-6.1099,-6.1099,-6.1099,-6.1099,-6.1099,-6.1099,-6.1099,-6.1089,-6.108,-6.104,-6.0987,-6.0888,-6.0741,-6.0629,-6.0552,-6.0356,-6.0178,-6.0087,-5.9934,-5.9807,-5.9669,-5.9563,-5.9474,-5.9364,-5.9309,-5.9272,-5.9215,-5.9139,-5.9042,-5.8961,-5.8879,-5.8799,-5.8719,-5.8677,-5.8677,-5.8677,-5.8677,-5.8677,-5.8677,-5.8677,-5.8677,-5.8677,-5.8677,-5.8677,-5.8677,-5.8677,-5.8677,-5.8677,-5.8677,-5.8677,-5.8677,-5.8677,-5.8677,-5.8677,-5.8677,-5.8677,-5.8677,-5.8677,-5.8677,-5.8698,-5.8716,-5.8677,-6.1699,-6.1699,-6.1699,-6.1699,-6.1699,-6.1699,-6.1699,-6.1699,-6.1699,-6.1698,-6.1716,-6.1715,-6.1713,-6.1711,-6.1714,-6.1716,-6.1716,-6.1718,-6.1699,-6.1699,-6.1699,-6.1699,-6.1699,-6.1699,-6.1699,-6.1699,-6.1699,-6.1699,-6.1699,-6.1699,-6.1699,-6.1699,-6.1699,-6.1716,-6.1712,-6.1705,-6.1711,-6.1685,-6.1667,-6.163,-6.1584,-6.1549,-6.1509,-6.1479,-6.1428,-6.1359,-6.1322,-6.1297,-6.1208,-6.1117,-6.1099,-6.1099,-6.1099,-6.1099,-6.1099,-6.1099,-6.1099,-6.1099,-6.1099,-6.1089,-6.108,-6.106,-6.1,-6.0935,-6.0835,-6.0692,-6.0578,-6.048,-6.0351,-6.0188,-6.0038,-5.9904,-5.9759,-5.9634,-5.9528,-5.9419,-5.929,-5.929,-5.9253,-5.9177,-5.9101,-5.9002,-5.8899,-5.8818,-5.8758,-5.8698,-5.8698,-5.8677,-5.8677,-5.8677,-5.8677,-5.8677,-5.8677,-5.8677,-5.8677,-5.8677,-5.8677,-5.8677,-5.8677,-5.8677,-5.8677,-5.8677,-5.8677,-5.8677,-5.8677,-5.8677,-5.8677,-5.8677,-5.8677,-5.8677,-5.8677,-5.8677,-5.8754,-5.8791,-5.8735,-6.1699,-6.1699,-6.1699,-6.1699,-6.1699,-6.1699,-6.1699,-6.1699,-6.1699,-6.1699,-6.1698,-6.1698,-6.1699,-6.1699,-6.1718,-6.1699,-6.1699,-6.1699,-6.1699,-6.1699,-6.1699,-6.1699,-6.1699,-6.1699,-6.1699,-6.1699,-6.1699,-6.1699,-6.1699,-6.1699,-6.1699,-6.1699,-6.1718,-6.1714,-6.1708,-6.1697,-6.1679,-6.1651,-6.1627,-6.1599,-6.1573,-6.1518,-6.1472,-6.1447,-6.1394,-6.1322,-6.1294,-6.1261,-6.1191,-6.1117,-6.1099,-6.1099,-6.1099,-6.1099,-6.1099,-6.1099,-6.1099,-6.1099,-6.1099,-6.1089,-6.107,-6.1021,-6.1009,-6.0955,-6.0823,-6.068,-6.0552,-6.0439,-6.0266,-6.0099,-5.9975,-5.9836,-5.9721,-5.9598,-5.9455,-5.9327,-5.9272,-5.9253,-5.9196,-5.9101,-5.9003,-5.8921,-5.8838,-5.8758,-5.8698,-5.8698,-5.8698,-5.8677,-5.8677,-5.8677,-5.8677,-5.8677,-5.8677,-5.8677,-5.8677,-5.8677,-5.8677,-5.8677,-5.8677,-5.8677,-5.8677,-5.8677,-5.8677,-5.8677,-5.8677,-5.8677,-5.8677,-5.8677,-5.8677,-5.8677,-5.8677,-5.8677,-5.8791,-5.9014,-5.9237,-6.1582,-6.1699,-6.1699,-6.1699,-6.1699,-6.1699,-6.1699,-6.1699,-6.1699,-6.1699,-6.1699,-6.1699,-6.1699,-6.1699,-6.1699,-6.1699,-6.1699,-6.1699,-6.1699,-6.1699,-6.1699,-6.1699,-6.1699,-6.1699,-6.1699,-6.1699,-6.1699,-6.1699,-6.1699,-6.1699,-6.1699,-6.1699,-6.1717,-6.1714,-6.1705,-6.169,-6.1666,-6.1618,-6.1588,-6.1564,-6.1528,-6.1495,-6.144,-6.1395,-6.1327,-6.1279,-6.125,-6.1227,-6.1164,-6.1137,-6.1099,-6.1099,-6.1099,-6.1099,-6.1099,-6.1099,-6.1099,-6.1099,-6.1099,-6.1099,-6.1061,-6.1031,-6.1018,-6.0933,-6.08,-6.068,-6.0539,-6.0356,-6.0178,-6.0072,-5.9947,-5.9801,-5.9666,-5.9562,-5.9437,-5.929,-5.9272,-5.9234,-5.9139,-5.9023,-5.8942,-5.8859,-5.8779,-5.8698,-5.8677,-5.8677,-5.8677,-5.8677,-5.8677,-5.8677,-5.8677,-5.8677,-5.8677,-5.8677,-5.8677,-5.8677,-5.8677,-5.8677,-5.8677,-5.8677,-5.8677,-5.8677,-5.8677,-5.8677,-5.8677,-5.8677,-5.8677,-5.8677,-5.8677,-5.8677,-5.8677,-5.8751,-5.9178,-5.9459,-5.9942,-6.1055,-6.1699,-6.1699,-6.1699,-6.1699,-6.1699,-6.1699,-6.1699,-6.1699,-6.1699,-6.1699,-6.1699,-6.1699,-6.1699,-6.1699,-6.1699,-6.1699,-6.1699,-6.1699,-6.1699,-6.1699,-6.1699,-6.1699,-6.1699,-6.1699,-6.1699,-6.1699,-6.1699,-6.1699,-6.1699,-6.1699,-6.1717,-6.1713,-6.1708,-6.1699,-6.1679,-6.1654,-6.1604,-6.1567,-6.1558,-6.1495,-6.146,-6.1428,-6.1388,-6.1344,-6.1275,-6.1225,-6.1191,-6.1155,-6.1117,-6.1099,-6.1099,-6.1099,-6.1099,-6.1099,-6.1099,-6.1099,-6.1099,-6.1099,-6.1099,-6.1061,-6.1009,-6.0976,-6.088,-6.0765,-6.0642,-6.0466,-6.0217,-6.0084,-6.0057,-5.9931,-5.9734,-5.9598,-5.9526,-5.9419,-5.9346,-5.929,-5.9196,-5.912,-5.9022,-5.8922,-5.882,-5.8737,-5.8677,-5.8677,-5.8677,-5.8677,-5.8677,-5.8677,-5.8677,-5.8677,-5.8677,-5.8677,-5.8677,-5.8677,-5.8677,-5.8677,-5.8677,-5.8677,-5.8677,-5.8677,-5.8677,-5.8677,-5.8677,-5.8677,-5.8677,-5.8677,-5.8677,-5.8677,-5.8677,-5.8677,-5.8826,-5.9346,-6.0054,-6.0667]},{"header":{"parameterUnit":"m.s-1","parameterCategory":1,"la1":31.0,"la2":29.5877,"lo1":-88.7671,"lo2":-86.6584,"dy":0.0162,"dx":0.0185,"nx":115,"ny":88,"refTime":"2024-03-10T06:00:00:Z","depth":0,"parameterNumber":3,"parameterNumberName":"V-component_of_WINDS"},"data":[0.0,0.0,0.0,0.0,0.0,0.0,0.0,0.0,0.0,0.0,0.0,0.0,0.0,0.0,0.0,0.0,0.0,0.0,0.0,0.0,0.0,0.0,0.0,0.0,0.0,0.0,0.0,0.0,0.0,0.0,0.0,0.0,0.0,0.0,0.0,0.0,0.0,0.0,0.0,0.0,0.0,0.0,0.0,0.0,0.0,0.0,0.0,0.0,0.0,0.0,0.0,0.0,0.0,0.0,0.0,0.0,0.0,0.0,0.0,0.0,0.0,0.0,0.0,0.0,0.0,0.0,0.0,0.0,0.0,0.0,0.0,0.0,0.0,0.0,0.0,0.0,0.0,0.0,0.0,0.0,0.0,0.0,0.0,0.0,0.0,0.0,0.0,0.0,0.0,0.0,0.0,0.0,0.0,0.0,0.0,0.0,0.0,0.0,0.0,0.0,0.0,0.0,0.0,0.0,0.0,0.0,0.0,0.0,0.0,0.0,0.0,0.0,0.0,0.0,0.0,0.0,0.0,0.0,0.0,0.0,0.0,0.0,0.0,0.0,0.0,0.0,0.0,0.0,0.0,0.0,0.0,0.0,0.0,0.0,0.0,0.0,0.0,0.0,0.0,0.0,0.0,0.0,0.0,0.0,0.0,0.0,0.0,0.0,0.0,0.0,0.0,0.0,0.0,0.0,0.0,0.0,0.0,0.0,0.0,0.0,0.0,0.0,0.0,0.0,0.0,0.0,0.0,0.0,0.0,0.0,0.0,0.0,0.0,0.0,0.0,0.0,0.0,0.0,0.0,0.0,0.0,0.0,0.0,0.0,0.0,0.0,0.0,0.0,0.0,0.0,0.0,0.0,0.0,0.0,0.0,0.0,0.0,0.0,0.0,0.0,0.0,0.0,0.0,0.0,0.0,0.0,0.0,0.0,0.0,0.0,0.0,0.0,0.0,0.0,0.0,0.0,0.0,0.0,0.0,0.0,0.0,0.0,0.0,0.0,0.0,0.0,0.0,0.0,0.0,0.0,0.0,0.0,0.0,0.0,0.0,0.0,0.0,0.0,0.0,0.0,0.0,0.0,0.0,0.0,0.0,0.0,0.0,0.0,0.0,0.0,0.0,0.0,0.0,0.0,0.0,0.0,0.0,0.0,0.0,0.0,0.0,0.0,0.0,0.0,0.0,0.0,0.0,0.0,0.0,0.0,0.0,0.0,0.0,0.0,0.0,0.0,0.0,0.0,0.0,0.0,0.0,0.0,0.0,0.0,0.0,0.0,0.0,0.0,0.0,0.0,0.0,0.0,0.0,0.0,0.0,0.0,0.0,0.0,0.0,0.0,0.0,0.0,0.0,0.0,0.0,0.0,0.0,0.0,0.0,0.0,0.0,0.0,0.0,0.0,0.0,0.0,0.0,0.0,0.0,0.0,0.0,0.0,0.0,0.0,0.0,0.0,0.0,0.0,0.0,0.0,0.0,0.0,0.0,0.0,0.0,0.0,0.0,0.0,0.0,0.0,0.0,0.0,0.0,0.0,0.0,0.0,0.0,0.0,0.0,0.0,0.0,0.0,0.0,0.0,0.0,0.0,0.0,0.0,0.0,0.0,0.0,0.0,0.0,0.0,0.0,0.0,0.0,0.0,0.0,0.0,0.0,0.0,0.0,0.0,0.0,0.0,0.0,0.0,0.0,0.0,0.0,0.0,0.0,0.0,0.0,0.0,0.0,0.0,0.0,0.0,0.0,0.0,0.0,0.0,0.0,0.0,0.0,0.0,0.0,0.0,0.0,0.0,0.0,0.0,0.0,0.0,0.0,0.0,0.0,0.0,0.0,0.0,0.0,0.0,0.0,0.0,0.0,0.0,0.0,0.0,0.0,0.0,0.0,0.0,0.0,0.0,0.0,0.0,0.0,0.0,0.0,0.0,0.0,0.0,0.0,0.0,0.0,0.0,0.0,0.0,0.0,0.0,0.0,0.0,0.0,0.0,0.0,0.0,0.0,0.0,0.0,0.0,0.0,0.0,0.0,0.0,0.0,0.0,0.0,0.0,0.0,0.0,0.0,0.0,0.0,0.0,0.0,0.0,0.0,0.0,0.0,0.0,0.0,0.0,0.0,0.0,0.0,0.0,0.0,0.0,0.0,0.0,0.0,0.0,0.0,0.0,0.0,0.0,0.0,0.0,0.0,0.0,0.0,0.0,0.0,0.0,0.0,0.0,0.0,0.0,0.0,0.0,0.0,0.0,0.0,0.0,0.0,0.0,0.0,0.0,0.0,0.0,0.0,0.0,0.0,0.0,0.0,0.0,0.0,0.0,0.0,0.0,0.0,0.0,0.0,0.0,0.0,0.0,0.0,0.0,0.0,0.0,0.0,0.0,0.0,0.0,0.0,0.0,0.0,0.0,0.0,0.0,0.0,0.0,0.0,0.0,0.0,0.0,0.0,0.0,0.0,0.0,0.0,0.0,0.0,0.0,0.0,0.0,0.0,0.0,0.0,0.0,0.0,0.0,0.0,0.0,0.0,0.0,0.0,0.0,0.0,0.0,0.0,0.0,0.0,0.0,0.0,0.0,0.0,0.0,0.0,0.0,0.0,0.0,0.0,0.0,0.0,0.0,0.0,0.0,0.0,0.0,0.0,0.0,0.0,0.0,0.0,0.0,0.0,0.0,0.0,0.0,0.0,0.0,0.0,0.0,0.0,0.0,0.0,0.0,0.0,0.0,0.0,0.0,0.0,0.0,0.0,0.0,0.0,0.0,0.0,0.0,0.0,0.0,0.0,0.0,0.0,0.0,0.0,0.0,0.0,0.0,0.0,0.0,0.0,0.0,0.0,0.0,0.0,0.0,0.0,0.0,0.0,0.0,0.0,0.0,0.0,0.0,0.0,0.0,0.0,0.0,0.0,0.0,0.0,0.0,0.0,0.0,0.0,0.0,0.0,0.0,0.0,0.0,0.0,0.0,0.0,0.0,0.0,0.0,0.0,0.0,0.0,0.0,0.0,0.0,0.0,0.0,0.0,0.0,0.0,0.0,0.0,0.0,0.0,0.0,0.0,0.0,0.0,0.0,0.0,0.0,0.0,0.0,0.0,0.0,0.0,0.0,0.0,0.0,0.0,0.0,0.0,0.0,0.0,0.0,0.0,0.0,0.0,0.0,0.0,0.0,0.0,0.0,0.0,0.0,0.0,0.0,0.0,0.0,0.0,0.0,0.0,0.0,0.0,0.0,0.0,0.0,0.0,0.0,0.0,0.0,0.0,0.0,0.0,0.0,0.0,0.0,0.0,0.0,0.0,0.0,0.0,0.0,0.0,0.0,0.0,0.0,0.0,0.0,0.0,0.0,0.0,0.0,0.0,0.0,0.0,0.0,0.0,0.0,0.0,0.0,0.0,0.0,0.0,0.0,0.0,0.0,0.0,0.0,0.0,0.0,0.0,0.0,0.0,0.0,0.0,0.0,0.0,0.0,0.0,0.0,0.0,0.0,0.0,0.0,0.0,0.0,0.0,0.0,0.0,0.0,0.0,0.0,0.0,0.0,0.0,0.0,0.0,0.0,0.0,0.0,0.0,0.0,0.0,0.0,0.0,0.0,0.0,0.0,0.0,0.0,0.0,0.0,0.0,0.0,0.0,0.0,0.0,0.0,0.0,0.0,0.0,0.0,0.0,0.0,0.0,0.0,0.0,0.0,0.0,0.0,0.0,0.0,0.0,0.0,0.0,0.0,0.0,0.0,0.0,0.0,0.0,0.0,0.0,0.0,0.0,0.0,0.0,0.0,0.0,0.0,0.0,0.0,0.0,0.0,0.0,0.0,0.0,0.0,0.0,0.0,0.0,0.0,0.0,0.0,0.0,0.0,0.0,0.0,0.0,0.0,0.0,0.0,0.0,0.0,0.0,0.0,0.0,0.0,0.0,0.0,0.0,0.0,0.0,0.0,0.0,0.0,0.0,0.0,0.0,0.0,0.0,0.0,0.0,0.0,0.0,0.0,0.0,0.0,0.0,0.0,0.0,0.0,0.0,0.0,0.0,0.0,0.0,0.0,0.0,0.0,0.0,0.0,0.0,0.0,0.0,0.0,0.0,0.0,0.0,0.0,0.0,0.0,0.0,0.0,0.0,0.0,0.0,0.0,0.0,0.0,0.0,0.0,0.0,0.0,0.0,0.0,0.0,0.0,0.0,0.0,0.0,0.0,0.0,0.0,0.0,0.0,0.0,0.0,0.0,0.0,0.0,0.0,0.0,0.0,0.0,0.0,0.0,0.0,0.0,0.0,0.0,0.0,0.0,0.0,-2.2458,0.0,0.0,0.0,0.0,0.0,0.0,0.0,0.0,0.0,0.0,0.0,0.0,0.0,0.0,0.0,0.0,0.0,0.0,0.0,0.0,0.0,0.0,0.0,0.0,0.0,0.0,0.0,0.0,0.0,0.0,0.0,0.0,0.0,0.0,0.0,0.0,0.0,0.0,0.0,0.0,0.0,0.0,0.0,0.0,0.0,0.0,0.0,0.0,0.0,0.0,0.0,0.0,0.0,0.0,0.0,0.0,0.0,0.0,0.0,0.0,0.0,0.0,0.0,0.0,0.0,0.0,0.0,0.0,0.0,0.0,0.0,0.0,0.0,0.0,0.0,0.0,0.0,0.0,0.0,0.0,0.0,0.0,0.0,0.0,0.0,0.0,0.0,0.0,0.0,0.0,0.0,0.0,0.0,0.0,0.0,0.0,0.0,0.0,0.0,0.0,0.0,0.0,0.0,0.0,0.0,0.0,0.0,0.0,0.0,0.0,-2.0266,-2.1247,-2.1597,-2.21,-2.2792,0.0,0.0,0.0,0.0,0.0,0.0,0.0,0.0,0.0,0.0,0.0,0.0,0.0,0.0,0.0,0.0,0.0,0.0,0.0,0.0,0.0,0.0,0.0,0.0,0.0,0.0,0.0,0.0,0.0,0.0,0.0,0.0,0.0,0.0,0.0,0.0,0.0,0.0,0.0,0.0,0.0,0.0,0.0,0.0,0.0,0.0,0.0,0.0,0.0,0.0,0.0,0.0,0.0,0.0,0.0,0.0,0.0,0.0,0.0,0.0,0.0,0.0,0.0,0.0,0.0,0.0,0.0,0.0,0.0,0.0,0.0,0.0,0.0,0.0,0.0,0.0,0.0,0.0,0.0,0.0,0.0,0.0,0.0,0.0,0.0,0.0,0.0,0.0,0.0,0.0,0.0,0.0,0.0,0.0,0.0,0.0,0.0,0.0,0.0,0.0,0.0,0.0,0.0,0.0,0.0,0.0,0.0,0.0,0.0,0.0,0.0,0.0,-2.1555,-2.2075,-2.304,0.0,0.0,0.0,0.0,0.0,0.0,0.0,0.0,0.0,0.0,0.0,0.0,0.0,0.0,0.0,0.0,0.0,0.0,0.0,0.0,0.0,0.0,0.0,0.0,0.0,0.0,0.0,0.0,0.0,0.0,0.0,0.0,0.0,0.0,0.0,0.0,0.0,0.0,0.0,0.0,0.0,0.0,0.0,0.0,0.0,0.0,0.0,0.0,0.0,0.0,0.0,0.0,0.0,0.0,0.0,0.0,0.0,0.0,0.0,0.0,0.0,0.0,0.0,0.0,0.0,0.0,0.0,0.0,0.0,0.0,0.0,0.0,0.0,0.0,0.0,0.0,0.0,0.0,0.0,0.0,0.0,0.0,0.0,0.0,0.0,0.0,0.0,0.0,0.0,0.0,0.0,0.0,0.0,0.0,0.0,0.0,0.0,0.0,0.0,0.0,0.0,0.0,0.0,0.0,0.0,0.0,0.0,0.0,0.0,0.0,-2.0543,-2.1107,-2.1892,0.0,-2.3005,0.0,0.0,0.0,0.0,0.0,0.0,0.0,0.0,0.0,0.0,0.0,0.0,0.0,0.0,0.0,0.0,0.0,0.0,0.0,0.0,0.0,0.0,0.0,0.0,0.0,0.0,0.0,0.0,0.0,0.0,0.0,0.0,0.0,0.0,0.0,0.0,0.0,0.0,0.0,0.0,0.0,0.0,0.0,0.0,0.0,0.0,0.0,0.0,0.0,0.0,0.0,0.0,0.0,0.0,0.0,0.0,0.0,0.0,0.0,0.0,0.0,0.0,0.0,0.0,0.0,0.0,0.0,0.0,0.0,0.0,0.0,0.0,0.0,0.0,0.0,0.0,0.0,0.0,0.0,0.0,0.0,0.0,0.0,0.0,0.0,0.0,0.0,0.0,0.0,0.0,0.0,0.0,0.0,0.0,0.0,0.0,0.0,0.0,0.0,0.0,0.0,0.0,0.0,0.0,0.0,0.0,0.0,0.0,0.0,0.0,-2.0537,-2.1112,-2.1797,-2.2156,0.0,0.0,0.0,0.0,0.0,0.0,0.0,0.0,0.0,0.0,0.0,0.0,0.0,0.0,0.0,0.0,0.0,0.0,0.0,0.0,0.0,0.0,0.0,0.0,0.0,0.0,0.0,0.0,0.0,0.0,0.0,0.0,0.0,0.0,0.0,0.0,0.0,0.0,0.0,0.0,0.0,0.0,0.0,0.0,0.0,0.0,0.0,0.0,0.0,0.0,0.0,0.0,0.0,0.0,0.0,0.0,0.0,0.0,0.0,0.0,0.0,0.0,0.0,0.0,0.0,0.0,0.0,0.0,0.0,0.0,0.0,0.0,0.0,0.0,0.0,0.0,0.0,0.0,0.0,0.0,0.0,0.0,0.0,0.0,0.0,0.0,0.0,0.0,0.0,0.0,0.0,0.0,0.0,0.0,0.0,0.0,0.0,0.0,0.0,0.0,0.0,0.0,0.0,0.0,0.0,0.0,0.0,0.0,0.0,0.0,-1.9611,-2.0415,-2.1174,-2.1357,-2.1578,-2.1795,0.0,0.0,0.0,0.0,0.0,0.0,0.0,0.0,0.0,0.0,0.0,0.0,0.0,0.0,0.0,0.0,0.0,0.0,0.0,0.0,0.0,0.0,0.0,0.0,0.0,0.0,0.0,0.0,0.0,0.0,0.0,0.0,0.0,0.0,0.0,0.0,0.0,0.0,0.0,0.0,0.0,0.0,0.0,0.0,0.0,0.0,0.0,0.0,0.0,0.0,0.0,0.0,0.0,0.0,0.0,0.0,0.0,0.0,0.0,0.0,0.0,0.0,0.0,0.0,0.0,0.0,0.0,0.0,0.0,0.0,0.0,0.0,0.0,0.0,0.0,0.0,0.0,0.0,0.0,0.0,0.0,0.0,0.0,0.0,0.0,0.0,0.0,0.0,0.0,0.0,0.0,0.0,0.0,0.0,0.0,0.0,0.0,0.0,0.0,0.0,0.0,0.0,0.0,0.0,0.0,0.0,0.0,0.0,-1.8509,-1.9146,-1.9983,-2.111,-2.0581,-2.076,0.0,0.0,0.0,0.0,0.0,0.0,0.0,0.0,0.0,0.0,0.0,0.0,0.0,0.0,0.0,0.0,0.0,0.0,0.0,0.0,0.0,0.0,0.0,0.0,0.0,0.0,0.0,0.0,0.0,0.0,0.0,0.0,0.0,0.0,0.0,0.0,0.0,0.0,0.0,0.0,0.0,0.0,0.0,0.0,0.0,0.0,0.0,0.0,0.0,0.0,0.0,0.0,0.0,0.0,0.0,0.0,0.0,0.0,0.0,0.0,0.0,0.0,0.0,0.0,0.0,0.0,0.0,0.0,0.0,0.0,0.0,0.0,0.0,0.0,0.0,0.0,0.0,0.0,0.0,0.0,0.0,0.0,0.0,0.0,0.0,0.0,0.0,0.0,0.0,0.0,0.0,0.0,0.0,0.0,0.0,0.0,0.0,0.0,0.0,0.0,0.0,0.0,0.0,0.0,0.0,0.0,0.0,0.0,0.0,-1.7955,-1.8492,-1.9154,-1.9759,-1.9845,-2.0276,0.0,0.0,0.0,0.0,0.0,0.0,0.0,0.0,0.0,0.0,0.0,0.0,0.0,0.0,0.0,0.0,0.0,0.0,0.0,0.0,0.0,0.0,0.0,0.0,0.0,0.0,0.0,0.0,0.0,0.0,0.0,0.0,0.0,0.0,0.0,0.0,0.0,0.0,0.0,0.0,0.0,0.0,0.0,0.0,0.0,0.0,0.0,0.0,0.0,0.0,0.0,0.0,0.0,0.0,0.0,0.0,0.0,0.0,0.0,0.0,0.0,0.0,0.0,0.0,0.0,0.0,0.0,0.0,0.0,0.0,0.0,0.0,0.0,0.0,0.0,0.0,0.0,0.0,0.0,0.0,0.0,0.0,0.0,0.0,0.0,0.0,0.0,0.0,0.0,0.0,0.0,0.0,0.0,0.0,0.0,0.0,0.0,0.0,0.0,0.0,0.0,0.0,0.0,0.0,0.0,0.0,0.0,0.0,0.0,-1.7466,0.0,-1.8268,-1.8673,-1.8954,-1.9512,0.0,0.0,0.0,0.0,0.0,0.0,0.0,0.0,0.0,0.0,0.0,0.0,0.0,0.0,0.0,0.0,0.0,0.0,0.0,0.0,0.0,0.0,0.0,0.0,0.0,0.0,0.0,0.0,0.0,0.0,0.0,0.0,0.0,0.0,0.0,0.0,0.0,0.0,0.0,0.0,0.0,0.0,0.0,0.0,0.0,0.0,0.0,0.0,0.0,0.0,0.0,0.0,0.0,0.0,0.0,0.0,0.0,0.0,0.0,0.0,0.0,0.0,0.0,0.0,0.0,0.0,0.0,0.0,0.0,0.0,0.0,0.0,0.0,0.0,0.0,0.0,0.0,0.0,0.0,0.0,0.0,0.0,0.0,0.0,0.0,0.0,0.0,0.0,0.0,0.0,0.0,0.0,0.0,0.0,0.0,0.0,0.0,0.0,0.0,0.0,0.0,0.0,0.0,0.0,0.0,0.0,0.0,0.0,-1.7184,-1.7092,-1.7074,-1.736,-1.7944,-1.7983,-1.8536,0.0,0.0,0.0,0.0,0.0,0.0,0.0,0.0,0.0,0.0,0.0,0.0,0.0,0.0,0.0,0.0,0.0,0.0,0.0,0.0,0.0,0.0,0.0,0.0,0.0,0.0,0.0,0.0,0.0,0.0,0.0,0.0,0.0,0.0,0.0,0.0,0.0,0.0,0.0,0.0,0.0,0.0,0.0,0.0,0.0,0.0,0.0,0.0,0.0,0.0,0.0,0.0,0.0,0.0,0.0,0.0,0.0,0.0,0.0,0.0,0.0,0.0,0.0,0.0,0.0,0.0,0.0,0.0,0.0,0.0,0.0,0.0,0.0,0.0,0.0,0.0,0.0,0.0,0.0,0.0,0.0,0.0,0.0,0.0,0.0,0.0,0.0,0.0,0.0,0.0,0.0,0.0,0.0,0.0,0.0,0.0,0.0,0.0,0.0,0.0,0.0,0.0,0.0,0.0,0.0,0.0,0.0,0.0,0.0,-1.6453,-1.6301,-1.6292,-1.6482,-1.7247,-1.7895,0.0,0.0,0.0,0.0,0.0,0.0,0.0,0.0,0.0,0.0,0.0,0.0,0.0,0.0,0.0,0.0,0.0,0.0,0.0,0.0,0.0,0.0,0.0,0.0,0.0,0.0,0.0,0.0,0.0,0.0,0.0,0.0,0.0,0.0,0.0,0.0,0.0,0.0,0.0,0.0,0.0,0.0,0.0,0.0,0.0,0.0,0.0,0.0,0.0,0.0,0.0,0.0,0.0,0.0,0.0,0.0,0.0,0.0,0.0,0.0,0.0,0.0,0.0,0.0,0.0,0.0,0.0,0.0,0.0,0.0,0.0,0.0,0.0,0.0,0.0,0.0,0.0,0.0,0.0,0.0,0.0,0.0,0.0,0.0,0.0,0.0,0.0,0.0,0.0,0.0,0.0,0.0,0.0,0.0,0.0,0.0,0.0,0.0,0.0,0.0,0.0,0.0,0.0,0.0,0.0,0.0,0.0,0.0,0.0,-1.5882,-1.5789,-1.5677,-1.5586,-1.6484,-1.7249,-1.7802,0.0,0.0,0.0,0.0,0.0,0.0,0.0,0.0,0.0,0.0,0.0,0.0,0.0,0.0,0.0,0.0,0.0,0.0,0.0,0.0,0.0,0.0,0.0,0.0,0.0,0.0,0.0,0.0,0.0,0.0,0.0,0.0,0.0,0.0,0.0,0.0,0.0,0.0,0.0,0.0,0.0,0.0,0.0,0.0,0.0,0.0,0.0,0.0,0.0,0.0,0.0,0.0,0.0,0.0,0.0,0.0,0.0,0.0,0.0,0.0,0.0,0.0,0.0,0.0,0.0,0.0,0.0,0.0,0.0,0.0,0.0,0.0,0.0,0.0,0.0,0.0,0.0,0.0,0.0,0.0,0.0,0.0,0.0,0.0,0.0,0.0,0.0,0.0,0.0,0.0,0.0,0.0,0.0,0.0,0.0,0.0,0.0,0.0,0.0,0.0,0.0,0.0,0.0,0.0,0.0,0.0,0.0,0.0,-1.5225,-1.553,-1.5541,-1.5241,-1.5864,-1.6611,0.0,0.0,0.0,0.0,0.0,0.0,0.0,0.0,0.0,0.0,0.0,0.0,0.0,0.0,0.0,0.0,0.0,0.0,0.0,0.0,0.0,0.0,0.0,0.0,0.0,0.0,0.0,0.0,0.0,0.0,0.0,0.0,0.0,0.0,0.0,0.0,0.0,0.0,0.0,0.0,0.0,0.0,0.0,0.0,0.0,0.0,0.0,0.0,0.0,0.0,0.0,0.0,0.0,0.0,0.0,0.0,0.0,0.0,0.0,0.0,0.0,0.0,0.0,0.0,0.0,0.0,0.0,0.0,0.0,0.0,0.0,0.0,0.0,0.0,0.0,0.0,0.0,0.0,0.0,0.0,0.0,0.0,0.0,0.0,0.0,0.0,0.0,0.0,0.0,0.0,0.0,0.0,0.0,0.0,0.0,0.0,0.0,0.0,0.0,0.0,0.0,0.0,0.0,0.0,0.0,0.0,0.0,0.0,0.0,-1.4396,-1.4935,-1.5242,-1.5199,-1.5864,-1.6388,0.0,0.0,0.0,0.0,0.0,0.0,0.0,0.0,0.0,0.0,0.0,0.0,0.0,0.0,0.0,0.0,0.0,0.0,0.0,0.0,0.0,0.0,0.0,0.0,0.0,0.0,0.0,0.0,0.0,0.0,0.0,0.0,0.0,0.0,0.0,0.0,0.0,0.0,0.0,0.0,0.0,0.0,0.0,0.0,0.0,0.0,0.0,0.0,0.0,0.0,0.0,0.0,0.0,0.0,0.0,0.0,0.0,0.0,0.0,0.0,0.0,0.0,0.0,0.0,0.0,0.0,0.0,0.0,0.0,0.0,0.0,0.0,0.0,0.0,0.0,0.0,0.0,0.0,0.0,0.0,0.0,0.0,0.0,0.0,0.0,0.0,0.0,0.0,0.0,0.0,0.0,0.0,0.0,0.0,0.0,0.0,0.0,0.0,0.0,0.0,0.0,0.0,0.0,0.0,0.0,0.0,0.0,0.0,-1.436,-1.4265,-1.469,-1.5041,-1.5316,-1.5743,-1.6169,0.0,0.0,0.0,0.0,0.0,0.0,0.0,0.0,0.0,0.0,0.0,0.0,0.0,0.0,0.0,0.0,0.0,0.0,0.0,0.0,0.0,0.0,0.0,0.0,0.0,0.0,0.0,0.0,0.0,0.0,0.0,0.0,0.0,0.0,0.0,0.0,0.0,0.0,0.0,0.0,0.0,0.0,0.0,0.0,0.0,0.0,0.0,0.0,0.0,0.0,0.0,0.0,0.0,0.0,0.0,0.0,0.0,0.0,0.0,0.0,0.0,0.0,0.0,0.0,0.0,0.0,0.0,0.0,0.0,0.0,0.0,0.0,0.0,0.0,0.0,0.0,0.0,0.0,0.0,0.0,0.0,0.0,0.0,0.0,0.0,0.0,0.0,0.0,0.0,0.0,0.0,0.0,0.0,0.0,0.0,0.0,0.0,0.0,0.0,0.0,0.0,0.0,0.0,0.0,0.0,0.0,0.0,0.0,-1.4026,-1.4461,-1.4476,-1.4756,-1.5252,-1.558,-1.5874,0.0,0.0,0.0,0.0,0.0,0.0,0.0,0.0,0.0,0.0,0.0,0.0,0.0,0.0,0.0,0.0,0.0,0.0,0.0,0.0,0.0,0.0,0.0,0.0,0.0,0.0,0.0,0.0,0.0,0.0,0.0,0.0,0.0,0.0,0.0,0.0,0.0,0.0,0.0,0.0,0.0,0.0,0.0,0.0,0.0,0.0,0.0,0.0,0.0,0.0,0.0,0.0,0.0,0.0,0.0,0.0,0.0,0.0,0.0,0.0,0.0,0.0,0.0,0.0,0.0,0.0,0.0,0.0,0.0,0.0,0.0,0.0,0.0,0.0,0.0,0.0,0.0,0.0,0.0,0.0,0.0,0.0,0.0,0.0,0.0,0.0,0.0,0.0,0.0,0.0,0.0,0.0,0.0,0.0,0.0,0.0,0.0,0.0,0.0,0.0,0.0,0.0,0.0,0.0,0.0,0.0,0.0,0.0,-1.3268,-1.349,-1.3748,-1.4149,-1.4592,-1.5317,-1.5875,0.0,0.0,0.0,0.0,0.0,0.0,0.0,0.0,0.0,0.0,0.0,0.0,0.0,0.0,0.0,0.0,0.0,0.0,0.0,0.0,0.0,0.0,0.0,0.0,0.0,0.0,0.0,0.0,0.0,0.0,0.0,0.0,0.0,0.0,0.0,0.0,0.0,0.0,0.0,0.0,0.0,0.0,0.0,0.0,0.0,0.0,0.0,0.0,-0.1776,0.0,0.0,0.0,0.0,0.0,0.0,0.0,0.0,0.0,0.0,0.0,0.0,0.0,0.0,0.0,0.0,0.0,0.0,0.0,0.0,0.0,0.0,0.0,0.0,0.0,0.0,0.0,0.0,0.0,0.0,0.0,0.0,0.0,0.0,0.0,0.0,0.0,0.0,0.0,0.0,0.0,0.0,0.0,0.0,0.0,0.0,0.0,0.0,0.0,0.0,0.0,0.0,0.0,0.0,0.0,0.0,0.0,0.0,0.0,-1.2907,-1.3085,-1.3315,-1.3602,-1.3972,-1.4639,-1.5183,0.0,0.0,0.0,0.0,0.0,0.0,0.0,0.0,0.0,0.0,0.0,0.0,0.0,0.0,0.0,0.0,0.0,0.0,0.0,0.0,0.0,0.0,0.0,0.0,0.0,0.0,0.0,0.0,0.0,0.0,0.0,0.0,0.0,0.0,0.0,0.0,0.0,0.0,0.0,0.0,0.0,0.0,0.0,0.0,0.0,0.0,0.0,0.0,0.0,0.0,0.0,0.0,0.0,0.0,0.0,0.0,0.0,0.0,0.0,0.0,0.0,0.0,0.0,0.0,0.0,0.0,0.0,0.0,0.0,0.0,0.0,0.0,0.0,0.0,0.0,0.0,0.0,0.0,0.0,0.0,0.0,0.0,0.0,0.0,0.0,0.0,0.0,0.0,0.0,0.0,0.0,0.0,0.0,0.0,0.0,0.0,0.0,0.0,0.0,0.0,0.0,0.0,0.0,0.0,0.0,0.0,0.0,-1.2774,-1.2547,-1.2737,-1.2885,-1.3058,-1.3255,-1.3773,-1.4162,-1.4607,0.0,0.0,0.0,0.0,0.0,0.0,0.0,0.0,0.0,0.0,0.0,0.0,0.0,0.0,0.0,0.0,0.0,0.0,0.0,0.0,0.0,0.0,0.0,0.0,0.0,0.0,0.0,0.0,0.0,0.0,0.0,0.0,0.0,0.0,0.0,0.0,0.0,0.0,-0.203,-0.1286,0.0,0.0,0.0,0.0,0.0,0.0,0.0,0.0,-0.0785,0.0,0.0,0.0,0.0,0.0,0.0,0.0,0.0,0.0,0.0,0.0,0.0,0.0,0.0,0.0,0.0,0.0,0.0,0.0,0.0,0.0,0.0,0.0,0.0,0.0,0.0,0.0,0.0,0.0,0.0,0.0,0.0,0.0,0.0,0.0,0.0,0.0,0.0,0.0,0.0,0.0,0.0,0.0,0.0,0.0,0.0,0.0,0.0,0.0,0.0,0.0,0.0,0.0,0.0,0.0,0.0,-1.3103,-1.2197,-1.1778,-1.1765,-1.1667,-1.1841,-1.2258,-1.2842,-1.3306,-1.3764,0.0,0.0,0.0,0.0,0.0,0.0,0.0,0.0,0.0,0.0,0.0,0.0,0.0,0.0,0.0,0.0,0.0,0.0,0.0,0.0,0.0,0.0,0.0,0.0,0.0,0.0,0.0,0.0,0.0,0.0,0.0,0.0,0.0,0.0,0.0,0.0,0.0,0.0,0.0,-0.068,-0.0404,0.0,0.0,0.0,0.0,0.0,0.0,0.0,0.0,-0.028,0.0,0.0,0.0,0.0,0.0,0.0,0.0,0.0,0.0,0.0,0.0,0.0,0.0,0.0,0.0,0.0,0.0,0.0,0.0,0.0,0.0,0.0,0.0,0.0,0.0,0.0,0.0,0.0,0.0,0.0,0.0,0.0,0.0,0.0,0.0,0.0,0.0,0.0,0.0,0.0,0.0,0.0,0.0,0.0,0.0,0.0,0.0,0.0,0.0,0.0,0.0,0.0,0.0,0.0,0.0,-1.2956,-1.2082,-1.1557,-1.1378,-1.1134,-1.113,-1.1394,-1.2047,-1.257,0.0,0.0,0.0,0.0,0.0,0.0,0.0,0.0,0.0,0.0,0.0,0.0,0.0,0.0,0.0,0.0,0.0,0.0,0.0,0.0,0.0,0.0,0.0,0.0,0.0,0.0,0.0,0.0,0.0,0.0,0.0,0.0,0.0,0.0,0.0,0.0,0.0,0.0,0.0,0.0,-0.0058,0.0469,0.0774,0.0,0.0,0.0,0.0,0.0,0.0,0.0909,0.085,0.0,0.0,0.0,0.0,0.0,0.0,0.0,0.0,0.0,0.0,0.0,0.0,0.0,0.0,0.0,0.0,0.0,0.0,0.0,0.0,0.0,0.0,0.0,0.0,0.0,0.0,0.0,0.0,0.0,0.0,0.0,0.0,0.0,0.0,0.0,0.0,0.0,0.0,0.0,0.0,0.0,0.0,0.0,0.0,0.0,0.0,0.0,0.0,0.0,0.0,0.0,0.0,0.0,0.0,0.0,-1.2857,-1.2007,-1.139,-1.1193,-1.0789,-1.0607,-1.0725,-1.1371,-1.1957,0.0,0.0,0.0,0.0,0.0,0.0,0.0,0.0,0.0,0.0,0.0,0.0,0.0,0.0,0.0,0.0,0.0,0.0,0.0,0.0,0.0,0.0,0.0,0.0,0.0,0.0,0.0,0.0,0.0,0.0,0.0,0.0,0.0,0.0,0.0,0.0,0.0,0.0,0.0,0.0,0.0,0.1246,0.1753,0.1814,0.0,0.0,0.0,0.0,0.2142,0.2247,0.0,0.0,0.0,0.0,0.0,0.0,0.0,0.0,0.0,0.0,0.0,0.0,0.0,0.0,0.0,0.0,0.0,0.0,0.0,0.0,0.0,0.0,0.0,0.0,0.0,0.0,0.0,0.0,0.0,0.0,0.0,0.0,0.0,0.0,0.0,0.0,0.0,0.0,0.0,0.0,0.0,0.0,0.0,0.0,0.0,0.0,0.0,0.0,0.0,0.0,0.0,0.0,0.0,0.0,0.0,0.0,-1.2599,-1.1653,-1.1039,-1.0831,-1.0243,-1.0065,-1.0361,-1.0899,-1.1586,0.0,0.0,0.0,0.0,0.0,0.0,0.0,0.0,0.0,0.0,0.0,0.0,0.0,0.0,0.0,0.0,0.0,0.0,0.0,0.0,0.0,0.0,0.0,0.0,0.0,0.0,0.0,0.0,0.0,0.0,0.0,0.0,0.0,0.0,0.0,0.0,0.0,0.0,0.0,0.0,0.0,0.1787,0.2697,0.2858,0.2951,0.0,0.0,0.3178,0.323,0.3365,0.0,0.0,0.0,0.0,0.0,0.0,0.0,0.0,0.0,0.0,0.0,0.0,0.0,0.0,0.0,0.0,0.0,0.0,0.0,0.0,0.0,0.0,0.0,0.0,0.0,0.0,0.0,0.0,0.0,0.0,0.0,0.0,0.0,0.0,0.0,0.0,0.0,0.0,0.0,0.0,0.0,0.0,0.0,0.0,0.0,0.0,0.0,0.0,0.0,0.0,0.0,0.0,0.0,0.0,0.0,-1.2495,-1.2288,-1.1526,-1.0926,-1.0532,-1.0065,-0.9883,-1.0001,-1.0703,-1.1343,0.0,0.0,0.0,0.0,0.0,0.0,0.0,0.0,0.0,0.0,0.0,0.0,0.0,0.0,0.0,0.0,0.0,0.0,0.0,0.0,0.0,0.0,0.0,0.0,0.0,0.0,0.0,0.0,0.0,0.0,0.0,0.0,0.0,0.0,0.0,0.0,0.0,0.0,0.0,0.0,0.0,0.0,0.3376,0.386,0.0,0.0,0.0,0.4681,0.4724,0.0,0.0,0.0,0.0,0.0,0.0,0.0,0.0,0.0,0.0,0.0,0.0,0.0,0.0,0.0,0.0,0.0,0.0,0.0,0.0,0.0,0.0,0.0,0.0,0.0,0.0,0.0,0.0,0.0,0.0,0.0,0.0,0.0,0.0,0.0,0.0,0.0,0.0,0.0,0.0,0.0,0.0,0.0,0.0,0.0,0.0,0.0,0.0,0.0,0.0,0.0,0.0,0.0,0.0,0.0,0.0,0.0,-1.1942,-1.1391,-1.0805,-1.035,-0.994,-0.9819,-0.9815,-1.0586,0.0,0.0,0.0,0.0,0.0,0.0,0.0,0.0,0.0,0.0,0.0,0.0,0.0,0.0,0.0,0.0,0.0,0.0,0.0,0.0,0.0,0.0,0.0,0.0,0.0,0.0,0.0,-0.7988,0.0,0.0,0.0,0.0,0.0,0.0,0.0,0.0,0.0,0.0,0.0,0.0,0.0,0.0,0.3098,0.4071,0.4832,0.5511,0.0,0.0,0.5988,0.6081,0.6153,0.592,0.0,0.0,0.0,0.0,0.0,0.0,0.0,0.0,0.0,0.0,0.0,0.0,0.0,0.0,0.0,0.0,0.0,0.0,0.0,0.0,0.0,0.0,0.0,0.0,0.0,0.0,0.0,0.0,0.0,0.0,0.0,0.0,0.0,0.0,0.0,0.0,0.0,0.0,0.0,0.0,0.0,0.0,0.0,0.0,0.0,0.0,0.0,0.0,0.0,0.0,0.0,0.0,0.0,0.0,-1.224,-1.1463,-1.1211,-1.0805,-1.029,-0.994,-0.9819,-0.9815,-1.0413,-1.091,0.0,0.0,0.0,0.0,0.0,0.0,0.0,0.0,0.0,0.0,0.0,0.0,0.0,0.0,0.0,0.0,0.0,0.0,0.0,0.0,0.0,0.0,0.0,0.0,0.0,0.0,0.0,0.0,0.0,0.0,0.0,0.0,0.0,0.0,0.0,0.0,0.0,0.0,0.0,0.0,0.0,0.3766,0.4877,0.5849,0.6603,0.0,0.7043,0.695,0.6844,0.6749,0.6588,0.6057,0.0,0.0,0.0,0.0,0.0,0.0,0.0,0.0,0.0,0.0,0.0,0.0,0.0,0.0,0.0,0.0,0.0,0.0,0.0,0.0,0.0,0.0,0.0,0.0,0.0,0.0,0.0,0.0,0.0,0.0,0.0,0.0,0.0,0.0,0.0,0.0,0.0,0.0,0.0,0.0,0.0,0.0,0.0,0.0,0.0,0.0,0.0,0.0,0.0,0.0,0.0,0.0,0.0,-1.1753,-1.1114,-1.0924,-1.0575,-1.0048,-0.9883,-0.9819,-0.9819,-1.0413,-1.0681,0.0,0.0,0.0,0.0,0.0,0.0,0.0,0.0,0.0,0.0,0.0,0.0,0.0,0.0,0.0,0.0,0.0,0.0,0.0,0.0,0.0,0.0,0.0,0.0,0.0,0.0,0.0,0.0,-0.7141,-0.6639,-0.5839,0.0,0.0,0.0,0.0,0.0,0.0,0.0,0.0,0.0,0.0,0.435,0.5436,0.6273,0.0,0.0,0.7383,0.7331,0.7222,0.7411,0.74,0.6791,0.666,0.0,0.0,0.0,0.0,0.0,0.0,0.0,0.0,0.0,0.0,0.0,0.0,0.0,0.0,0.0,0.0,0.0,0.0,0.0,0.0,0.0,0.0,0.0,0.0,0.0,0.0,0.0,0.0,0.0,0.0,0.0,0.0,0.0,0.0,0.0,0.0,0.0,0.0,0.0,0.0,0.0,0.0,0.0,0.0,0.0,0.0,0.0,0.0,0.0,0.0,0.0,0.0,-1.1331,-1.0684,-1.064,-1.034,-0.9815,-0.9819,-0.9819,-0.9812,-1.0174,-1.0398,0.0,0.0,0.0,0.0,0.0,0.0,0.0,0.0,0.0,0.0,0.0,0.0,0.0,0.0,0.0,0.0,0.0,0.0,0.0,0.0,0.0,0.0,0.0,0.0,0.0,0.0,0.0,0.0,-0.6639,-0.6189,-0.5539,0.0,0.0,0.0,0.0,0.0,0.0,0.0,0.0,0.0,0.0,0.5089,0.5984,0.6756,0.7316,0.7436,0.763,0.7767,0.7713,0.7918,0.7969,0.7557,0.0,0.0,0.0,0.0,0.0,0.0,0.0,0.0,0.0,0.0,0.0,0.0,0.0,0.0,0.0,0.0,0.0,0.0,0.0,0.0,0.0,0.0,0.0,0.0,0.0,0.0,0.0,-0.8471,0.0,0.0,-1.0043,0.0,0.0,0.0,0.0,0.0,0.0,0.0,0.0,0.0,0.0,0.0,0.0,0.0,0.0,0.0,0.0,0.0,0.0,0.0,0.0,0.0,0.0,-1.0909,-1.0139,-1.025,-1.0105,-0.9808,-0.9758,-0.9758,-0.9751,-0.9828,-0.9828,-0.9893,0.0,0.0,0.0,0.0,0.0,0.0,0.0,0.0,0.0,0.0,0.0,0.0,0.0,0.0,0.0,0.0,0.0,0.0,0.0,0.0,0.0,0.0,0.0,0.0,0.0,0.0,-0.6434,-0.5937,-0.5536,0.0,0.0,0.0,0.0,0.0,0.0,0.0,0.0,0.0,0.3226,0.4822,0.6016,0.6516,0.7421,0.7916,0.7609,0.7861,0.8138,0.8328,0.8208,0.8135,0.0,0.0,0.0,0.0,0.0,0.0,0.0,0.0,0.0,0.0,0.0,0.0,0.0,0.0,0.0,0.0,0.0,0.0,0.0,0.0,0.0,0.0,0.0,0.0,0.0,0.0,0.0,-0.7917,-0.8032,0.0,0.0,0.0,0.0,0.0,0.0,0.0,0.0,0.0,0.0,0.0,-1.1791,-1.1844,0.0,0.0,0.0,0.0,0.0,0.0,0.0,0.0,0.0,0.0,0.0,0.0,-1.0067,-0.9731,-0.9505,-0.9347,-0.9207,-0.922,-0.9217,-0.9217,-0.9271,-0.9296,-0.9179,0.0,0.0,0.0,0.0,0.0,0.0,0.0,0.0,0.0,0.0,0.0,0.0,0.0,0.0,0.0,0.0,0.0,0.0,0.0,0.0,0.0,0.0,0.0,0.0,0.0,-0.5691,0.0,0.0,0.0,0.0,0.0,0.0,0.0,0.0,0.0,0.0,0.0,0.2841,0.4224,0.5395,0.6304,0.6747,0.7256,0.7567,0.0,0.0,0.0,0.0,0.0,0.0,0.0,0.0,0.0,0.0,0.0,0.0,0.0,0.0,1.1001,1.0198,1.0091,1.0167,1.0402,0.0,0.0,0.0,0.0,0.0,0.0,0.0,0.0,0.0,0.0,0.0,0.0,0.0,0.0,-0.7279,0.0,-0.7927,0.0,0.0,0.0,0.0,0.0,0.0,0.0,0.0,-1.1175,-1.1194,-1.1034,-1.109,-1.1261,0.0,-1.1205,-1.1278,0.0,0.0,0.0,0.0,0.0,0.0,0.0,0.0,-0.9402,-0.9356,-0.8954,-0.876,-0.89,-0.8918,-0.8918,-0.8915,-0.884,-0.8629,-0.8387,-0.8124,-0.7802,0.0,0.0,0.0,0.0,0.0,0.0,0.0,0.0,0.0,0.0,0.0,0.0,0.0,0.0,0.0,0.0,0.0,0.0,0.0,0.0,0.0,0.0,0.0,-0.4788,0.0,0.0,0.0,0.0,0.0,0.0,0.0,0.0,0.0,0.126,0.2377,0.3648,0.492,0.5802,0.6454,0.683,0.0,0.0,0.0,0.0,0.0,0.0,0.0,1.0247,1.0265,1.072,1.1177,1.1364,1.1703,1.2275,1.3254,0.0,0.0,1.2082,1.1908,1.1989,1.2107,1.2027,1.2065,1.2603,1.2819,1.3125,0.0,0.0,0.0,0.0,0.0,0.0,0.0,0.0,-0.6343,-0.656,0.0,-0.766,0.0,0.0,0.0,0.0,0.0,-1.0068,0.0,0.0,-1.0221,-1.0231,-1.0297,-1.0536,-1.0651,-1.069,-1.0647,-1.059,-1.0617,-1.0893,0.0,0.0,0.0,0.0,0.0,0.0,-0.8871,-0.9034,-0.8615,-0.8523,-0.8845,-0.8854,-0.8854,-0.879,-0.8362,-0.7886,-0.7539,-0.6948,-0.6616,-0.6608,-0.618,0.0,0.0,0.0,0.0,0.0,0.0,0.0,0.0,0.0,0.0,0.0,0.0,0.0,0.0,0.0,0.0,0.0,0.0,0.0,0.0,-0.4138,0.0,0.0,0.0,0.0,0.0,0.0,0.0,0.0,0.0,0.0,0.2068,0.3129,0.4275,0.5301,0.0,0.0,0.0,0.0,0.7566,0.7869,0.8726,0.9576,1.0243,1.0774,1.1201,1.1508,0.0,0.0,1.3108,1.326,1.35,1.438,1.4485,1.4372,1.3948,1.388,1.3879,1.3783,1.3805,1.4015,1.4341,1.4423,1.4649,-0.4704,0.0,0.0,0.0,0.0,-0.6386,-0.6454,-0.6571,-0.6733,-0.6934,-0.7109,-0.771,0.0,0.0,0.0,0.0,0.0,0.0,-0.9841,-0.9771,-0.9943,-0.9985,-0.9839,-0.9898,-1.0012,-1.0178,-1.0091,-1.0159,-1.0368,-0.983,-0.9686,-0.9979,0.0,0.0,0.0,0.0,-0.8245,-0.8317,-0.8054,-0.7959,-0.8175,-0.8177,-0.8058,-0.7814,-0.7574,-0.7169,-0.6603,-0.6111,-0.5699,-0.5357,-0.5134,0.0,0.0,0.0,0.0,0.0,0.0,0.0,0.0,0.0,0.0,0.0,0.0,0.0,0.0,0.0,0.0,0.0,0.0,0.0,-0.3444,-0.3087,-0.2896,0.0,0.0,0.0,0.0,0.0,0.0,0.0,0.0,0.0,0.4332,0.4491,0.4958,0.0,0.0,0.6528,0.6839,0.7385,0.793,0.8477,0.9569,0.0,1.1273,1.1827,1.2333,1.264,1.3186,1.3682,1.4102,1.4167,1.442,1.5064,1.5361,1.5566,1.6024,1.5477,1.51,1.5169,1.5137,1.5052,1.5312,1.5543,1.585,-0.4171,-0.5352,-0.5489,-0.5702,-0.6045,-0.6111,-0.628,-0.646,-0.6645,-0.6857,-0.7185,-0.7638,-0.7835,-0.7965,-0.8736,0.0,0.0,0.0,-0.9646,-0.9629,-0.9756,-0.9758,-0.969,-0.9693,-0.9753,-0.9922,-0.9776,-0.9758,-0.9806,-0.9222,-0.9015,-0.9163,0.0,0.0,-0.841,-0.806,-0.7924,-0.8046,-0.7838,-0.7758,-0.7928,-0.7933,-0.775,-0.7385,-0.7074,-0.6538,-0.5893,-0.5169,-0.4603,-0.4189,-0.4093,-0.4131,0.0,0.0,0.0,0.0,0.0,0.0,0.0,0.0,0.0,0.0,0.0,-0.6402,-0.6519,0.0,0.0,0.0,-0.4311,-0.3185,-0.2512,-0.2149,0.0,0.0,0.0,0.0,0.0,0.0,0.0,0.2453,0.389,0.4998,0.548,0.5631,0.5855,0.6335,0.628,0.6344,0.6839,0.0,0.7994,0.8842,1.0119,1.1212,1.1872,1.2599,1.3204,1.3564,1.4102,1.459,1.4764,1.4888,1.5145,1.56,1.5886,1.6304,1.7099,1.6719,1.6286,1.6502,1.6271,1.6076,1.6266,1.6504,1.6861,-0.3683,-0.4762,-0.5404,-0.5655,-0.5704,-0.6059,-0.6239,-0.6246,-0.6305,-0.6654,-0.7176,-0.7413,-0.7874,-0.8439,-0.9087,0.0,-0.9381,-0.9391,-0.9473,-0.9612,-0.9622,-0.9693,-0.9819,-0.9819,-0.9758,-0.9758,-0.963,-0.9384,-0.907,-0.8942,-0.8706,-0.8341,-0.7853,-0.7726,-0.7955,-0.7756,-0.7766,-0.8045,-0.7829,-0.7766,-0.7928,-0.7861,-0.7736,-0.737,-0.675,-0.6031,-0.5228,-0.4265,-0.3561,-0.3161,-0.3008,-0.304,-0.3308,0.0,0.0,0.0,0.0,0.0,0.0,0.0,0.0,0.0,0.0,0.0,0.0,0.0,0.0,-0.444,-0.293,0.0,-0.1652,-0.1336,0.0,0.0,0.0,-0.0326,0.0617,0.1576,0.2509,0.341,0.0,0.0,0.5852,0.6474,0.6775,0.6526,0.616,0.6226,0.6839,0.7266,0.7933,0.9092,1.0429,1.1514,1.2118,1.308,1.3873,1.4172,1.4764,1.5116,1.5175,1.5359,1.5693,1.5926,1.6178,1.6569,1.7167,1.7383,1.7581,1.7454,1.728,1.7055,1.7103,1.7302,1.7571,-0.3863,-0.4228,-0.5373,-0.5891,-0.6005,-0.6667,-0.7055,-0.736,-0.7444,-0.7676,-0.7951,-0.7951,-0.8251,-0.8797,-0.8975,-0.9152,-0.9384,-0.9503,-0.9574,-0.9615,-0.972,-0.9791,-0.9819,-0.9819,-0.97,-0.9457,-0.9364,-0.9227,-0.8921,-0.8549,-0.8307,-0.8239,-0.7797,-0.7663,-0.8008,-0.7819,-0.7732,-0.7817,-0.7845,-0.7845,-0.7928,-0.7788,-0.7501,-0.6957,-0.6458,-0.5635,-0.4554,-0.3847,-0.3116,-0.2529,-0.2424,-0.2544,-0.2773,-0.3245,0.0,0.0,0.0,0.0,0.0,0.0,0.0,0.0,0.0,-0.5122,-0.537,0.0,-0.4223,0.0,-0.2722,-0.16,-0.1139,-0.077,0.0,0.0,0.0057,0.0635,0.186,0.288,0.3742,0.437,0.5462,0.6309,0.6618,0.6825,0.6962,0.7141,0.6898,0.6837,0.7266,0.7811,0.8419,0.9214,1.0425,1.1514,1.2178,1.3444,1.4411,1.4476,1.5061,1.5477,1.5477,1.5542,1.5682,1.6045,1.626,1.6629,1.7242,1.7401,1.745,1.7672,1.7765,1.7776,1.7776,1.784,1.7969,-0.4129,-0.4682,-0.5667,-0.6283,-0.6492,-0.7085,-0.7409,-0.7596,-0.7781,-0.7958,-0.8076,-0.8202,-0.8462,-0.8872,-0.9047,-0.9285,-0.9585,-0.9666,-0.9703,-0.9707,-0.9603,-0.9576,-0.9579,-0.9457,-0.9278,-0.9156,-0.9156,-0.8976,-0.8668,-0.8415,-0.8202,-0.8076,-0.7829,-0.7795,-0.7914,-0.775,-0.7725,-0.7777,-0.779,-0.7769,-0.7714,-0.753,-0.7143,-0.6489,-0.5844,-0.4996,-0.3883,-0.3246,-0.253,-0.1955,-0.1982,-0.2004,-0.2025,-0.2545,-0.2969,0.0,0.0,0.0,0.0,0.0,0.0,0.0,0.0,0.0,0.0,0.0,-0.3141,-0.286,-0.178,-0.0988,-0.0726,-0.0397,-0.0058,0.0348,0.0586,0.1181,0.2497,0.3237,0.3986,0.4747,0.5641,0.6283,0.665,0.6959,0.7204,0.7385,0.7385,0.7327,0.7447,0.7991,0.8662,0.9393,1.0547,1.1635,1.2479,1.3748,1.459,1.465,1.5126,1.5601,1.5601,1.572,1.5903,1.6098,1.6431,1.6754,1.7124,1.7437,1.7614,1.7783,1.7999,1.8035,1.7845,1.8001,1.8209,-0.4622,-0.5546,-0.6158,-0.665,-0.6962,-0.7327,-0.7508,-0.7569,-0.7814,-0.7994,-0.7994,-0.8305,-0.8613,-0.8976,-0.9217,-0.9457,-0.9819,-0.9819,-0.9758,-0.97,-0.946,-0.9275,-0.9217,-0.9037,-0.8854,-0.8854,-0.8793,-0.8671,-0.8308,-0.8308,-0.8183,-0.7933,-0.7933,-0.7933,-0.7867,-0.7774,-0.7766,-0.7847,-0.7752,-0.7644,-0.7463,-0.7208,-0.6732,-0.6029,-0.5148,-0.4211,-0.3274,-0.2599,-0.2006,-0.1432,-0.164,-0.1672,-0.1372,-0.1861,-0.2212,0.0,-0.2722,0.0,0.0,0.0,0.0,0.0,0.0,0.0,0.0,-0.2808,-0.1996,-0.126,-0.0726,-0.0397,-0.0346,-0.0117,0.0236,0.0827,0.0947,0.149,0.2715,0.3205,0.3829,0.4742,0.5423,0.5976,0.6283,0.6957,0.7324,0.7385,0.7627,0.775,0.763,0.8052,0.8784,0.9636,1.0668,1.1877,1.2904,1.3928,1.459,1.465,1.5186,1.5601,1.5661,1.5898,1.6146,1.6259,1.6625,1.6979,1.7026,1.75,1.7817,1.7829,1.8022,1.803,1.7855,1.7993,1.8264,-0.5118,-0.5857,-0.653,-0.7023,-0.7327,-0.7689,-0.7936,-0.8186,-0.8305,-0.8308,-0.8308,-0.8369,-0.8674,-0.9217,-0.9278,-0.9518,-0.9819,-0.9819,-0.964,-0.94,-0.9335,-0.9153,-0.8976,-0.8915,-0.8732,-0.8491,-0.8491,-0.8305,-0.7994,-0.7994,-0.7994,-0.7933,-0.7933,-0.7933,-0.793,0.0,0.0,0.0,-0.7712,-0.752,-0.7166,-0.7017,-0.651,-0.5703,-0.4951,0.0,-0.2884,-0.2426,-0.1916,-0.1352,-0.1629,0.0,0.0,0.0,0.0,0.0,0.0,0.0,0.0,0.0,0.0,0.0,-0.1656,-0.193,-0.2282,-0.1855,-0.1279,-0.067,-0.0459,-0.0292,-0.0117,-0.0059,0.024,0.0901,0.1214,0.1837,0.2886,0.3438,0.3995,0.4436,0.5114,0.5607,0.5978,0.6591,0.7082,0.7388,0.7689,0.7869,0.7811,0.836,0.8915,0.946,1.091,1.2178,1.2719,1.3808,1.459,1.465,1.5186,1.5661,1.5963,1.6022,1.6318,1.6672,1.6903,1.7079,1.7309,1.7468,1.7575,1.7557,1.7612,1.7721,1.8073,1.8243,1.8322,-0.5364,0.0,-0.6716,-0.7082,0.0,-0.775,-0.8058,-0.8369,-0.8369,-0.8491,-0.8674,-0.8613,-0.8915,-0.9335,-0.9335,-0.94,-0.9579,-0.9579,-0.9396,-0.9095,-0.8912,-0.8793,-0.8671,-0.8485,-0.8302,-0.8183,-0.818,-0.8058,-0.7933,-0.7933,-0.7933,-0.7933,-0.7933,-0.7933,-0.7872,-0.775,-0.7696,-0.7703,-0.7522,-0.7255,-0.7025,-0.6455,-0.5779,-0.5102,-0.4275,0.0,0.0,0.0,0.0,0.0,0.0,0.0,0.0,-0.1335,0.0,-0.1312,-0.141,-0.1344,-0.1227,-0.1343,-0.13,-0.0819,-0.0727,-0.0789,-0.1164,-0.102,-0.069,-0.023,-0.0176,-0.0179,0.0,0.0,0.0183,0.0672,0.1044,0.1604,0.2406,0.3082,0.3637,0.4129,0.4745,0.53,0.5607,0.6221,0.6775,0.7143,0.7447,0.775,0.7933,0.8485,0.9098,0.994,1.1394,1.2475,1.2779,1.3744,1.459,1.465,1.5126,1.5661,1.6022,1.62,1.6431,1.6903,1.7138,1.7309,1.7426,1.7485,1.7485,1.7485,1.7485,1.7551,1.7847,1.7992,1.8131,-0.5607,-0.6528,-0.6837,-0.7204,-0.7508,-0.7875,-0.8241,-0.8549,0.0,0.0,0.0,-0.8976,-0.9095,-0.9396,-0.9396,-0.9335,-0.9335,-0.9335,-0.9156,-0.8793,-0.8552,-0.8369,-0.8305,-0.8058,-0.7933,-0.7933,-0.7933,-0.7933,-0.7933,-0.7933,-0.7933,-0.7933,-0.7933,-0.7869,-0.7811,-0.7505,-0.7464,-0.7553,-0.7195,-0.6965,-0.6747,-0.5912,-0.5137,-0.4463,-0.3559,-0.2657,-0.1755,-0.1414,-0.1132,-0.0849,-0.0905,-0.0905,-0.0905,-0.0849,-0.0844,-0.0832,-0.0942,-0.0937,-0.0653,-0.0935,-0.0892,-0.0339,-0.0116,-0.0059,-0.0289,-0.0352,-0.0237,0.0,0.0,0.0,0.0,0.0,0.0124,0.0494,0.0803,0.1234,0.1912,0.259,0.3268,0.376,0.4439,0.4995,0.5298,0.5974,0.653,0.6837,0.7204,0.7569,0.8055,0.8668,0.9518,1.0547,1.1812,1.2655,1.284,1.3748,1.453,1.459,1.5186,1.5715,1.6076,1.6366,1.6661,1.7073,1.7309,1.7485,1.7485,1.7485,1.7485,1.7485,1.7485,1.7485,1.7503,1.7654,1.7865,-0.6164,-0.6837,-0.7204,-0.7508,-0.7869,-0.8183,-0.8671,-0.9156,-0.8918,-0.8976,-0.9217,-0.9217,-0.9396,-0.9697,-0.97,-0.9579,-0.9335,-0.9335,-0.8973,-0.8491,-0.843,-0.8244,-0.7994,-0.7933,-0.7933,-0.7933,-0.7933,-0.7933,-0.7933,-0.7933,-0.7933,-0.7933,-0.7933,-0.775,-0.7508,-0.7447,-0.7258,-0.6999,-0.6832,-0.6608,-0.6217,-0.5789,-0.5139,-0.4263,-0.3329,-0.2397,-0.1521,-0.1111,-0.0819,-0.0468,-0.0761,-0.0878,-0.0878,-0.0643,-0.0468,-0.0466,-0.0291,-0.0175,0.0,0.0,-0.0117,-0.0059,0.0,0.0,-0.0059,-0.006,-0.006,0.0,0.0,0.0,0.0,0.0,0.0124,0.0432,0.0803,0.1296,0.1912,0.259,0.3146,0.3516,0.4378,0.4872,0.5056,0.5792,0.6467,0.6839,0.7202,0.7691,0.8546,0.9278,0.9943,1.0728,1.1872,1.2595,1.284,1.3748,1.4471,1.459,1.518,1.5774,1.6301,1.6484,1.672,1.7303,1.7485,1.7485,1.7485,1.7485,1.7485,1.7485,1.7485,1.7485,1.7485,1.7533,1.7569,-0.6285,-0.69,-0.7263,-0.7691,-0.8183,-0.8671,-0.9034,-0.9335,-0.9339,-0.9457,-0.9576,-0.9576,-0.964,-0.9758,-0.964,-0.9339,-0.9098,-0.8915,-0.8549,-0.8119,-0.8119,-0.8058,-0.7933,-0.7933,-0.7933,-0.7933,-0.7933,-0.7933,-0.7933,-0.7933,-0.7933,-0.7872,-0.775,-0.7566,-0.7385,-0.7018,-0.6773,-0.665,-0.6549,-0.6297,-0.5958,-0.5375,-0.4648,-0.3708,-0.3119,-0.2296,-0.1178,-0.1001,-0.0707,-0.0177,-0.0353,-0.0412,-0.0412,-0.0236,-0.0177,-0.0177,-0.0059,0.0,0.0,0.0,0.0,0.0,0.0,0.0,0.0,0.0,0.0,0.0,0.0,0.0,0.0,0.0,0.0062,0.0185,0.0679,0.1111,0.1481,0.2221,0.2837,0.3208,0.3884,0.4501,0.4872,0.5485,0.6158,0.6775,0.7324,0.7994,0.879,0.9278,0.9822,1.0728,1.1877,1.2595,1.2779,1.3744,1.4471,1.459,1.5126,1.5774,1.6366,1.6537,1.6779,1.7303,1.7485,1.7485,1.7485,1.7485,1.7485,1.7485,1.7485,1.7485,1.7485,1.7485,1.7485,-0.6407,-0.69,-0.7449,-0.8,-0.8613,-0.9095,-0.9335,-0.9457,-0.97,-0.9819,-0.9819,-0.9819,-0.9758,-0.964,-0.94,-0.9095,-0.8793,-0.8488,-0.8183,-0.7933,-0.7933,-0.7933,-0.7933,-0.7933,-0.7933,-0.7933,-0.7933,-0.7933,-0.7933,-0.7933,-0.7933,-0.7872,-0.7569,-0.7385,-0.7263,-0.6709,-0.6342,-0.6154,-0.6146,-0.5989,-0.5688,-0.4906,-0.4103,-0.3392,-0.2796,-0.2023,-0.1012,-0.0774,-0.0476,0.0,0.0,0.0,0.0,0.0,0.0,0.0,0.0,0.0,0.0,0.0,0.0,0.0,0.0,0.0,0.0,0.0,0.0,0.0,0.0,0.0,0.0,0.0,0.0,0.0,0.0618,0.0988,0.1112,0.1913,0.2651,0.296,0.3513,0.419,0.4747,0.5177,0.5792,0.6714,0.7447,0.8177,0.879,0.9095,0.97,1.0668,1.1816,1.2539,1.2719,1.3744,1.4471,1.459,1.5186,1.5774,1.6307,1.6537,1.6773,1.7303,1.7485,1.7485,1.7485,1.7485,1.7485,1.7485,1.7485,1.7485,1.7485,1.7485,1.7485,-0.6837,-0.7023,-0.788,-0.8671,-0.9156,-0.9278,-0.9457,-0.9761,-0.9819,-0.9819,-0.9758,-0.9819,-0.964,-0.9335,-0.9275,-0.8976,-0.8491,-0.843,-0.8183,-0.7933,-0.7933,-0.7933,-0.7933,-0.7933,-0.7933,-0.7933,-0.7933,-0.7933,-0.7933,-0.7933,-0.7933,-0.7869,-0.7569,-0.7266,-0.6962,-0.6589,-0.6096,-0.5483,-0.5473,-0.5469,-0.541,-0.4482,-0.3807,-0.3502,-0.227,-0.1413,-0.0982,-0.043,-0.0061,0.0,0.0,0.0,0.0,0.0,0.0,0.0,0.0,0.0,0.0,0.0,0.0,0.0,0.0,0.0,0.0,0.0,0.0,0.0,0.0,0.0,0.0,0.0,0.0,0.0,0.0618,0.0988,0.1111,0.1913,0.259,0.296,0.3515,0.4129,0.4747,0.5239,0.5853,0.6775,0.7447,0.8119,0.879,0.9095,0.964,1.0607,1.1631,1.2294,1.2719,1.3748,1.4471,1.4655,1.5186,1.5774,1.6307,1.6537,1.6714,1.7309,1.7485,1.7485,1.7485,1.7485,1.7485,1.7485,1.7485,1.7485,1.7485,1.7485,1.7485,-0.7021,-0.7263,-0.8064,-0.8732,-0.9275,-0.9518,-0.97,-0.9819,-0.9819,-0.97,-0.9518,-0.9518,-0.9396,-0.9278,-0.8915,-0.8613,-0.843,-0.8183,-0.8058,-0.7933,-0.7933,-0.7933,-0.7933,-0.7933,-0.7933,-0.7933,-0.7933,-0.7933,-0.7933,-0.7933,-0.7808,-0.7569,-0.7263,-0.6957,-0.6591,-0.6283,-0.5853,-0.5421,-0.5177,-0.493,-0.4498,-0.4127,-0.3575,-0.2899,-0.2157,-0.1542,-0.105,-0.0556,-0.0185,0.0,0.0,0.0,0.0,0.0,0.0,0.0,0.0,0.0,0.0,0.0,0.0,0.0,0.0,0.0,0.0,0.0,0.0,0.0,0.0,0.0,0.0,0.0,0.0,0.0,0.0618,0.0988,0.105,0.1729,0.2407,0.29,0.3207,0.3761,0.481,0.5732,0.6407,0.6898,0.7447,0.8119,0.8793,0.8976,0.9579,1.0607,1.1454,1.2118,1.2659,1.3748,1.4411,1.4714,1.5126,1.5839,1.6307,1.6478,1.672,1.7367,1.7485,1.7485,1.7485,1.7485,1.7485,1.7485,1.7485,1.7485,1.7485,1.7485,1.7485,-0.7084,-0.751,-0.8244,-0.8915,-0.9457,-0.9697,-0.9761,-0.964,-0.97,-0.9457,-0.9217,-0.9095,-0.9034,-0.8973,-0.8613,-0.8369,-0.8244,-0.7994,-0.7933,-0.7933,-0.7933,-0.7933,-0.7933,-0.7933,-0.7933,-0.7933,-0.7933,-0.7869,-0.775,-0.775,-0.7569,-0.7263,-0.6898,-0.6653,-0.6405,-0.5976,-0.5607,-0.5239,-0.487,-0.4315,-0.376,-0.3575,-0.3144,-0.2405,-0.1974,-0.1419,-0.0865,-0.0556,-0.0247,0.0,0.0,0.0,0.0,0.0,0.0,0.0,0.0,0.0,0.0,0.0,0.0,0.0,0.0,0.0,0.0,0.0,0.0,0.0,0.0,0.0,0.0,0.0,0.0,0.0,0.0618,0.0988,0.105,0.1606,0.2285,0.2838,0.3022,0.3454,0.4749,0.5978,0.6841,0.6962,0.7508,0.8116,0.8729,0.8976,0.9339,1.0607,1.1333,1.1937,1.2599,1.3748,1.4471,1.4774,1.5191,1.5839,1.6366,1.6484,1.672,1.7309,1.7426,1.7485,1.7485,1.7485,1.7485,1.7485,1.7485,1.7485,1.7485,1.7485,1.7485,-0.7084,-0.7569,-0.8485,-0.922,-0.9761,-0.9761,-0.9579,-0.9339,-0.9335,-0.9156,-0.8854,-0.8613,-0.843,-0.8427,-0.8369,-0.8244,-0.7933,-0.7933,-0.7933,-0.7933,-0.7933,-0.7933,-0.7933,-0.7933,-0.7933,-0.7872,-0.7872,-0.7689,-0.7447,-0.7447,-0.7266,-0.6898,-0.6589,-0.6405,-0.628,-0.5728,-0.5237,-0.4933,-0.4315,-0.3698,-0.3085,-0.2774,-0.2405,-0.1973,-0.1419,-0.0926,-0.0556,-0.0185,0.0,0.0,0.0,0.0,0.0,0.0,0.0,0.0,0.0,0.0,0.0,0.0,0.0,0.0,0.0,0.0,0.0,0.0,0.0,0.0,0.0,0.0,0.0,0.0,0.0,0.0,0.0618,0.0988,0.105,0.1667,0.2284,0.2838,0.3085,0.3701,0.481,0.6039,0.6778,0.7023,0.7508,0.8116,0.8732,0.8918,0.946,1.0425,1.1148,1.1635,1.2595,1.3684,1.4411,1.4709,1.5186,1.5779,1.6188,1.6596,1.6956,1.725,1.7426,1.7485,1.7485,1.7485,1.7485,1.7485,1.7485,1.7485,1.7485,1.7485,1.7485,-0.7329,-0.8061,-0.8671,-0.9034,-0.9217,-0.9396,-0.9335,-0.9037,-0.9037,-0.8854,-0.8613,-0.843,-0.8305,-0.8119,-0.8058,-0.7997,-0.7933,-0.7933,-0.7933,-0.7933,-0.7933,-0.7933,-0.7933,-0.7933,-0.7933,-0.7869,-0.7689,-0.7385,-0.7146,-0.7082,-0.6898,-0.6589,-0.6467,-0.6219,-0.579,-0.5544,-0.5114,-0.4562,-0.4129,-0.3637,-0.3022,-0.2652,-0.2159,-0.1419,-0.1111,-0.0865,-0.0494,-0.0185,0.0,0.0,0.0,0.0,0.0,0.0,0.0,0.0,0.0,0.0,0.0,0.0,0.0,0.0,0.0,0.0,0.0,0.0,0.0,0.0,0.0,0.0,0.0,0.0,0.0062,0.0309,0.0741,0.1112,0.1359,0.1914,0.253,0.3023,0.3639,0.4501,0.5177,0.6162,0.6841,0.6962,0.7447,0.8116,0.8732,0.8918,0.9339,1.0486,1.1091,1.1635,1.2543,1.3629,1.4411,1.4709,1.5126,1.5774,1.6301,1.6478,1.6779,1.7309,1.7485,1.7485,1.7485,1.7485,1.7485,1.7485,1.7485,1.7485,1.7485,1.7485,1.7485,-0.7808,-0.849,-0.8735,-0.8921,-0.8977,-0.9118,-0.9041,-0.879,-0.8751,-0.8549,-0.8244,-0.8122,-0.7939,-0.775,-0.763,-0.7569,-0.7627,-0.7811,-0.7933,-0.7872,-0.7811,-0.775,-0.7689,-0.763,-0.7569,-0.7566,-0.7327,-0.7082,-0.6775,-0.6716,-0.6591,-0.6283,-0.6158,-0.5851,-0.5421,-0.5174,-0.4805,-0.4253,-0.3822,-0.333,-0.2837,-0.2406,-0.179,-0.1111,-0.0865,-0.0679,-0.0371,-0.0124,0.0,0.0,0.0,0.0,0.0,0.0,0.0,0.0,0.0,0.0,0.0,0.0,0.0,0.0,0.0,0.0,0.0,0.0,0.0,0.0,0.0124,0.0185,0.0185,0.0,0.0371,0.0556,0.0926,0.1235,0.1482,0.2099,0.2714,0.333,0.4193,0.4931,0.5421,0.6283,0.6778,0.6903,0.7508,0.8119,0.8732,0.8979,0.9339,1.0486,1.097,1.1575,1.2419,1.3384,1.4172,1.453,1.5126,1.5769,1.6242,1.6425,1.6714,1.725,1.7485,1.7485,1.7485,1.7485,1.7485,1.7485,1.7485,1.7485,1.7485,1.7485,1.7485,-0.8353,-0.8658,-0.8675,-0.8843,-0.9073,-0.9042,-0.8806,-0.8471,-0.8377,-0.8164,-0.7859,-0.7592,-0.7485,-0.7342,-0.717,-0.6969,-0.7096,-0.7574,-0.7811,-0.775,-0.7505,-0.7388,-0.7388,-0.7143,-0.6962,-0.6962,-0.6898,-0.6714,-0.6405,-0.6344,-0.616,-0.5916,-0.5605,-0.5421,-0.536,-0.4745,-0.4253,-0.3883,-0.333,-0.2899,-0.2467,-0.1914,-0.142,-0.0988,-0.0679,-0.0371,0.0,0.0,0.0,0.0,0.0,0.0,0.0,0.0,0.0,0.0,0.0,0.0,0.0,0.0,0.0,0.0,0.0,0.0,0.0,0.0,0.0,0.0,0.0371,0.0494,0.0556,0.0803,0.0865,0.0618,0.1112,0.1482,0.1667,0.216,0.2898,0.3761,0.4562,0.4995,0.5546,0.6285,0.69,0.7082,0.7508,0.8119,0.8732,0.8918,0.9457,1.0425,1.091,1.1394,1.2178,1.3024,1.3748,1.4411,1.5061,1.5655,1.6188,1.6425,1.672,1.7191,1.7479,1.7479,1.7485,1.7485,1.7485,1.7485,1.7485,1.7485,1.7485,1.7485,1.7485,-0.8047,-0.8361,-0.8614,-0.8617,-0.8547,-0.8701,-0.8496,-0.7986,-0.7949,-0.7746,-0.7426,-0.7299,-0.7299,-0.7217,-0.7038,-0.6938,-0.6996,-0.7118,-0.7204,-0.7207,-0.7084,-0.7082,-0.7023,-0.6962,-0.6778,-0.6591,-0.653,-0.6346,-0.6039,-0.5792,-0.5667,-0.5544,-0.5239,-0.4933,-0.4684,-0.4253,-0.3883,-0.3577,-0.296,-0.259,-0.2466,-0.1852,-0.1359,-0.0988,-0.0679,-0.0371,0.0,0.0,0.0,0.0,0.0,0.0,0.0,0.0,0.0,0.0,0.0,0.0,0.0,0.0185,0.0371,0.0371,0.0556,0.0679,0.0679,0.0679,0.0679,0.0679,0.0803,0.0865,0.0926,0.1173,0.1297,0.1173,0.1359,0.1729,0.2221,0.2899,0.3761,0.4439,0.4993,0.5485,0.5976,0.6653,0.6962,0.7204,0.763,0.8119,0.8732,0.8918,0.94,1.0486,1.0789,1.1212,1.2238,1.3024,1.3569,1.4291,1.5002,1.5601,1.6076,1.6484,1.6779,1.7073,1.7361,1.7479,1.7485,1.7485,1.7485,1.7485,1.7485,1.7485,1.7485,1.7485,1.7485,-0.7979,-0.8174,-0.8367,-0.8364,-0.8167,-0.8194,-0.7977,-0.7587,-0.7486,-0.7402,-0.7205,-0.7079,-0.7015,-0.694,-0.6817,-0.6728,-0.6719,-0.6663,-0.662,-0.6582,-0.6662,-0.6716,-0.6714,-0.6594,-0.6344,-0.6096,-0.6035,-0.5853,-0.5548,-0.5362,-0.5239,-0.5177,-0.487,-0.4562,-0.4192,-0.3884,-0.3577,-0.3146,-0.2714,-0.2406,-0.2097,-0.1605,-0.1173,-0.0803,-0.0494,-0.0247,0.0,0.0,0.0,0.0,0.0,0.0,0.0,0.0,0.0062,0.0185,0.0,0.0,0.0371,0.0556,0.0679,0.0741,0.0865,0.0988,0.0988,0.0988,0.0988,0.0988,0.1112,0.1173,0.1235,0.1605,0.1852,0.1851,0.1914,0.216,0.2837,0.3452,0.4129,0.4747,0.5177,0.5667,0.6219,0.6653,0.7023,0.7327,0.7689,0.8116,0.8668,0.8918,0.9643,1.0365,1.0728,1.1454,1.2479,1.302,1.3444,1.4167,1.4888,1.5483,1.6022,1.6366,1.6655,1.7132,1.7426,1.7485,1.7485,1.7485,1.7485,1.7485,1.7485,1.7485,1.7485,1.7485,1.7503,-0.8053,-0.8058,-0.8053,-0.8041,-0.7961,-0.761,-0.7374,-0.7229,-0.7152,-0.7052,-0.6983,-0.6677,-0.6539,-0.653,-0.6265,-0.6124,-0.612,-0.61,-0.6055,-0.6053,-0.6174,-0.6253,-0.6164,-0.5978,-0.5669,-0.5483,-0.5421,-0.5237,-0.4995,-0.487,-0.4872,-0.4749,-0.4439,-0.413,-0.3821,-0.3576,-0.3145,-0.2652,-0.2466,-0.2098,-0.1543,-0.1173,-0.0865,-0.0556,-0.0185,0.0,0.0,0.0,0.0,0.0,0.0,0.0,0.0,0.0,0.0185,0.0494,0.0494,0.0679,0.0926,0.0988,0.105,0.105,0.1112,0.105,0.1235,0.1296,0.1296,0.1358,0.1543,0.1667,0.1791,0.2098,0.2467,0.259,0.259,0.2838,0.3394,0.3822,0.4315,0.487,0.5239,0.5728,0.6405,0.6778,0.7082,0.7447,0.775,0.8241,0.8668,0.9098,0.9582,1.0126,1.0732,1.1514,1.2419,1.2779,1.3264,1.4227,1.4828,1.5304,1.5844,1.6248,1.6714,1.7191,1.7485,1.7485,1.7485,1.7485,1.7485,1.7485,1.7485,1.7485,1.7497,1.7521,1.7624,-0.7455,-0.766,-0.766,-0.766,-0.7658,-0.7493,-0.7149,-0.6747,-0.6724,-0.6368,-0.5981,-0.5786,-0.5776,-0.5712,-0.5586,-0.5497,-0.5487,-0.544,-0.5404,-0.5381,-0.5363,-0.5403,-0.5322,-0.5241,-0.5118,-0.5056,-0.4995,-0.4996,-0.4872,-0.4378,-0.4192,-0.4129,-0.3701,-0.3391,-0.3207,-0.296,-0.2714,-0.2467,-0.1975,-0.1729,-0.142,-0.0926,-0.0618,-0.0494,-0.0185,0.0,0.0,0.0,0.0,0.0,0.0,0.0,0.0309,0.0371,0.0494,0.0803,0.0865,0.0926,0.105,0.1235,0.1359,0.1359,0.1606,0.1853,0.2098,0.2097,0.2221,0.2406,0.2592,0.2592,0.2591,0.2776,0.3022,0.3452,0.3391,0.3393,0.3822,0.4316,0.481,0.5239,0.5792,0.628,0.6714,0.7021,0.7327,0.7691,0.8058,0.8366,0.8793,0.9095,0.9579,1.0308,1.091,1.1635,1.2238,1.2539,1.314,1.4227,1.4769,1.5067,1.5655,1.6183,1.6714,1.7303,1.7426,1.7485,1.7485,1.7485,1.7485,1.7485,1.7527,1.7545,1.7581,1.7618,1.7774,-0.665,-0.6786,-0.6786,-0.6853,-0.6786,-0.6654,-0.6386,-0.6118,-0.6051,-0.585,-0.5448,-0.5381,-0.5381,-0.5374,-0.5333,-0.5314,-0.5308,-0.5268,-0.5233,-0.5064,-0.4843,-0.4831,-0.4872,-0.4955,-0.4749,-0.4501,-0.4501,-0.4316,-0.407,-0.3699,-0.3575,-0.3513,-0.3208,-0.296,-0.2775,-0.2466,-0.222,-0.2036,-0.1543,-0.1235,-0.105,-0.0741,-0.0432,-0.0309,0.0,0.0,0.0,0.0,0.0,0.0,0.0,0.0309,0.0494,0.0618,0.0865,0.1173,0.1235,0.1296,0.1605,0.1851,0.1975,0.2099,0.2346,0.2468,0.2652,0.2714,0.2837,0.2899,0.296,0.296,0.3023,0.3207,0.3699,0.4192,0.4193,0.4133,0.4315,0.4808,0.5239,0.5607,0.6096,0.6587,0.7023,0.7266,0.7508,0.7814,0.8183,0.8488,0.8854,0.9156,0.964,1.0368,1.097,1.1514,1.2178,1.2595,1.326,1.4227,1.4948,1.5186,1.5655,1.6242,1.6714,1.7244,1.7367,1.7485,1.7485,1.7485,1.7485,1.7503,1.7563,1.7654,1.7714,1.7865,1.8004,-0.5845,-0.5845,-0.5845,-0.5845,-0.5847,-0.5513,-0.5446,-0.5379,-0.5379,-0.5314,-0.5247,-0.5245,-0.5178,-0.5245,-0.517,-0.5243,-0.5242,-0.516,-0.5066,-0.4812,-0.4431,-0.4301,-0.4508,-0.4495,-0.4209,-0.3887,-0.3821,-0.3575,-0.3268,-0.3083,-0.296,-0.2899,-0.2837,-0.2652,-0.2344,-0.2035,-0.1727,-0.1482,-0.1173,-0.0865,-0.0618,-0.0432,-0.0309,0.0,0.0,0.0,0.0,0.0,0.0,0.0,0.0309,0.0494,0.0618,0.0926,0.1235,0.1544,0.1667,0.1913,0.2406,0.2467,0.2652,0.2837,0.2899,0.3085,0.3083,0.3145,0.3207,0.3454,0.3208,0.3331,0.3393,0.3761,0.4253,0.4747,0.4933,0.4995,0.5118,0.53,0.5607,0.5978,0.6346,0.6773,0.7202,0.7508,0.763,0.8058,0.8366,0.8732,0.9095,0.9457,0.9943,1.0611,1.1031,1.139,1.2053,1.2655,1.3444,1.4291,1.5067,1.5542,1.6011,1.6537,1.6832,1.7185,1.7367,1.7485,1.7485,1.7485,1.7497,1.7593,1.7702,1.7817,1.7931,1.8161,1.8336,-0.5513,-0.5515,-0.5513,-0.5515,-0.5515,-0.5448,-0.5178,-0.4908,-0.4908,-0.4775,-0.4575,-0.4577,-0.4575,-0.4577,-0.4642,-0.4575,-0.4575,-0.4575,-0.4364,-0.4082,-0.3894,-0.3606,-0.3568,-0.3499,-0.3372,-0.322,-0.3208,-0.3083,-0.296,-0.2652,-0.259,-0.2529,-0.2098,-0.179,-0.1729,-0.142,-0.1173,-0.105,-0.0741,-0.0556,-0.0432,0.0,0.0,0.0,0.0,0.0,0.0,0.0247,0.0371,0.0432,0.0494,0.0803,0.1173,0.1359,0.1667,0.2097,0.2282,0.2467,0.2837,0.2899,0.296,0.3085,0.3207,0.3208,0.3698,0.3698,0.3946,0.4316,0.4501,0.4379,0.4439,0.4562,0.4931,0.53,0.5548,0.5794,0.5976,0.5914,0.6101,0.653,0.6959,0.7263,0.7447,0.7939,0.8183,0.8366,0.8668,0.9034,0.9339,0.964,1.0186,1.0732,1.1212,1.1575,1.2298,1.296,1.3744,1.4466,1.5245,1.5839,1.6307,1.6661,1.6956,1.7191,1.7426,1.7491,1.7539,1.7545,1.7569,1.7702,1.7871,1.8022,1.8203,1.8438,1.8613,-0.4371,-0.4371,-0.4372,-0.4372,-0.4372,-0.4371,-0.4237,-0.4101,-0.4237,-0.4237,-0.4104,-0.4239,-0.4307,-0.4307,-0.4307,-0.4307,-0.4239,-0.4104,-0.3969,-0.3761,-0.3468,-0.3118,-0.2831,-0.2531,-0.2423,-0.2689,-0.2598,-0.2468,-0.2282,-0.2036,-0.1789,-0.179,-0.142,-0.1297,-0.1235,-0.0926,-0.0803,-0.0679,-0.0432,-0.0247,-0.0247,0.0,0.0,0.0,0.0124,0.0247,0.0247,0.0556,0.0803,0.0988,0.1111,0.1234,0.1543,0.179,0.216,0.2406,0.2714,0.296,0.3268,0.3453,0.3577,0.3885,0.3885,0.407,0.4255,0.4376,0.4501,0.481,0.4933,0.4996,0.5302,0.5364,0.5548,0.6039,0.6223,0.6528,0.6712,0.6591,0.653,0.7082,0.7385,0.763,0.7936,0.8366,0.8549,0.8671,0.8912,0.9278,0.9396,0.9761,1.0243,1.0789,1.1277,1.1816,1.2539,1.3324,1.4107,1.4764,1.5418,1.5952,1.6425,1.6661,1.6956,1.7209,1.7539,1.7612,1.7648,1.7648,1.7762,1.7992,1.8179,1.8306,1.8463,1.868,1.8813,-0.3227,-0.3227,-0.3227,-0.3227,-0.3227,-0.3228,-0.3295,-0.3295,-0.3632,-0.3901,-0.3901,-0.4171,-0.4307,-0.4307,-0.4307,-0.4307,-0.4239,-0.3969,-0.3834,-0.3563,-0.3093,-0.2673,-0.2385,-0.2038,-0.1885,-0.2222,-0.2,-0.1675,-0.1483,-0.1173,-0.1235,-0.105,-0.0926,-0.0926,-0.0865,-0.0618,-0.0432,-0.0371,-0.0185,0.0,0.0,0.0,0.0,0.0,0.0309,0.0494,0.0618,0.0926,0.1235,0.1543,0.1912,0.1912,0.1975,0.2159,0.259,0.2651,0.3022,0.3391,0.3821,0.4007,0.4253,0.4872,0.4872,0.4872,0.4931,0.4933,0.4993,0.5118,0.5242,0.5485,0.5978,0.6041,0.6287,0.6716,0.6898,0.7204,0.7388,0.7266,0.7449,0.7572,0.7939,0.8183,0.8427,0.8732,0.8854,0.9098,0.9278,0.9518,0.964,0.994,1.0547,1.097,1.1514,1.2238,1.2964,1.3624,1.4406,1.4968,1.5677,1.6131,1.6552,1.6841,1.7161,1.7422,1.763,1.7726,1.7841,1.7925,1.8082,1.8318,1.845,1.8541,1.8716,1.8921,1.8988,-0.3227,-0.3227,-0.3227,-0.3228,-0.3228,-0.3228,-0.3161,-0.3295,-0.3565,-0.3767,-0.3834,-0.4104,-0.4307,-0.4307,-0.4307,-0.4307,-0.4239,-0.3902,-0.3632,-0.3296,-0.2827,-0.2416,-0.1873,-0.1658,-0.1512,-0.1302,-0.1213,-0.1129,-0.1116,-0.105,-0.0865,-0.0865,-0.0679,-0.0556,-0.0494,0.0,0.0,0.0,0.0,0.0,0.0,0.0,0.0185,0.0371,0.0494,0.0679,0.0988,0.1235,0.1605,0.1912,0.222,0.2529,0.2715,0.2899,0.3083,0.3269,0.3576,0.3944,0.4313,0.4562,0.4749,0.4872,0.4995,0.5116,0.5239,0.5362,0.5546,0.573,0.5976,0.628,0.6655,0.6714,0.6778,0.7021,0.7449,0.7752,0.7875,0.818,0.8363,0.8366,0.8549,0.8732,0.8976,0.9217,0.9457,0.97,0.9883,1.0126,1.0308,1.0607,1.1091,1.1454,1.1752,1.2599,1.3444,1.4047,1.4714,1.5173,1.5807,1.633,1.6777,1.714,1.7398,1.7763,1.7895,1.7956,1.8064,1.8185,1.8366,1.8571,1.868,1.8764,1.8891,1.9012,1.9024,-0.2691,-0.2691,-0.2692,-0.2691,-0.2691,-0.2692,-0.2691,-0.2759,-0.3229,-0.3497,-0.3632,-0.4037,-0.4307,-0.4307,-0.4307,-0.4307,-0.4171,-0.3699,-0.3362,-0.3094,-0.2692,-0.2155,-0.1616,-0.1469,-0.1127,-0.079,-0.0584,-0.0574,-0.0688,-0.0558,0.0,-0.0432,-0.0309,-0.0247,-0.0247,0.0,0.0,0.0,0.0,0.0,0.0,0.0124,0.0371,0.0494,0.0865,0.1112,0.1296,0.179,0.2097,0.2344,0.2775,0.3146,0.3391,0.3638,0.3701,0.3824,0.4132,0.4561,0.4868,0.5116,0.5241,0.5425,0.5548,0.573,0.5912,0.6099,0.6221,0.6405,0.653,0.6773,0.7146,0.7329,0.7508,0.7694,0.8127,0.8375,0.8549,0.904,0.9178,0.9184,0.9361,0.948,0.946,0.9761,1.0061,1.0304,1.0486,1.0668,1.091,1.1273,1.1635,1.2005,1.2371,1.3185,1.393,1.45,1.5076,1.5588,1.6046,1.6573,1.7055,1.7512,1.7891,1.825,1.8306,1.8251,1.8354,1.8493,1.8662,1.8801,1.8867,1.8939,1.9012,1.9136,1.9136,-0.202,-0.1953,-0.202,-0.202,-0.2087,-0.2087,-0.2155,-0.2357,-0.296,-0.3228,-0.3295,-0.3969,-0.4307,-0.4374,-0.4374,-0.4374,-0.4239,-0.3564,-0.3228,-0.3094,-0.2558,-0.1953,-0.1548,-0.121,-0.087,-0.0398,-0.0197,-0.013,-0.0316,-0.0187,0.0,0.0,0.0,0.0,0.0,0.0,0.0,0.0,0.0,0.0,0.0185,0.0371,0.0618,0.0741,0.1296,0.1605,0.179,0.2283,0.2652,0.2899,0.3268,0.3701,0.4069,0.4436,0.4436,0.4313,0.4747,0.5116,0.5298,0.5605,0.573,0.5914,0.6283,0.6467,0.6528,0.6591,0.6837,0.6959,0.7082,0.7286,0.7675,0.7915,0.8242,0.8582,0.8897,0.9189,0.9393,0.9714,1.0221,1.0207,1.0213,1.0182,1.0229,1.0365,1.0728,1.1031,1.1152,1.139,1.1635,1.1816,1.2182,1.2561,1.3065,1.3838,1.4495,1.4943,1.5555,1.6072,1.6536,1.7036,1.7485,1.799,1.8312,1.8625,1.8625,1.8595,1.8698,1.8758,1.8861,1.8951,1.91,1.9136,1.9136,1.9136,1.9136,-0.1481,-0.1212,-0.1279,-0.1414,-0.1683,-0.1683,-0.1885,-0.2289,-0.2893,-0.3228,-0.3228,-0.3969,-0.444,-0.464,-0.4707,-0.4575,-0.4171,-0.3564,-0.3227,-0.3094,-0.249,-0.1818,-0.1279,-0.1144,-0.0672,0.0,0.0,0.0,0.0,0.0,0.0,0.0,0.0,0.0,0.0,0.0,0.0,0.0,0.0,0.0,0.0371,0.0494,0.0866,0.1298,0.1733,0.2106,0.2358,0.2793,0.3161,0.365,0.3767,0.4195,0.4685,0.5116,0.5237,0.5237,0.5298,0.536,0.5542,0.5912,0.6221,0.6344,0.665,0.6778,0.6962,0.7023,0.7146,0.7324,0.7577,0.7937,0.8383,0.8718,0.903,0.9321,0.9711,0.9976,1.0178,1.0589,1.1043,1.137,1.1394,1.1152,1.1084,1.1202,1.1333,1.1635,1.1885,1.2143,1.2354,1.2582,1.302,1.3494,1.384,1.4558,1.5014,1.5456,1.5934,1.6545,1.6971,1.746,1.7877,1.8342,1.8632,1.8855,1.8918,1.893,1.8903,1.8957,1.903,1.9054,1.913,1.9136,1.9136,1.9136,1.9136,-0.101,-0.1077,-0.1077,-0.1279,-0.1616,-0.1616,-0.1818,-0.2289,-0.2893,-0.3227,-0.3362,-0.3969,-0.4374,-0.4507,-0.4507,-0.4441,-0.4171,-0.3497,-0.3227,-0.3094,-0.249,-0.1818,-0.1279,-0.1077,-0.0673,0.0,0.0,0.0,0.0,0.0,0.0,0.0,0.0,0.0,0.0,0.0,0.0,0.0,0.0,0.0,0.0495,0.0747,0.1126,0.1814,0.2141,0.2526,0.2907,0.3417,0.3733,0.4173,0.4362,0.4844,0.5195,0.5428,0.5602,0.5972,0.5972,0.5974,0.6035,0.6285,0.6473,0.6716,0.6962,0.7263,0.7447,0.7643,0.7801,0.8094,0.8411,0.872,0.9067,0.9475,0.9697,1.0059,1.0502,1.0749,1.1064,1.1534,1.1941,1.228,1.2544,1.2374,1.2291,1.2523,1.2547,1.2566,1.2768,1.2908,1.319,1.3482,1.3976,1.4583,1.4868,1.5222,1.5546,1.5839,1.6328,1.6879,1.7321,1.7725,1.8237,1.8697,1.8918,1.9,1.9051,1.9082,1.9136,1.913,1.9124,1.913,1.9136,1.9136,1.9136,1.9136,1.9136,-0.0539,-0.0808,-0.0808,-0.101,-0.1346,-0.1414,-0.1683,-0.2087,-0.2759,-0.3095,-0.3431,-0.4037,-0.4374,-0.4374,-0.4372,-0.444,-0.4239,-0.3564,-0.3295,-0.2959,-0.249,-0.1818,-0.1279,-0.1077,-0.0741,0.0,0.0,0.0,0.0,0.0,0.0,0.0,0.0,0.0,0.0,0.0,0.0,0.0,0.0,0.0313,0.0627,0.1011,0.1522,0.21,0.2563,0.2903,0.342,0.393,0.4313,0.4695,0.5011,0.5429,0.5839,0.5954,0.6185,0.6514,0.6629,0.6689,0.6678,0.685,0.6817,0.7067,0.7405,0.7751,0.8107,0.84,0.8608,0.872,0.9165,0.9428,0.971,1.0193,1.056,1.0906,1.132,1.1487,1.1795,1.2322,1.2867,1.3229,1.3563,1.3847,1.3775,1.3957,1.3902,1.3622,1.3676,1.3748,1.4008,1.4336,1.4735,1.5318,1.5534,1.582,1.6097,1.6395,1.6817,1.7204,1.765,1.8047,1.8581,1.8838,1.9042,1.9124,1.9136,1.9136,1.9136,1.9136,1.9136,1.9136,1.9136,1.9136,1.9136,1.9136,1.9136,-0.0067,-0.0067,0.0,-0.0337,-0.0606,-0.101,-0.1346,-0.1751,-0.2424,-0.2961,-0.3363,-0.417,-0.4507,-0.4441,-0.4507,-0.4507,-0.4239,-0.3564,-0.3228,-0.296,-0.249,-0.175,-0.1279,-0.0943,0.0,0.0,0.0,0.0,0.0,0.0,0.0,0.0,0.0,0.0,0.0,0.0,0.0,0.0,0.0256,0.0576,0.0961,0.135,0.1867,0.2513,0.2967,0.3421,0.4065,0.4531,0.4991,0.5445,0.5708,0.6013,0.6441,0.656,0.6794,0.7014,0.7131,0.7258,0.7375,0.7391,0.7489,0.7637,0.7865,0.816,0.8523,0.8692,0.8912,0.9294,0.9808,1.0199,1.0548,1.1005,1.1499,1.1731,1.2137,1.2462,1.2791,1.321,1.3704,1.4214,1.4451,1.4627,1.4931,1.5021,1.4885,1.4593,1.4677,1.4813,1.4959,1.5274,1.5418,1.5789,1.605,1.6303,1.6662,1.6981,1.7313,1.7665,1.8094,1.8453,1.8914,1.9072,1.9136,1.9136,1.9136,1.9136,1.9136,1.9136,1.9136,1.9136,1.9136,1.9136,1.9136,1.9136,1.9136,0.0,0.0,0.0,-0.0202,-0.0539,-0.0943,-0.1279,-0.1683,-0.2357,-0.3029,-0.3565,-0.4171,-0.444,-0.4374,-0.4374,-0.4305,-0.3969,-0.343,-0.3095,-0.2692,-0.2154,-0.1548,-0.1144,-0.0808,0.0,0.0,0.0,0.0,0.0,0.0,0.0,0.0,0.0,0.0,0.0,0.0,0.0,0.0,0.0323,0.0646,0.1034,0.1693,0.2288,0.2943,0.3634,0.4036,0.4569,0.516,0.5688,0.608,0.6339,0.6703,0.7057,0.7115,0.7279,0.7555,0.755,0.774,0.7863,0.7814,0.7785,0.7983,0.8145,0.8372,0.8837,0.9009,0.9438,0.9915,1.0405,1.0793,1.1377,1.1876,1.2366,1.2618,1.2898,1.3288,1.3682,1.401,1.4399,1.4716,1.5047,1.5349,1.5674,1.6009,1.5793,1.5515,1.5672,1.5829,1.591,1.608,1.6181,1.6361,1.661,1.6802,1.7096,1.744,1.7728,1.8121,1.8507,1.8758,1.9008,1.9072,1.9136,1.9136,1.9136,1.9136,1.9136,1.9136,1.9136,1.9136,1.9136,1.9136,1.9136,1.9136,1.9136,0.0,0.0,0.0,-0.0135,-0.0404,-0.0741,-0.1144,-0.1548,-0.2087,-0.2827,-0.3632,-0.3969,-0.4239,-0.4239,-0.4171,-0.4104,-0.3699,-0.3296,-0.2962,-0.2491,-0.202,-0.1481,-0.1077,-0.0673,0.0,0.0,0.0,0.0,0.0,0.0,0.0,0.0,0.0,0.0,0.0,0.0,0.0,0.0196,0.0523,0.085,0.1245,0.1913,0.2587,0.3186,0.3812,0.4492,0.5026,0.5624,0.6162,0.6566,0.6965,0.7275,0.7507,0.76,0.7762,0.7847,0.8008,0.8073,0.8135,0.8105,0.8049,0.8286,0.8485,0.8683,0.8983,0.9371,0.9909,1.0603,1.1022,1.1457,1.2045,1.2553,1.3005,1.3161,1.3621,1.401,1.4277,1.4604,1.4931,1.5257,1.5588,1.5919,1.6109,1.6429,1.6457,1.626,1.6309,1.6422,1.6492,1.6679,1.6835,1.7022,1.7183,1.742,1.7588,1.7857,1.8121,1.8308,1.8629,1.8822,1.9008,1.9072,1.9136,1.9136,1.9136,1.9136,1.9136,1.9136,1.9136,1.9136,1.9136,1.9136,1.9136,1.9136,1.9136,0.0,0.0,0.0,0.0,0.0,-0.0404,-0.0741,-0.1212,-0.1683,-0.2355,-0.323,-0.3632,-0.3969,-0.4104,-0.3901,-0.3701,-0.3499,-0.3029,-0.2694,-0.2425,-0.1818,-0.1414,-0.101,-0.0606,0.0,0.0,0.0,0.0,0.0,0.0,0.0,0.0,0.0,0.0,0.0,0.0,0.0,0.047,0.0805,0.1205,0.1674,0.2345,0.2882,0.3421,0.4099,0.4777,0.5379,0.6116,0.6585,0.6987,0.7323,0.771,0.7966,0.803,0.8217,0.8408,0.8477,0.8554,0.856,0.8467,0.8462,0.8511,0.8695,0.9108,0.9549,0.9959,1.0392,1.1052,1.1538,1.2076,1.2638,1.3104,1.3424,1.3818,1.4211,1.4539,1.487,1.5132,1.5458,1.5719,1.6109,1.6504,1.6629,1.6753,1.6942,1.692,1.6996,1.7001,1.7071,1.7201,1.74,1.7459,1.7582,1.7781,1.798,1.8308,1.8571,1.8693,1.8822,1.8944,1.9072,1.9072,1.9136,1.9136,1.9136,1.9136,1.9136,1.9136,1.9136,1.9136,1.9136,1.9136,1.9136,1.9136,1.9136,0.0,0.0,0.0,0.0,0.0,-0.0337,-0.0741,-0.1212,-0.1953,-0.2559,-0.2895,-0.3229,-0.343,-0.3497,-0.3498,-0.3297,-0.3029,-0.2963,-0.2559,-0.1953,-0.1481,-0.1077,-0.0741,-0.0404,0.0,0.0,0.0,0.0,0.0,0.0,0.0,0.0,0.0,0.0,0.0,0.0,0.0,0.0538,0.0875,0.1346,0.202,0.2626,0.3297,0.3834,0.4575,0.518,0.5714,0.6451,0.6987,0.7323,0.766,0.8058,0.8323,0.839,0.8456,0.8587,0.8587,0.8587,0.8584,0.8543,0.8546,0.8709,0.8987,0.9322,0.9661,1.0256,1.0853,1.1449,1.1912,1.2441,1.3104,1.349,1.3814,1.4277,1.467,1.5071,1.5332,1.5588,1.5914,1.6109,1.6504,1.6828,1.7017,1.7082,1.7265,1.7459,1.7523,1.7523,1.7588,1.7647,1.7781,1.7776,1.7905,1.8109,1.8372,1.8571,1.8764,1.8886,1.8944,1.9008,1.9072,1.9136,1.9136,1.9136,1.9136,1.9136,1.9136,1.9136,1.9136,1.9136,1.9136,1.9136,1.9136,1.9136,1.9136,0.0,0.0,0.0,0.0,0.0,-0.0269,-0.0606,-0.1212,-0.1953,-0.2425,-0.2694,-0.2961,-0.3095,-0.3162,-0.3027,-0.2961,-0.2694,-0.2357,-0.2222,-0.1548,-0.1077,-0.0808,-0.0471,0.0,0.0,0.0,0.0,0.0,0.0,0.0,0.0,0.0,0.0,0.0,0.0,0.0,0.0404,0.0741,0.1144,0.1683,0.2289,0.2961,0.3565,0.4238,0.4977,0.558,0.6115,0.6717,0.7321,0.7724,0.8058,0.8323,0.852,0.8587,0.8587,0.8587,0.8587,0.8587,0.8584,0.8584,0.8579,0.8651,0.9053,0.9389,0.9794,1.0389,1.1049,1.1714,1.2177,1.2836,1.3428,1.3814,1.4272,1.467,1.5001,1.5468,1.5854,1.6109,1.6299,1.6499,1.6693,1.7082,1.7405,1.747,1.7594,1.7787,1.8045,1.8045,1.8039,1.8103,1.8168,1.8232,1.8291,1.8489,1.8693,1.8758,1.895,1.9072,1.9136,1.9136,1.9136,1.9136,1.9136,1.9136,1.9136,1.9136,1.9136,1.9136,1.9136,1.9136,1.9136,1.9136,1.9136,1.9136,1.9136,0.0,0.0,0.0,0.0,0.0,0.0,-0.0404,-0.1077,-0.1414,-0.202,-0.2627,-0.2627,-0.2759,-0.3027,-0.2759,-0.2626,-0.2425,-0.1885,-0.1616,-0.1346,-0.0808,-0.0606,-0.0404,0.0,0.0,0.0,0.0,0.0,0.0,0.0,0.0,0.0,0.0,0.0,0.0,0.0404,0.0673,0.101,0.1481,0.202,0.2693,0.3163,0.3835,0.4508,0.518,0.5848,0.6451,0.7056,0.7591,0.7992,0.8387,0.852,0.8587,0.8587,0.8587,0.8587,0.8587,0.8587,0.8587,0.8587,0.8587,0.872,0.9259,0.9594,0.9994,1.0588,1.1317,1.1912,1.2375,1.3095,1.3748,1.4207,1.4604,1.5001,1.5398,1.5789,1.6239,1.6494,1.6688,1.6818,1.6942,1.7265,1.7529,1.7658,1.7986,1.8302,1.8495,1.8431,1.8431,1.8495,1.8559,1.8629,1.8752,1.8944,1.9072,1.895,1.9014,1.9136,1.9136,1.9136,1.9136,1.9136,1.9136,1.9136,1.9136,1.9136,1.9136,1.9136,1.9136,1.9136,1.9136,1.9136,1.9136,1.9136,1.9136,0.0,0.0,0.0,0.0,0.0,0.0,-0.0269,-0.0673,-0.1077,-0.1548,-0.1885,-0.1885,-0.2155,-0.2423,-0.2087,-0.1953,-0.1751,-0.1481,-0.1077,-0.0808,-0.0606,-0.0337,0.0,0.0,0.0,0.0,0.0,0.0,0.0,0.0,0.0,0.0,0.0,0.0,0.0404,0.0741,0.0943,0.1279,0.1751,0.2356,0.3028,0.3565,0.4238,0.4911,0.5446,0.6115,0.6786,0.7259,0.7727,0.8123,0.8387,0.8587,0.8587,0.8587,0.8587,0.8587,0.8587,0.8587,0.8587,0.8587,0.8587,0.872,0.9259,0.9598,1.006,1.0721,1.1582,1.2045,1.2704,1.3424,1.3945,1.4338,1.4866,1.5328,1.5724,1.6109,1.6494,1.6753,1.6882,1.7012,1.7201,1.7459,1.7717,1.805,1.8372,1.8758,1.888,1.8816,1.8752,1.8816,1.8822,1.8886,1.895,1.9072,1.9136,1.9072,1.9072,1.9136,1.9136,1.9136,1.9136,1.9136,1.9136,1.9136,1.9136,1.9136,1.9136,1.9136,1.9136,1.9136,1.9136,1.9136,1.9136,1.9136,1.9136,0.0,0.0,0.0,0.0,0.0,0.0,-0.0135,-0.0337,-0.0741,-0.1077,-0.1414,-0.1414,-0.1548,-0.1683,-0.1548,-0.1414,-0.1346,-0.1077,-0.0741,-0.0606,-0.0337,-0.0202,0.0,0.0,0.0,0.0,0.0,0.0,0.0,0.0,0.0,0.0,0.0,0.0,0.0539,0.0875,0.1279,0.1616,0.2087,0.2692,0.3296,0.3969,0.4642,0.5314,0.5713,0.638,0.7054,0.7393,0.7724,0.8189,0.852,0.8587,0.8587,0.8587,0.8587,0.8587,0.8587,0.8587,0.8587,0.8587,0.8587,0.879,0.9259,0.9594,1.0193,1.0853,1.1449,1.1982,1.2902,1.3691,1.408,1.4469,1.5062,1.5654,1.5979,1.6364,1.6623,1.6877,1.7071,1.7201,1.7459,1.7717,1.8045,1.8378,1.8699,1.895,1.9072,1.9008,1.8944,1.9008,1.9008,1.9008,1.9072,1.9136,1.9136,1.9136,1.9136,1.9136,1.9136,1.9136,1.9136,1.9136,1.9136,1.9136,1.9136,1.9136,1.9136,1.9136,1.9136,1.9136,1.9136,1.9136,1.9136,1.9136,1.9136,0.0,0.0,0.0,0.0,0.0,0.0,0.0,0.0,-0.0337,-0.0673,-0.101,-0.1077,-0.1077,-0.1212,-0.1077,-0.101,-0.0943,-0.0673,-0.0471,0.0,-0.0202,0.0,0.0,0.0,0.0,0.0,0.0,0.0,0.0,0.0,0.0,0.0,0.0,0.0269,0.0673,0.101,0.1481,0.2155,0.2491,0.2961,0.3431,0.4037,0.4711,0.5314,0.5848,0.6382,0.719,0.7593,0.7791,0.8323,0.8587,0.8587,0.8587,0.8587,0.8587,0.8587,0.8587,0.8587,0.8587,0.8587,0.8653,0.8856,0.9259,0.9728,1.0326,1.1052,1.1648,1.2045,1.2898,1.3617,1.401,1.4735,1.5398,1.5849,1.6169,1.6494,1.6812,1.7007,1.7136,1.733,1.7588,1.791,1.8308,1.8635,1.8822,1.9008,1.9136,1.9136,1.9136,1.9136,1.9136,1.9136,1.9136,1.9136,1.9136,1.9136,1.9136,1.9136,1.9136,1.9136,1.9136,1.9136,1.9136,1.9136,1.9136,1.9136,1.9136,1.9136,1.9136,1.9136,1.9136,1.9136,1.9072,1.9078,1.9136,0.0,0.0,0.0,0.0,0.0,0.0,0.0,0.0,-0.0067,-0.0337,-0.0606,-0.0673,-0.0808,-0.0943,-0.0741,-0.0606,-0.0539,-0.0337,-0.0135,0.0,0.0,0.0,0.0,0.0,0.0,0.0,0.0,0.0,0.0,0.0,0.0,0.0,0.0202,0.0539,0.0875,0.1279,0.1818,0.2558,0.2962,0.3297,0.3767,0.4574,0.5314,0.5649,0.5982,0.6652,0.7326,0.7526,0.7922,0.8454,0.8587,0.8587,0.8587,0.8587,0.8587,0.8587,0.8587,0.8587,0.8587,0.8653,0.872,0.8989,0.9389,0.9924,1.0522,1.1317,1.1912,1.2305,1.2828,1.3481,1.4137,1.4936,1.5663,1.5979,1.6299,1.6618,1.7001,1.7071,1.7201,1.7459,1.7717,1.8109,1.8571,1.8828,1.895,1.9072,1.9072,1.9136,1.9136,1.9136,1.9136,1.9136,1.9136,1.9136,1.9136,1.9136,1.9136,1.9136,1.9136,1.9136,1.9136,1.9136,1.9136,1.9136,1.9136,1.9136,1.9136,1.9136,1.9136,1.9136,1.9136,1.9136,1.909,1.9102,1.9084,0.0,0.0,0.0,0.0,0.0,0.0,0.0,0.0,0.0,-0.0135,-0.0269,-0.0269,0.0,0.0,-0.0337,0.0,0.0,-0.0135,0.0,0.0,0.0,0.0,0.0,0.0,0.0,0.0,0.0,0.0,0.0,0.0,0.0,0.0,0.0337,0.0741,0.1144,0.1616,0.2221,0.2894,0.3365,0.3835,0.4238,0.4977,0.5513,0.5781,0.6317,0.6987,0.739,0.7658,0.8056,0.8454,0.8587,0.8587,0.8587,0.8587,0.8587,0.8587,0.8587,0.8587,0.8587,0.8653,0.8787,0.912,0.9458,0.9927,1.0588,1.1383,1.2045,1.2503,1.3223,1.3875,1.4399,1.5127,1.5654,1.6039,1.6488,1.6872,1.7066,1.7201,1.7394,1.7717,1.8039,1.8437,1.8764,1.895,1.9072,1.9072,1.9072,1.9136,1.9136,1.9136,1.9136,1.9136,1.9136,1.9136,1.9136,1.9136,1.9136,1.9136,1.9136,1.9136,1.9136,1.9136,1.9136,1.9136,1.9136,1.9136,1.9136,1.9136,1.9136,1.9136,1.9136,1.9136,1.9102,1.9175,1.9247,0.0,0.0,0.0,0.0,0.0,0.0,0.0,0.0,0.0,0.0,0.0,0.0,0.0,0.0,0.0,0.0,0.0,0.0,0.0,0.0,0.0,0.0,0.0,0.0,0.0,0.0,0.0,0.0,0.0,0.0,0.0,0.0,0.0404,0.0741,0.1279,0.1885,0.2558,0.3162,0.3699,0.4372,0.4842,0.5245,0.5646,0.6115,0.6581,0.7185,0.7588,0.7925,0.8256,0.8456,0.8587,0.8587,0.8587,0.8587,0.8587,0.8587,0.8587,0.8587,0.8587,0.8587,0.8853,0.9189,0.9528,1.006,1.0721,1.1383,1.2111,1.2898,1.3617,1.4076,1.46,1.5187,1.5709,1.6099,1.6553,1.7001,1.7136,1.7265,1.7588,1.7975,1.8302,1.8699,1.8886,1.9072,1.9136,1.9136,1.9136,1.9136,1.9136,1.9136,1.9136,1.9136,1.9136,1.9136,1.9136,1.9136,1.9136,1.9136,1.9136,1.9136,1.9136,1.9136,1.9136,1.9136,1.9136,1.9136,1.9136,1.9136,1.9136,1.9136,1.9136,1.916,1.93,1.932,1.9476,0.0,0.0,0.0,0.0,0.0,0.0,0.0,0.0,0.0,0.0,0.0,0.0,0.0,0.0,0.0,0.0,0.0,0.0,0.0,0.0,0.0,0.0,0.0,0.0,0.0,0.0,0.0,0.0,0.0,0.0,0.0135,0.0404,0.0808,0.1144,0.1548,0.2221,0.2827,0.3431,0.4035,0.471,0.5245,0.5647,0.5982,0.6384,0.6786,0.7388,0.7789,0.8056,0.8323,0.8454,0.8587,0.8587,0.8587,0.8587,0.8587,0.8587,0.8587,0.8587,0.8587,0.8587,0.8853,0.9458,0.9794,1.0256,1.092,1.1582,1.2371,1.335,1.394,1.4141,1.4665,1.5448,1.6039,1.6229,1.6618,1.6877,1.7071,1.7394,1.7653,1.8045,1.8366,1.8758,1.9014,1.9136,1.9136,1.9136,1.9136,1.9136,1.9136,1.9136,1.9136,1.9136,1.9136,1.9136,1.9136,1.9136,1.9136,1.9136,1.9136,1.9136,1.9136,1.9136,1.9136,1.9136,1.9136,1.9136,1.9136,1.9136,1.9136,1.9136,1.9136,1.9185,1.9354,1.9513,1.9712]}]]